GFSWCAN_925_thetae_000.txt.gz
Theta_e
302 303 303 302 303 303 303 303 302 302 301 301 301 302 302 302 301 302 303 302 303 304 305 306 306 307 307 307 309 308 310 318 321 327 328 327 326 329 333 332 335 336 342 342 337 337 339 331 334 334 334 329 330 331
303 303 303 302 302 302 302 301 302 301 301 301 301 301 301 301 301 302 303 302 304 303 304 304 304 305 306 306 306 306 306 310 319 320 322 324 331 328 331 340 333 339 339 341 336 336 331 330 329 328 329 329 329 328
301 302 302 302 302 301 301 301 302 302 301 301 301 302 301 301 302 302 303 302 301 304 304 303 304 305 305 305 306 306 306 310 313 311 316 321 331 327 333 335 336 337 332 337 336 333 331 327 326 325 326 327 327 327
300 301 302 303 304 302 300 301 301 302 301 300 301 301 301 302 302 302 303 302 303 303 305 304 304 305 306 306 306 306 305 306 307 312 314 318 325 322 328 332 334 333 334 335 334 330 329 325 326 326 325 324 323 323
300 300 301 301 303 301 300 301 302 301 300 300 301 300 302 302 302 303 303 302 301 302 306 304 303 305 307 306 305 305 304 304 308 311 315 318 319 320 321 328 331 324 332 333 333 329 328 324 323 324 322 321 321 321
300 302 302 302 302 301 301 302 301 301 301 300 301 302 302 301 302 301 304 303 301 301 307 305 303 304 307 306 305 303 304 306 309 308 309 315 313 321 329 331 323 323 329 326 325 321 322 321 320 319 318 317 317 318
302 303 303 302 301 301 302 302 302 301 301 301 301 301 302 301 302 300 304 303 303 302 305 306 306 306 307 307 306 305 304 307 307 306 309 312 312 320 324 325 321 321 323 323 323 323 320 319 319 316 316 316 315 314
302 302 302 302 301 301 301 302 302 301 301 300 300 301 301 301 301 300 301 303 301 302 303 305 308 307 307 307 308 305 306 305 306 308 308 312 318 323 324 320 319 320 320 319 319 318 319 319 318 317 315 316 316 315
302 301 301 301 301 301 301 300 300 301 300 300 300 300 300 302 300 304 307 305 303 303 306 309 312 313 305 305 306 308 307 309 306 314 319 319 321 324 321 318 319 318 317 317 318 318 318 317 317 316 315 314 314 316
302 301 301 300 301 301 301 301 300 300 300 301 300 303 303 304 305 306 306 302 302 302 302 306 306 308 306 309 310 311 308 310 311 312 319 325 325 320 318 317 317 317 316 316 318 319 317 317 317 316 315 314 315 316
301 302 302 301 301 301 301 301 301 301 301 303 303 305 304 305 304 303 307 309 307 309 306 307 306 307 307 313 314 310 310 308 316 318 324 327 326 321 318 318 316 316 316 315 315 315 315 316 317 316 317 316 315 316
302 302 302 301 301 301 301 301 302 303 303 303 302 303 304 303 302 306 305 306 309 312 309 310 307 306 308 307 311 312 313 310 313 315 324 328 324 320 318 318 316 315 317 317 317 317 318 318 317 317 317 317 317 317
301 301 301 301 301 301 301 301 301 302 303 303 301 300 301 300 306 311 312 314 311 310 310 308 307 309 310 307 311 313 316 314 317 325 326 325 322 320 318 316 316 315 316 316 318 318 317 317 316 317 317 317 315 316
301 301 301 300 301 301 301 301 301 302 303 302 304 307 308 308 312 312 312 312 311 311 311 308 310 311 310 312 312 316 313 319 323 326 324 322 320 319 317 315 315 315 314 315 316 316 315 315 315 315 315 316 316 315
301 301 301 301 301 301 301 301 301 302 302 304 304 309 308 309 310 311 311 310 310 309 309 311 311 311 312 313 313 315 320 323 325 327 323 320 317 316 316 316 315 315 314 313 313 313 314 314 313 313 316 315 318 317
301 301 300 301 301 301 301 302 303 304 303 305 307 311 310 310 311 311 310 311 309 308 308 308 310 311 312 313 319 321 322 323 323 321 317 315 315 315 315 315 315 314 313 312 312 313 313 312 313 312 313 315 317 317
301 300 301 301 302 303 302 302 304 304 305 308 309 308 309 308 308 309 309 308 306 308 311 311 314 314 310 318 320 320 322 320 317 315 313 312 312 313 312 313 313 313 312 312 313 313 313 313 312 311 311 313 316 318
301 301 301 302 303 303 304 304 303 306 308 308 309 309 309 306 305 306 307 306 306 309 310 313 311 316 318 319 319 316 313 312 310 311 312 312 312 312 313 312 313 313 312 312 312 312 313 312 310 310 311 312 313 315
301 303 303 303 305 303 302 303 303 304 305 304 305 304 303 304 303 302 304 306 303 305 307 310 313 316 315 313 312 311 310 311 312 311 310 311 312 313 314 314 314 314 313 312 311 310 312 312 311 312 313 313 312 313
303 304 303 304 306 305 303 300 304 303 305 304 301 303 303 303 302 304 304 305 302 305 308 311 312 311 311 310 308 310 310 310 311 312 311 311 313 315 315 314 313 313 312 312 311 310 309 309 308 309 310 310 312 312
303 303 304 305 305 304 301 301 301 301 301 302 300 301 303 302 304 304 303 302 304 303 310 309 310 308 307 308 309 309 309 309 310 311 314 314 315 314 314 313 312 310 308 307 306 304 305 305 307 308 308 309 309 309
303 304 303 304 303 301 300 302 301 300 301 301 302 302 304 305 305 303 300 305 305 306 305 306 305 305 306 307 307 309 311 313 314 314 314 313 313 314 310 306 303 301 300 301 302 302 303 304 304 305 305 306 306 306
304 303 303 303 301 298 299 301 303 302 304 304 302 304 304 305 304 301 305 303 304 302 304 307 309 310 309 312 314 314 315 316 315 314 314 313 310 303 301 301 301 300 300 300 301 301 302 303 302 302 303 303 303 303
303 303 302 301 301 304 304 306 303 305 305 307 307 307 308 308 307 310 313 312 310 309 312 314 315 315 315 315 314 313 313 314 312 309 311 307 300 300 301 301 301 301 300 300 300 300 301 301 301 301 301 302 303 303
302 303 301 301 299 304 307 307 308 308 310 309 307 307 309 309 312 314 315 314 312 312 312 312 312 313 314 314 311 309 312 313 308 302 308 305 302 301 300 301 301 300 300 299 298 299 300 300 300 300 302 305 305 306
307 305 303 307 303 305 307 311 309 308 310 311 311 310 307 312 317 317 314 313 313 312 312 312 312 311 307 307 305 303 304 304 303 302 303 305 302 301 300 299 298 299 299 299 298 299 300 300 299 299 301 305 304 303
310 313 308 301 304 305 309 309 309 309 312 314 311 312 313 316 317 315 311 310 310 311 313 313 310 307 305 304 305 305 305 305 305 304 302 303 303 302 300 299 298 298 298 298 299 299 299 299 299 299 298 300 303 303
311 310 313 310 309 308 313 314 315 315 314 312 312 315 316 316 315 311 310 311 310 307 306 306 305 305 305 304 304 304 304 304 304 304 303 302 301 300 300 299 297 297 298 299 299 299 299 298 297 297 297 297 298 301
312 312 312 312 311 312 313 311 309 307 307 310 312 313 313 312 309 308 308 306 305 306 304 304 304 304 303 303 302 301 300 299 300 299 299 298 297 298 297 298 298 297 298 299 298 297 297 297 297 297 297 297 297 297
313 309 313 314 314 315 313 308 308 307 307 309 308 308 308 307 306 305 304 304 304 302 302 301 301 301 300 300 299 299 298 298 297 297 296 296 296 296 297 297 297 297 296 296 295 294 293 293 292 292 292 293 294 295
312 313 315 315 314 312 313 313 311 308 309 310 310 312 312 309 309 311 309 305 302 301 300 299 299 298 298 297 297 297 296 296 296 297 297 297 296 296 295 294 294 293 292 291 291 290 291 291 291 291 291 290 290 290
314 317 318 317 317 314 314 313 312 314 315 317 318 316 315 314 312 311 307 308 305 300 299 298 297 295 295 295 295 295 295 294 295 296 295 294 294 293 293 291 290 290 289 288 288 288 288 289 289 288 288 288 288 288
314 314 316 316 316 316 315 314 317 318 317 318 316 316 315 313 312 311 310 300 298 298 298 297 295 294 294 293 293 293 293 292 293 293 292 291 290 289 289 288 288 287 287 287 287 287 287 287 287 287 287 287 287 287

GFSWCAN_925_thetae_003.txt.gz
Theta_e
301 301 302 302 302 302 303 303 303 302 302 302 302 303 302 301 302 303 302 302 303 303 302 302 303 306 308 308 309 307 309 314 323 333 333 331 331 333 336 337 338 339 342 345 345 346 342 335 338 341 340 336 336 338
301 301 301 302 302 303 303 303 302 301 301 302 302 303 301 301 301 301 302 302 302 304 302 302 302 303 304 306 307 307 307 308 314 321 326 329 337 335 340 337 334 341 338 342 342 344 335 332 335 335 336 336 336 339
301 301 301 301 302 303 303 302 301 301 301 302 302 301 301 301 301 302 302 302 301 302 303 303 302 302 303 303 303 306 306 309 316 313 319 325 335 334 342 341 334 338 336 339 341 340 333 332 331 332 334 336 336 338
301 301 301 302 302 302 303 302 301 301 302 301 301 300 301 301 301 301 302 302 302 303 303 303 303 304 305 304 304 304 306 307 308 315 319 323 331 327 334 338 340 333 335 339 340 336 331 329 329 329 330 330 330 331
301 301 302 302 302 303 302 301 302 302 302 300 300 301 300 301 302 301 302 303 302 301 303 302 302 305 305 304 305 305 306 307 307 316 318 321 322 324 329 335 331 325 333 341 338 334 334 331 327 325 325 325 326 328
301 302 302 303 302 301 301 302 302 302 302 301 300 301 302 302 301 301 302 301 302 302 303 305 305 306 307 306 306 307 307 307 308 314 316 316 317 326 337 333 323 325 325 329 329 327 325 322 321 322 323 322 323 323
301 302 302 302 301 301 302 302 302 302 301 301 301 301 302 301 301 302 302 301 301 301 303 307 308 309 308 308 308 308 307 309 313 313 313 318 319 327 327 327 323 323 324 325 324 323 323 321 321 319 320 320 319 320
302 301 302 301 301 302 302 302 301 301 301 300 300 301 300 300 301 302 302 300 301 301 303 307 309 312 308 312 313 310 311 311 311 313 315 322 324 326 326 323 322 321 322 322 321 321 322 321 320 318 318 320 321 321
301 301 300 301 301 301 301 301 301 301 300 300 300 300 300 301 302 303 305 305 303 302 306 309 313 317 311 309 310 312 312 314 311 323 325 324 325 326 324 322 322 320 319 320 320 320 320 321 321 320 320 321 321 321
302 301 301 301 301 301 301 301 301 301 301 301 301 304 305 304 304 305 307 306 305 306 306 307 307 312 310 314 315 315 314 317 326 324 324 326 325 323 321 320 320 320 320 319 322 322 322 321 321 322 322 321 321 321
302 302 301 301 301 301 301 302 302 302 302 303 304 306 304 304 305 307 309 310 310 312 310 310 310 313 312 318 318 315 315 316 325 326 326 327 326 323 321 321 319 319 319 320 321 321 321 322 322 321 321 322 322 322
301 301 301 301 301 301 301 301 301 302 302 303 303 302 303 306 307 309 310 309 311 314 313 314 312 312 314 312 316 317 317 316 324 323 327 326 324 322 321 320 319 319 320 322 321 320 319 319 319 320 320 320 320 321
301 301 300 300 301 301 301 301 301 301 302 303 303 304 305 306 312 312 317 315 316 314 314 313 315 314 318 312 316 318 319 323 322 326 326 325 324 322 320 319 318 318 319 319 319 318 317 318 318 318 320 319 319 319
301 301 301 301 301 301 301 301 301 302 302 305 306 310 310 313 312 313 314 314 314 315 315 313 314 316 316 316 317 319 319 322 325 325 323 324 323 321 320 319 319 319 318 318 318 318 318 318 317 317 319 319 320 320
301 300 301 301 302 302 303 302 302 303 303 306 304 307 306 308 311 313 313 313 314 313 314 316 315 317 317 318 320 318 322 325 326 324 321 323 322 321 321 321 320 320 319 319 318 318 318 317 318 317 317 319 320 321
301 301 301 302 303 303 303 303 304 304 304 307 309 311 311 312 313 312 313 313 312 311 314 313 314 316 315 320 322 322 323 321 324 323 321 321 321 321 321 321 320 319 319 319 318 318 318 318 318 317 317 318 320 321
301 301 302 303 304 304 304 304 304 307 308 310 311 310 311 311 312 311 311 312 310 314 316 316 318 317 316 320 322 322 317 318 320 321 320 320 321 321 320 320 320 319 319 318 317 318 318 317 316 317 319 317 317 317
301 303 303 304 305 304 304 304 306 309 310 310 311 310 309 311 311 311 309 310 311 314 315 317 316 318 320 320 319 318 319 319 318 319 320 320 319 319 319 319 319 319 319 318 317 317 317 318 319 318 318 317 317 318
302 303 303 304 305 304 305 306 305 309 309 308 308 307 308 309 308 308 309 309 308 309 313 316 317 317 318 318 318 319 319 319 320 318 316 316 317 319 319 319 318 319 316 316 316 315 314 315 314 314 315 315 316 316
303 303 303 304 305 306 307 307 305 308 310 309 307 308 308 309 308 309 309 309 308 314 317 316 316 317 317 316 315 316 316 316 318 319 318 319 317 318 318 317 317 315 313 312 310 308 311 311 311 311 311 312 313 313
303 303 304 304 305 304 306 306 307 307 308 309 307 308 310 309 310 309 310 308 313 312 316 315 315 314 312 312 312 313 315 315 318 319 319 318 316 315 312 308 306 306 305 306 307 307 307 307 307 307 308 309 309 310
303 304 303 304 303 303 306 303 306 306 307 307 308 308 310 311 311 311 307 312 313 312 312 312 313 313 315 316 315 313 314 315 317 317 316 315 317 309 307 305 305 305 304 304 304 304 304 304 304 304 305 305 306 306
304 303 303 303 304 304 305 304 307 307 309 309 308 309 310 311 312 310 313 312 310 308 308 309 312 314 314 315 317 318 317 318 319 318 317 316 309 304 304 304 304 304 305 303 302 302 303 303 303 303 304 304 305 306
304 304 305 305 305 307 306 308 307 308 309 309 309 309 310 310 310 314 315 316 317 314 316 317 317 321 320 318 318 316 314 316 313 314 315 307 306 305 305 304 303 303 302 301 301 301 302 303 302 302 303 304 307 308
304 304 305 305 304 307 310 310 310 311 313 312 313 315 314 313 318 319 319 319 318 318 318 316 317 317 317 312 310 308 307 307 308 310 313 307 306 305 305 304 303 301 300 301 301 301 302 302 302 302 302 304 305 304
308 307 307 310 310 310 312 314 314 313 313 314 315 314 313 316 317 318 319 318 318 316 316 316 312 311 310 308 308 307 306 305 307 308 306 305 305 305 305 304 304 302 299 299 300 300 302 302 302 301 301 301 302 302
313 316 312 306 308 309 313 313 313 314 316 317 316 317 317 318 317 319 318 314 314 311 310 309 308 307 307 306 305 305 305 304 304 304 303 303 302 301 301 301 301 299 298 299 299 300 301 301 301 301 301 301 300 300
313 312 316 315 311 310 316 317 317 318 316 316 316 318 318 318 317 312 310 306 305 305 305 304 304 304 304 303 302 301 301 301 303 303 303 301 299 298 298 299 298 298 298 297 299 299 299 299 299 300 300 300 300 300
313 314 314 318 314 315 317 316 313 312 312 315 316 316 315 309 306 307 306 305 304 304 303 303 303 303 303 302 300 299 299 299 300 301 301 301 300 299 298 298 298 298 297 297 295 294 293 294 294 294 295 295 295 296
317 314 317 317 317 318 318 313 314 312 311 311 309 311 312 311 310 309 306 304 303 302 302 301 301 300 300 300 300 300 298 297 297 298 299 299 298 297 296 295 295 294 293 293 293 292 292 292 292 292 291 291 291 291
318 318 318 318 319 316 317 318 314 313 313 312 312 313 313 312 310 308 308 307 306 304 302 300 299 297 297 297 297 297 297 296 296 296 296 295 295 293 292 291 291 291 290 290 290 290 289 289 290 289 289 289 289 289
319 320 321 320 321 320 318 318 318 317 317 314 313 313 313 313 312 309 307 301 301 300 298 298 297 296 295 295 294 294 293 294 293 292 291 291 290 290 290 289 289 289 289 288 288 288 288 288 288 288 288 288 288 288
318 320 320 320 320 320 319 319 320 319 317 315 315 315 314 314 313 312 297 297 298 298 298 296 295 293 293 293 293 292 291 290 289 289 288 288 287 287 288 287 287 287 287 287 287 287 287 287 287 287 288 288 288 288

GFSWCAN_925_thetae_006.txt.gz
Theta_e
301 301 302 302 302 302 302 303 303 303 303 302 303 304 304 303 302 302 302 302 303 304 304 305 305 305 306 309 312 311 310 314 317 328 328 325 327 327 327 333 340 340 339 335 339 343 341 338 340 344 345 344 342 341
301 301 302 302 302 302 302 302 303 303 301 301 302 303 303 302 301 301 303 304 303 304 304 304 304 304 304 304 307 308 309 310 311 322 329 331 337 334 331 331 336 337 335 335 338 337 340 337 338 339 340 343 343 343
301 301 301 302 303 303 302 302 303 302 301 302 302 301 303 302 301 302 302 303 303 304 305 306 307 305 304 303 305 309 308 308 314 313 316 326 335 335 340 338 335 337 336 339 342 340 337 336 336 336 338 340 340 340
301 301 302 302 303 303 302 303 302 301 302 302 301 301 301 301 301 301 302 303 303 304 305 305 304 305 304 305 304 305 307 308 310 312 320 323 332 330 337 341 344 338 339 340 340 339 335 335 335 334 334 336 338 338
300 302 302 302 302 301 301 301 302 302 302 302 301 300 301 301 301 302 303 303 303 304 305 304 303 307 307 304 306 305 306 306 310 315 322 324 323 326 332 337 334 329 338 340 338 338 338 330 328 328 330 332 333 334
301 302 302 301 301 301 302 302 302 302 302 301 300 301 301 302 302 303 304 303 304 303 303 306 306 309 310 308 307 308 309 309 310 314 321 318 318 327 337 334 325 326 330 333 337 333 326 324 323 323 325 325 327 328
301 301 301 301 301 301 302 302 302 301 300 301 301 301 302 302 303 304 304 303 302 302 304 307 311 312 311 311 311 311 310 312 312 316 318 319 325 328 326 329 325 326 328 328 326 324 325 324 324 323 323 323 321 323
301 300 301 301 301 301 301 301 301 301 301 300 300 300 301 300 301 303 304 302 301 304 304 309 313 315 312 314 314 312 313 312 315 316 318 323 325 325 326 324 324 324 323 323 323 323 322 321 322 323 322 322 322 322
302 301 301 301 301 301 301 301 301 301 301 301 301 300 303 303 303 305 303 304 303 303 307 310 313 317 314 314 315 314 313 315 315 321 327 326 325 327 324 324 323 323 323 324 322 321 322 323 323 321 322 322 323 324
301 302 301 301 301 301 302 302 302 302 302 303 304 306 307 307 305 306 307 307 307 306 306 310 311 315 314 317 316 316 316 317 322 327 325 325 324 323 322 322 321 320 322 322 321 320 322 323 323 323 323 322 323 323
301 301 301 301 301 301 301 301 301 303 304 305 306 307 307 306 308 309 310 310 312 313 312 312 314 316 315 320 320 319 320 321 322 327 328 326 322 322 322 321 321 321 321 323 322 322 322 322 322 322 322 323 323 324
301 301 301 301 301 301 301 301 301 304 304 304 303 304 306 310 311 311 313 313 313 316 315 316 315 315 314 315 320 320 319 320 324 325 327 323 320 319 320 321 321 321 321 322 320 320 320 320 321 321 321 321 322 322
301 301 301 301 301 302 303 303 302 302 304 306 307 308 310 311 314 316 317 317 318 316 317 317 318 316 319 318 320 321 321 325 323 326 326 325 323 321 321 320 321 320 319 319 318 318 318 319 319 321 322 322 321 321
301 301 301 302 303 304 304 303 303 303 305 307 308 310 308 311 314 315 316 317 317 317 318 318 319 320 318 319 319 321 322 323 325 325 326 324 323 322 321 320 319 319 318 318 318 318 318 319 319 320 322 322 322 323
301 301 301 303 304 305 304 303 304 305 307 306 304 308 309 309 313 315 315 316 316 316 318 318 317 317 319 320 320 321 323 326 324 323 324 326 324 323 322 321 321 320 320 320 319 319 319 319 319 319 321 323 323 324
301 303 304 303 304 305 304 305 307 308 308 310 310 313 313 314 314 314 315 316 316 317 318 317 316 317 320 321 322 325 324 322 324 320 323 324 324 323 323 323 322 322 321 320 319 320 318 319 320 320 319 320 321 324
303 304 304 303 304 306 305 308 309 311 312 312 313 313 314 314 314 313 314 315 315 318 318 317 320 321 320 321 321 317 315 312 322 322 323 324 323 324 324 323 323 322 322 321 321 320 321 320 318 319 320 320 319 319
305 304 304 303 305 308 308 308 311 311 312 311 312 311 312 313 313 313 313 314 315 317 318 319 317 318 320 320 319 320 319 321 322 324 324 323 323 323 322 323 322 322 322 321 321 320 320 320 317 317 317 318 317 316
303 303 303 304 305 307 310 310 310 312 311 310 310 311 312 312 313 313 314 314 314 315 316 316 318 319 320 320 320 321 321 322 323 322 322 322 322 322 322 322 321 321 320 317 315 316 317 316 316 315 315 315 316 315
304 304 304 304 306 309 310 311 309 310 311 311 311 312 313 313 313 314 314 315 315 315 316 316 317 317 317 317 317 319 319 320 323 322 323 323 319 319 318 317 315 313 314 313 311 310 312 312 312 312 312 313 314 315
306 306 306 306 308 308 309 310 311 311 311 311 311 313 313 313 314 315 315 313 314 315 315 315 315 315 317 317 316 316 319 320 322 322 321 318 313 312 312 311 311 311 311 310 311 310 309 309 308 308 309 310 309 310
307 305 307 307 308 309 310 308 310 310 311 312 313 313 314 315 317 316 316 317 318 318 317 318 319 320 320 321 321 320 319 319 318 318 317 317 315 314 313 310 310 310 309 308 308 308 307 306 305 305 306 306 307 308
306 306 308 308 310 309 310 309 313 311 314 315 315 315 314 315 314 314 316 316 316 316 316 318 318 318 320 318 318 317 316 316 319 319 319 317 311 309 309 308 308 308 308 307 306 306 305 304 304 304 304 305 306 308
306 307 310 311 311 314 313 315 314 315 315 316 313 314 315 316 316 317 318 319 320 320 321 320 319 320 316 315 313 312 310 310 311 313 312 311 311 310 309 308 307 307 306 306 305 305 304 304 303 304 303 304 306 306
309 308 311 313 312 315 317 318 317 317 319 318 320 319 319 317 319 319 319 320 322 322 319 315 312 312 312 312 310 309 307 307 308 310 309 309 310 309 309 308 307 305 304 304 304 303 303 303 303 303 303 303 303 303
312 314 314 318 318 318 319 320 320 320 319 320 320 319 319 319 317 318 319 319 318 316 313 311 311 310 309 308 308 307 305 304 306 307 307 306 307 307 308 308 308 306 302 302 302 302 302 302 303 303 303 302 302 302
319 322 319 313 315 315 319 319 318 320 320 320 320 320 317 317 318 317 313 311 310 308 307 307 307 307 307 305 304 303 303 302 305 305 305 304 302 302 302 303 303 301 301 301 301 301 302 302 302 302 302 301 301 301
319 319 321 321 318 316 319 319 318 318 317 318 318 318 319 318 315 312 309 308 308 307 306 306 305 305 304 304 302 301 301 300 301 301 302 303 302 301 299 300 300 299 300 298 298 298 297 297 298 298 298 298 298 297
321 320 319 322 320 319 320 319 317 316 316 317 318 318 313 310 308 306 306 307 306 306 306 305 304 303 302 302 301 300 300 299 300 301 301 301 300 299 298 297 297 296 296 295 294 294 292 292 293 293 294 294 294 294
321 319 321 321 320 321 321 319 317 315 313 313 312 311 311 310 309 308 307 307 307 307 305 303 302 301 301 300 299 298 298 298 298 298 299 299 297 296 295 294 293 293 293 293 293 292 292 291 292 292 292 292 292 291
321 321 320 321 321 320 320 316 315 315 315 313 312 312 312 312 308 309 308 307 304 303 303 302 302 299 298 297 297 297 297 296 295 294 293 293 293 292 292 292 291 291 291 291 291 291 291 291 291 291 291 291 290 290
321 321 322 319 321 322 321 319 319 315 314 312 313 312 312 313 313 311 304 304 304 303 301 300 299 297 296 295 295 295 293 293 291 291 289 289 289 289 289 290 290 290 290 290 290 290 290 290 290 289 289 289 289 289
319 318 318 317 317 316 320 321 320 319 317 316 316 315 314 314 314 311 303 301 300 300 299 298 296 295 294 294 293 293 293 292 290 289 287 286 285 286 287 288 288 288 289 289 289 289 289 289 289 289 289 289 289 289

GFSWCAN_925_thetae_009.txt.gz
Theta_e
301 301 302 302 302 303 303 303 303 303 303 303 302 304 304 304 303 303 304 305 303 305 304 306 306 307 306 309 309 313 313 312 314 318 320 319 320 321 324 327 330 329 334 333 336 336 337 341 340 341 347 345 345 346
301 302 302 302 302 303 303 303 302 302 303 301 302 304 303 303 302 302 304 303 302 303 305 305 305 305 306 308 309 309 311 311 314 321 325 326 333 334 329 330 328 332 331 333 334 337 346 343 342 342 341 344 344 344
301 301 302 302 302 303 302 303 303 302 301 301 302 302 303 303 302 302 303 304 303 305 306 307 308 307 306 305 305 308 309 310 312 315 316 321 331 337 340 333 331 334 333 337 343 345 343 342 341 341 342 343 342 343
300 302 302 302 301 301 301 301 301 302 302 302 302 303 302 302 302 302 304 303 303 305 308 307 307 307 306 307 306 306 308 310 312 313 315 323 327 330 336 338 346 337 337 340 346 344 342 341 340 340 341 341 342 344
301 301 301 301 302 302 302 302 302 302 302 302 301 301 301 301 301 302 303 304 304 304 307 307 306 307 307 305 307 306 307 310 310 313 318 325 324 327 333 339 332 331 335 348 346 342 342 337 335 336 337 337 338 341
301 301 301 301 301 301 301 301 302 301 301 301 301 302 301 301 302 304 307 305 305 305 307 307 309 311 312 307 309 310 310 311 311 313 317 323 321 325 335 335 329 331 332 338 341 336 330 328 328 327 329 331 331 332
301 301 301 301 301 301 301 300 301 301 301 301 300 300 301 302 303 305 306 304 302 304 305 308 313 313 315 312 311 312 312 312 314 314 318 322 321 323 328 331 329 329 332 332 332 331 331 327 326 326 325 323 323 324
302 301 301 301 301 301 302 302 302 302 302 301 301 301 301 301 301 304 305 304 302 305 305 309 313 317 314 316 316 314 314 312 317 315 320 320 322 327 328 326 325 325 327 327 327 329 328 327 325 323 323 324 323 323
301 301 301 301 301 301 301 301 301 302 303 302 303 303 304 305 305 308 305 305 302 304 308 309 314 317 316 318 317 314 314 315 316 318 324 324 322 326 325 323 325 325 324 325 325 325 324 323 320 320 323 322 325 325
301 301 301 301 301 301 301 301 301 302 304 305 306 307 310 308 306 307 309 309 307 308 306 310 314 318 317 317 314 314 315 316 320 324 322 323 322 321 322 321 323 323 321 321 323 324 324 322 322 323 320 320 324 325
301 301 301 301 301 302 303 303 303 303 307 308 308 310 308 308 309 312 313 313 313 314 313 315 317 320 317 322 320 321 323 320 324 323 326 321 321 322 320 321 321 322 322 320 320 321 323 323 325 321 323 324 324 324
300 301 301 301 302 303 304 304 304 306 307 306 305 305 308 311 313 314 315 315 316 315 318 319 319 317 316 317 323 322 323 323 326 325 322 322 320 321 320 319 321 322 321 321 321 322 322 321 323 323 323 323 323 323
301 301 301 301 302 303 304 304 303 303 305 308 309 310 311 313 316 315 318 318 319 319 320 320 321 319 320 321 322 325 323 325 323 326 322 321 319 321 321 322 321 321 319 319 319 320 319 320 321 323 323 323 322 324
301 301 301 303 304 304 305 304 304 306 308 310 311 314 311 315 315 317 318 319 319 320 319 321 321 321 320 320 323 321 325 323 325 326 326 322 321 320 322 321 320 319 319 319 319 318 319 320 322 323 323 323 323 325
301 302 304 305 303 304 306 305 307 309 309 308 308 310 314 314 316 317 317 318 317 317 319 322 319 319 320 322 322 323 323 324 322 326 323 321 322 321 321 320 320 320 320 319 319 319 319 319 320 321 322 323 324 325
302 306 307 304 304 305 307 309 311 312 312 313 313 315 315 316 316 315 316 317 318 319 320 318 319 321 322 322 323 321 323 321 319 323 323 322 323 321 321 322 321 320 320 320 319 318 319 319 320 320 319 319 320 322
304 307 305 304 305 307 309 311 313 313 314 313 313 312 313 314 316 317 317 317 318 319 320 319 322 322 319 321 321 315 316 315 320 321 324 322 323 323 322 322 322 321 321 320 320 320 320 319 318 318 320 318 318 319
306 306 305 304 305 309 312 311 313 311 311 311 312 313 314 314 316 317 317 318 319 320 319 320 319 321 322 322 321 321 321 322 322 323 324 324 323 323 323 323 320 321 321 320 319 319 319 319 318 317 317 317 318 317
305 305 305 305 306 309 312 311 312 312 312 312 313 313 313 315 316 316 317 318 318 318 318 319 319 321 322 322 323 324 325 325 326 326 325 323 322 323 322 321 320 319 317 317 317 317 317 316 316 315 315 316 316 316
307 307 308 307 308 312 313 312 311 312 313 313 313 314 314 315 315 316 316 316 316 317 317 317 318 319 319 322 322 323 325 325 325 324 321 322 318 317 317 317 317 316 315 315 313 311 314 313 312 312 312 312 313 314
310 310 308 310 312 311 313 313 314 313 313 314 314 314 315 317 318 318 320 318 318 319 320 321 322 322 321 321 320 320 323 322 323 323 321 316 315 315 315 314 314 313 313 313 313 312 310 310 309 308 309 309 309 309
310 308 311 312 314 314 315 313 314 314 314 314 317 316 316 317 318 318 318 319 319 320 321 323 324 323 323 322 321 318 319 320 320 320 318 318 319 317 315 313 313 313 312 310 309 309 309 307 307 306 307 306 307 309
309 310 313 314 316 314 317 316 317 316 318 318 318 318 317 318 318 317 318 319 319 318 320 320 319 318 318 313 313 312 312 314 315 315 314 314 313 313 312 311 310 310 310 309 308 308 307 306 306 306 306 306 306 308
309 312 315 317 318 319 318 320 319 319 318 319 320 321 320 321 320 320 320 320 320 319 319 319 315 316 314 316 313 311 309 309 311 311 311 311 313 313 311 311 310 309 308 307 307 306 306 305 304 305 306 305 306 305
316 315 320 319 320 321 320 320 320 319 319 320 320 320 320 320 319 320 319 320 319 315 314 313 313 313 312 312 310 308 306 307 309 310 309 308 309 309 310 310 308 307 305 305 306 305 304 304 304 305 305 305 305 304
319 321 321 321 320 321 320 319 319 320 319 319 319 319 320 320 319 319 316 314 312 312 312 312 312 311 311 308 308 306 305 304 306 307 307 306 305 306 307 307 307 306 303 303 302 302 303 302 303 303 303 303 303 303
321 321 323 320 320 320 321 320 320 319 319 320 319 319 318 319 318 313 311 310 310 309 308 308 308 308 308 307 306 304 303 303 303 304 304 305 304 303 302 303 303 300 300 300 299 299 299 298 298 299 299 299 299 299
322 323 323 322 322 320 321 320 318 318 318 319 319 319 319 317 314 309 310 309 309 309 308 308 307 305 305 304 303 302 302 302 302 302 302 303 302 301 299 299 298 296 297 296 295 296 295 294 294 295 296 296 296 296
323 322 322 322 321 320 321 321 319 319 318 318 320 317 313 312 310 308 308 308 308 306 308 306 305 304 303 301 301 300 301 300 300 301 301 301 300 298 297 296 296 295 295 295 295 293 293 292 293 294 294 295 295 294
321 321 322 321 322 322 321 319 319 317 315 314 312 310 309 309 309 309 310 310 308 307 306 305 304 302 300 300 300 299 299 297 296 296 297 297 296 295 294 294 294 294 294 294 294 294 293 293 294 294 293 293 292 292
319 319 319 322 321 320 319 317 317 316 315 314 313 312 312 312 311 311 307 307 306 305 304 303 301 300 298 298 298 297 297 296 294 293 291 291 292 292 292 293 292 293 292 293 293 293 293 293 293 292 292 291 291 291
319 318 318 318 321 321 320 320 318 317 316 316 315 314 314 314 314 309 306 305 304 303 302 301 299 298 297 297 296 296 294 295 294 292 290 289 289 290 291 291 291 291 291 292 292 292 292 292 292 291 291 291 290 290
318 318 317 317 317 316 320 322 322 320 316 316 317 316 314 314 313 309 306 304 302 301 300 299 298 297 297 295 295 294 294 294 291 289 288 287 287 288 289 290 290 291 291 292 292 291 291 291 290 290 290 290 290 290

GFSWCAN_925_thetae_012.txt.gz
Theta_e
302 301 301 302 302 302 303 302 304 303 303 304 303 303 304 305 304 304 305 305 304 305 304 306 306 308 307 307 309 311 310 315 313 312 317 317 321 322 325 328 330 330 329 334 341 343 346 340 340 342 347 344 343 342
302 301 302 302 301 301 302 302 303 303 302 303 302 304 303 302 304 303 304 305 305 306 305 304 305 307 306 307 308 309 310 311 316 316 320 322 324 327 326 327 325 328 328 329 333 335 342 346 347 344 343 343 344 343
302 302 302 301 301 302 302 302 302 302 302 302 303 303 304 304 303 303 304 305 305 304 306 307 308 307 307 307 306 308 309 310 312 316 318 321 327 330 333 329 336 330 334 332 333 338 344 342 340 341 342 344 344 351
301 301 301 301 301 301 302 302 302 302 303 303 303 303 303 303 302 302 305 303 305 305 307 306 307 308 308 308 308 307 307 309 312 315 315 319 326 324 327 328 335 338 337 343 337 347 346 345 345 343 343 347 349 348
301 301 301 301 301 301 301 301 301 301 301 301 302 302 302 301 302 303 304 304 304 304 307 308 306 308 309 308 308 308 307 308 311 311 317 320 325 325 327 329 329 331 337 340 352 339 348 342 341 340 341 342 342 342
302 301 301 301 301 301 301 302 302 302 301 301 301 301 301 301 302 304 307 304 306 305 308 308 308 310 311 309 307 309 309 309 309 314 316 316 322 324 328 332 331 332 335 338 333 330 331 332 330 334 335 334 335 335
301 301 301 301 301 301 301 301 302 301 302 302 302 301 301 300 302 305 307 305 303 303 307 308 311 313 313 310 311 311 310 311 313 316 316 317 323 323 328 329 329 330 330 331 330 328 328 327 329 327 327 327 327 328
301 301 301 301 301 301 301 301 301 302 302 303 303 302 302 302 302 305 306 305 304 305 305 309 311 313 315 313 314 314 313 313 316 317 316 323 323 324 328 326 327 326 329 330 330 327 327 326 325 325 325 327 327 327
301 301 301 301 301 303 303 304 304 304 304 305 305 305 306 306 307 309 305 306 304 304 308 309 312 319 313 318 317 314 314 314 318 319 322 322 319 325 325 326 325 324 327 327 326 326 324 324 322 323 323 325 326 324
300 301 301 301 302 302 302 303 304 304 305 307 308 310 313 310 307 307 307 309 307 307 307 310 311 316 315 316 316 315 315 319 322 322 321 321 321 320 322 321 321 321 322 324 324 323 321 320 322 324 322 322 321 325
301 301 301 301 301 301 303 304 305 305 309 309 310 311 309 309 310 311 313 313 312 313 312 314 318 321 319 322 323 321 323 324 323 320 323 320 319 321 320 322 321 319 319 321 322 322 321 320 319 319 319 321 323 325
300 300 301 302 302 304 304 305 305 307 308 307 306 307 310 313 314 313 313 311 311 310 312 319 321 319 318 318 321 322 325 323 322 322 321 318 319 320 321 321 321 322 322 323 323 323 324 324 322 320 320 322 324 325
300 300 302 303 305 304 304 306 305 305 307 310 312 313 313 315 317 318 320 320 320 319 320 322 322 320 321 321 322 321 324 326 323 323 321 318 318 320 321 320 320 319 320 320 320 321 322 323 322 324 324 323 323 323
300 300 303 306 306 304 306 306 308 309 309 312 313 317 314 316 315 318 320 322 321 319 319 320 326 320 321 323 323 322 323 325 326 326 322 321 322 322 322 321 322 321 321 320 320 320 322 325 324 323 324 324 325 326
301 301 306 307 306 305 308 309 309 311 312 314 315 319 318 318 319 319 319 318 321 322 323 321 321 320 322 323 324 322 324 324 322 326 322 322 322 323 324 322 322 320 320 320 320 320 320 321 320 323 323 324 324 324
302 305 308 307 305 306 310 312 313 315 316 317 316 315 315 316 317 318 318 319 321 320 319 320 321 321 321 322 320 319 322 320 318 321 321 322 322 323 323 323 324 322 321 321 321 321 321 323 322 321 319 320 320 322
304 309 308 306 306 309 312 313 314 314 313 313 313 314 315 317 318 318 318 320 320 322 322 320 323 323 320 319 317 316 318 318 320 321 320 320 321 322 322 321 323 323 323 322 321 321 321 319 319 320 325 320 319 321
308 309 307 307 307 312 313 312 314 313 312 313 315 315 316 316 318 319 318 318 319 321 322 320 319 320 322 322 321 321 321 322 321 322 322 322 322 323 322 323 324 323 322 321 319 320 319 319 319 318 318 317 316 318
306 307 309 308 307 309 314 312 314 314 314 314 315 317 316 318 318 319 319 318 320 319 320 320 320 322 323 324 325 325 325 326 326 326 324 322 322 321 321 321 320 319 318 318 317 317 316 316 315 313 313 314 315 315
310 310 310 310 310 315 314 314 313 314 315 315 315 316 318 318 319 318 318 320 319 320 321 322 324 324 325 325 325 326 326 324 324 324 323 325 318 319 320 319 319 318 316 315 313 311 312 311 310 310 310 311 311 311
314 312 313 313 315 315 316 315 315 315 316 316 318 319 319 318 319 320 322 319 319 321 323 324 324 324 320 320 319 320 324 321 325 325 322 319 317 316 315 315 314 314 313 312 312 311 310 309 308 308 308 308 308 310
314 312 315 316 317 316 317 316 316 316 317 319 318 318 319 319 319 318 318 318 319 321 321 321 323 317 318 319 316 315 317 319 319 316 317 317 316 315 314 313 312 313 312 311 310 310 309 307 306 307 308 307 307 309
313 313 317 318 319 317 320 318 320 319 319 319 321 320 320 320 319 316 317 318 319 320 318 319 320 317 318 315 312 310 311 313 315 314 313 312 314 314 313 312 312 311 311 309 308 308 307 306 306 306 307 307 307 307
313 316 319 321 321 321 320 321 320 320 320 321 321 322 322 322 321 320 320 319 320 318 316 318 314 315 314 313 311 310 309 309 310 310 309 310 311 311 311 311 310 308 308 308 307 307 306 305 305 306 306 306 306 306
318 317 320 316 323 321 320 320 320 319 320 319 320 322 323 322 320 319 318 317 315 314 314 312 312 314 312 311 310 308 306 306 307 309 308 307 307 308 308 307 306 305 304 304 304 303 303 303 303 303 304 304 303 303
319 323 320 320 321 320 321 319 320 320 320 319 320 321 321 323 319 318 314 313 313 313 312 312 312 311 310 308 308 306 305 305 305 306 305 307 306 305 305 305 304 301 300 301 300 299 300 300 298 298 299 300 299 300
321 322 323 323 322 321 323 321 320 319 320 321 322 321 320 321 317 312 312 311 312 311 311 310 309 307 307 305 304 304 304 303 303 303 304 305 303 302 301 301 300 297 298 298 297 297 297 296 296 296 297 297 298 298
325 325 322 319 324 320 320 322 320 320 320 319 320 321 319 317 313 311 310 310 310 310 309 308 307 306 304 303 302 302 302 301 300 300 301 302 300 299 298 298 297 296 297 296 296 296 295 295 295 295 296 296 296 296
324 323 323 324 321 320 320 320 319 318 317 319 321 318 315 313 311 311 310 310 310 310 308 307 305 304 302 301 301 300 300 298 297 298 298 298 298 296 296 296 296 296 296 296 294 294 294 294 294 295 295 294 294 293
320 321 322 321 321 322 320 319 318 316 315 314 313 313 313 312 311 311 312 310 308 307 306 305 303 301 300 300 300 299 298 297 296 295 295 295 294 294 294 294 294 294 294 295 295 295 294 294 294 294 293 293 293 292
319 319 320 321 320 320 318 319 316 315 315 315 314 314 313 313 312 309 307 306 305 304 303 302 302 300 299 299 298 298 297 297 295 293 291 291 292 293 293 293 293 293 294 294 294 294 294 294 293 293 293 292 292 292
319 318 318 318 322 321 321 321 319 318 316 316 316 314 314 316 315 310 308 306 305 303 302 301 300 300 299 298 297 297 295 296 294 292 291 290 291 291 292 292 292 293 293 293 293 293 293 292 292 292 292 292 291 291
318 318 318 318 318 319 322 323 322 320 317 316 316 316 315 314 312 308 307 305 303 302 300 299 299 299 298 297 296 296 296 293 292 291 291 290 290 290 290 291 291 292 292 292 292 292 291 292 292 291 291 291 291 291

GFSWCAN_925_thetae_015.txt.gz
Theta_e
301 301 302 301 301 301 302 302 302 302 302 303 304 305 305 305 304 304 304 304 305 304 304 304 304 306 306 307 309 309 310 310 312 316 316 318 319 320 324 325 326 328 332 332 335 335 337 342 340 340 343 346 342 341
301 301 301 301 301 301 301 302 302 302 302 303 304 304 304 304 304 304 304 304 304 306 305 304 304 305 305 305 307 308 310 310 311 318 317 319 320 323 327 331 326 330 334 338 332 341 345 337 334 332 337 342 345 350
302 301 301 301 301 301 301 301 301 302 302 303 304 304 304 304 304 304 304 304 304 305 304 305 306 306 305 305 306 308 307 308 310 314 317 320 324 325 328 330 333 330 333 341 341 332 338 340 334 340 350 348 349 349
301 301 301 301 301 301 301 301 302 302 302 303 304 304 304 304 303 303 303 303 304 304 306 305 305 306 305 306 307 306 306 306 310 311 315 318 321 324 328 327 329 334 332 337 340 335 338 345 346 345 347 345 342 342
301 301 301 301 301 301 301 301 301 302 301 302 304 304 303 302 302 301 303 304 305 304 306 306 305 307 307 308 308 308 308 307 308 311 316 318 320 322 325 328 330 330 335 338 341 331 334 331 333 341 339 339 338 336
300 301 301 301 301 301 301 302 303 303 303 304 303 304 304 302 301 303 307 304 305 305 306 309 307 309 311 313 309 309 309 308 308 311 316 317 317 321 327 325 326 329 332 336 334 330 328 327 326 329 330 331 332 333
300 301 301 301 301 301 303 303 302 303 304 305 305 305 304 303 303 304 306 306 305 303 306 309 308 312 311 313 308 309 309 309 313 317 316 318 318 322 326 325 324 329 331 331 329 330 330 326 326 325 326 326 325 326
300 301 301 301 301 301 301 301 301 303 304 304 304 305 305 305 304 305 305 304 303 305 306 308 309 313 312 315 313 311 311 314 315 317 317 316 319 321 327 326 327 326 328 329 328 325 325 324 324 325 324 324 323 322
301 301 301 301 301 301 302 303 304 305 305 306 306 307 306 306 307 308 306 306 305 305 308 309 311 314 314 315 317 317 314 314 317 317 315 319 319 325 324 324 325 327 325 326 324 324 323 323 323 324 324 325 324 321
301 301 300 300 301 302 305 304 304 305 307 309 309 310 313 310 308 308 307 309 307 306 306 308 309 313 314 316 318 318 316 319 321 319 319 319 320 320 320 321 323 324 323 324 323 323 322 322 324 322 322 325 326 323
300 300 300 300 302 304 306 304 305 306 309 310 311 311 308 308 310 310 311 311 311 311 310 311 316 317 316 318 320 319 321 322 318 320 321 316 319 318 320 320 320 320 321 322 321 320 320 320 321 321 322 324 325 326
300 300 300 301 302 306 306 305 306 306 308 306 305 308 309 314 315 314 313 309 307 313 314 316 317 319 319 318 319 320 322 319 320 321 319 318 319 318 319 321 321 321 322 322 322 323 321 318 318 319 320 324 324 325
301 301 301 301 304 307 306 305 307 307 309 311 310 314 314 315 315 316 314 317 313 316 319 320 320 317 319 319 320 318 320 325 322 321 316 316 317 316 319 320 321 320 320 321 321 322 323 324 324 324 325 324 324 326
303 303 303 304 308 307 306 306 309 309 311 314 315 312 318 319 317 317 319 319 317 319 319 319 322 320 319 322 321 323 324 324 325 322 319 320 320 321 321 321 321 321 321 320 324 323 323 324 323 323 324 325 325 325
304 305 305 309 308 307 306 310 310 310 314 318 317 312 319 318 318 318 319 320 320 321 322 323 323 322 323 323 322 322 323 323 321 321 321 320 321 321 322 322 321 319 319 320 321 320 321 323 323 323 323 324 324 324
303 306 309 309 308 306 309 312 313 314 317 318 317 318 318 319 319 319 319 318 319 319 321 321 322 321 321 318 318 318 320 319 318 321 320 320 320 320 321 321 322 323 321 319 319 323 323 322 322 322 322 321 321 323
304 306 310 308 308 310 313 313 316 317 315 315 317 317 318 319 320 320 319 319 319 319 319 321 321 323 318 318 319 319 321 320 320 319 319 319 320 319 320 320 322 322 320 321 319 319 321 316 319 321 319 318 319 322
307 308 309 310 308 312 316 313 316 315 315 317 318 319 318 320 320 319 319 320 319 319 320 321 320 321 322 323 322 320 319 319 319 319 320 320 320 320 320 321 322 320 320 318 320 316 314 313 312 313 312 314 314 313
307 309 311 310 308 309 317 314 315 318 317 317 317 318 319 320 319 319 319 319 318 318 318 320 322 323 323 321 321 320 320 320 320 319 319 318 318 321 319 321 320 320 315 313 313 313 312 310 309 310 311 310 311 312
312 313 312 313 311 315 316 319 315 317 317 318 317 320 320 319 318 317 317 318 318 317 318 319 319 319 319 319 318 319 319 319 319 319 319 318 320 319 320 318 316 315 314 312 310 310 309 308 308 308 308 308 308 311
315 314 315 315 316 316 317 317 319 317 319 320 320 320 322 318 317 317 316 316 317 318 319 318 317 316 314 312 312 312 316 320 320 320 320 318 318 317 316 315 313 312 311 311 310 309 308 307 306 307 308 308 308 308
316 314 316 318 318 318 320 318 319 320 321 322 321 320 320 319 318 317 317 318 319 319 319 319 318 315 312 312 310 309 309 314 313 311 311 314 315 313 312 312 312 311 310 310 309 308 307 306 305 306 308 307 308 307
314 315 318 319 320 316 318 320 321 321 322 321 322 320 322 322 320 317 320 320 320 318 318 318 317 314 315 312 309 307 307 308 312 310 309 310 311 312 310 308 306 306 308 307 306 306 306 305 304 305 305 306 306 307
315 317 320 322 323 321 324 323 323 323 323 323 323 323 323 324 322 319 317 316 316 313 314 314 313 313 312 311 309 308 307 306 307 309 308 308 309 309 306 304 303 302 304 303 302 302 302 301 300 299 301 301 301 301
316 318 320 314 326 325 320 320 321 322 321 321 323 322 318 319 319 317 316 314 313 315 314 312 311 312 312 308 307 307 305 305 305 306 307 307 306 305 305 303 300 299 300 301 299 299 299 298 297 297 298 299 299 299
314 324 321 323 320 324 324 323 323 322 321 321 323 323 321 322 317 316 315 314 315 313 313 312 312 309 307 305 306 305 304 302 302 303 305 303 302 302 301 300 299 298 298 298 297 298 297 296 296 297 297 298 298 298
324 322 319 317 319 320 322 322 323 320 320 320 321 321 321 317 314 313 313 312 312 311 310 310 308 306 305 303 303 302 300 299 299 299 301 299 298 298 298 298 297 296 297 297 296 296 295 295 296 296 297 297 296 296
321 318 322 322 323 322 322 321 318 317 317 319 320 318 318 315 314 312 312 311 311 310 310 308 304 303 302 302 301 300 299 297 297 296 296 297 296 296 296 296 296 296 296 295 295 295 294 295 295 295 295 295 294 293
324 322 322 324 321 320 319 319 317 316 314 316 318 316 313 313 312 311 311 311 311 309 306 305 303 301 300 300 300 299 298 296 296 295 294 295 295 295 295 295 295 295 295 295 294 294 294 294 294 294 294 294 293 292
323 322 322 321 319 320 319 317 316 315 313 312 312 312 313 312 311 311 308 307 306 304 303 302 302 301 300 299 299 298 297 295 294 293 293 293 293 294 294 294 294 294 294 295 295 295 294 294 294 293 293 293 292 292
319 318 321 321 321 320 319 317 316 315 315 314 314 314 314 314 312 309 308 306 305 303 302 301 301 300 299 299 298 297 297 294 293 292 292 292 292 292 293 293 293 293 293 294 294 293 293 293 293 292 292 292 292 292
322 320 319 319 323 321 321 320 319 319 318 317 317 315 315 317 315 311 308 306 304 303 300 300 300 299 299 298 297 297 296 294 292 292 291 291 291 291 292 292 292 292 292 293 293 292 292 292 292 292 292 292 292 292
318 319 319 318 322 323 323 322 321 320 318 318 319 317 315 313 312 310 306 303 302 301 300 299 299 299 297 297 296 296 295 294 293 292 292 292 292 291 291 291 291 291 292 292 292 292 292 292 292 292 292 292 292 292

GFSWCAN_925_thetae_018.txt.gz
Theta_e
301 301 301 301 301 301 301 300 301 301 301 304 305 305 305 305 304 304 303 303 304 304 303 303 303 303 304 303 306 304 308 307 308 312 317 314 314 317 322 324 327 329 333 335 334 329 333 335 335 329 331 342 339 338
301 301 301 301 301 301 301 301 301 302 302 303 304 304 305 304 304 304 304 303 304 304 303 303 304 304 303 303 303 303 307 309 309 310 313 316 317 319 320 327 327 332 332 332 336 335 334 336 333 339 345 349 349 348
300 300 300 300 300 301 301 301 301 301 301 302 303 304 304 304 304 304 304 303 303 304 304 302 303 303 303 303 303 306 306 307 309 309 310 311 318 320 319 327 329 330 330 336 332 335 335 333 340 344 342 342 340 340
300 300 300 301 301 301 301 301 303 303 302 304 305 304 304 304 303 304 304 302 303 304 304 303 304 303 303 304 304 304 305 305 307 309 309 310 315 317 323 326 327 330 331 335 337 333 333 331 333 338 339 337 336 336
300 300 300 301 301 301 301 301 301 301 301 303 304 305 305 305 304 303 301 302 303 304 305 303 303 304 305 309 305 305 305 305 305 307 309 312 316 318 322 324 329 329 332 337 338 331 329 330 330 335 334 334 332 334
300 300 300 301 301 301 301 301 302 303 303 304 304 305 305 305 304 304 302 305 305 305 305 305 301 304 305 310 310 305 305 306 305 304 309 315 316 316 321 325 322 325 331 332 331 330 327 327 325 325 325 327 330 329
300 300 301 301 300 300 300 302 303 304 304 305 305 306 305 305 305 303 303 305 304 303 305 307 305 306 311 310 304 304 304 304 305 310 313 315 317 318 323 323 322 327 329 328 329 329 328 327 326 324 324 324 323 324
301 301 301 300 300 300 301 303 305 305 305 306 306 306 306 306 306 306 306 305 303 303 305 308 307 310 311 314 314 310 307 311 313 315 314 315 316 320 325 323 324 325 328 325 325 325 325 325 325 325 324 322 322 322
300 300 300 300 300 300 301 305 306 305 307 308 309 309 307 306 306 307 306 306 305 304 307 308 311 313 312 313 314 314 314 315 315 316 315 316 319 323 321 324 326 324 326 324 323 323 323 323 322 324 325 323 321 319
301 301 301 300 301 301 302 306 306 306 308 308 310 309 310 309 308 308 307 308 306 306 305 307 308 311 311 316 316 317 317 316 317 316 317 315 319 317 321 322 323 321 321 322 323 323 321 322 322 323 325 326 324 319
302 302 302 302 302 303 306 307 306 307 308 307 305 307 307 308 309 309 309 308 309 310 307 308 310 312 312 317 317 317 319 317 316 319 316 316 318 319 320 322 320 321 320 320 320 320 320 320 321 323 324 324 325 325
303 303 303 304 304 305 308 307 306 307 308 307 306 307 307 310 312 312 308 306 306 310 312 314 315 316 317 316 317 317 317 316 321 319 317 316 314 316 319 321 321 320 321 322 321 320 319 320 320 319 320 323 323 324
302 303 304 305 306 309 308 307 307 309 309 310 308 311 309 310 317 309 313 315 314 312 314 317 320 316 316 317 317 316 323 324 321 315 313 312 315 318 320 321 321 320 320 321 323 322 323 322 322 323 323 323 325 325
303 303 305 306 309 309 307 308 309 311 311 310 311 310 315 316 318 318 321 321 319 316 316 317 321 319 317 321 321 325 322 320 321 319 317 321 320 319 319 320 320 321 321 322 322 321 320 321 322 322 323 323 323 323
304 306 307 309 309 308 308 310 312 312 313 313 312 317 317 315 316 319 319 318 318 316 317 318 318 318 318 318 316 320 320 318 318 321 322 320 319 320 320 321 319 318 318 319 319 320 320 321 321 321 321 322 321 321
305 307 309 309 309 310 310 313 314 314 315 315 315 318 317 317 319 319 319 320 317 316 315 316 319 319 319 318 319 319 319 318 320 321 319 318 319 319 319 319 318 317 317 315 312 312 313 312 313 314 313 316 320 319
306 308 308 309 310 312 314 314 315 316 312 314 315 314 317 316 318 317 316 317 316 318 319 319 321 319 317 319 319 318 321 321 320 319 318 318 318 318 318 317 317 318 316 311 309 308 308 309 309 310 311 311 311 312
307 310 311 311 311 312 314 314 313 313 315 314 315 316 315 315 315 316 314 313 315 316 318 320 320 319 318 320 320 319 319 318 317 317 317 316 317 317 319 318 316 311 312 310 308 307 306 306 307 306 307 309 309 309
311 312 313 313 311 311 313 314 313 315 315 313 313 313 312 313 313 313 314 314 312 311 313 317 318 317 318 319 319 319 318 318 318 317 317 317 317 317 315 315 311 308 308 307 306 305 305 305 305 306 307 307 307 307
314 313 314 315 314 313 315 312 315 313 315 316 314 314 312 312 312 313 313 313 313 312 311 313 313 314 311 309 312 315 316 316 315 314 315 314 315 314 313 312 309 308 306 306 305 304 304 304 305 306 307 306 306 305
316 315 316 317 317 315 314 313 313 313 314 315 314 314 314 312 313 313 313 310 313 314 314 312 308 307 307 305 306 306 307 310 309 306 308 310 307 306 308 308 307 306 305 305 304 303 302 302 303 304 304 305 305 305
314 315 315 318 317 317 315 317 314 315 314 315 315 313 314 313 313 311 310 312 313 314 314 311 310 308 305 304 304 305 304 306 307 307 308 308 305 304 304 304 304 303 302 302 302 301 299 298 299 300 300 300 306 305
314 315 317 318 318 309 313 318 319 317 319 319 318 318 317 315 314 311 312 311 312 310 309 309 309 310 309 306 304 304 304 303 303 304 306 305 303 301 300 300 301 301 300 299 300 298 297 297 297 298 298 298 300 303
315 315 317 319 317 313 319 319 318 320 320 320 319 320 319 317 314 312 314 311 311 310 308 309 309 307 305 304 302 302 302 301 302 303 304 304 301 299 297 297 297 299 297 297 297 296 296 296 296 297 297 298 298 297
312 314 316 311 317 319 322 320 319 318 320 319 320 318 314 315 314 313 314 312 311 309 308 309 308 305 300 300 300 299 299 299 298 299 299 299 299 298 297 296 297 297 297 297 296 295 295 295 296 296 296 296 296 295
316 319 315 319 317 319 320 321 321 322 320 320 320 317 316 316 314 313 311 310 308 308 308 308 306 300 298 300 297 297 297 297 298 297 296 296 296 296 295 294 294 296 296 296 295 295 295 295 295 295 295 294 294 294
317 320 316 315 316 317 318 318 319 316 316 317 319 318 315 315 314 310 308 309 308 310 307 304 301 300 299 299 298 296 295 295 295 295 295 295 295 295 295 295 294 296 295 295 295 294 294 295 295 294 293 293 293 293
317 316 319 320 320 320 320 316 316 315 314 313 315 315 314 313 310 308 308 311 311 310 306 301 300 300 299 299 297 296 295 295 294 294 294 294 294 294 294 294 294 294 294 295 294 294 294 294 294 293 293 292 292 292
320 317 318 321 319 320 318 316 314 312 310 312 314 312 311 310 310 310 311 307 303 302 302 301 300 299 298 297 296 295 294 294 292 291 290 290 291 293 293 293 293 293 294 294 294 293 293 293 293 292 292 292 292 292
322 318 321 321 319 319 316 313 313 311 310 309 309 309 309 310 311 311 308 305 302 301 300 300 299 299 298 296 294 293 293 293 292 291 289 289 291 292 292 292 292 292 293 293 293 293 292 292 292 292 292 292 291 291
320 320 321 320 320 317 315 314 313 313 311 310 310 310 310 310 312 309 305 301 300 300 299 299 299 298 297 297 296 293 292 292 292 292 291 291 291 292 292 291 292 292 292 292 292 292 292 292 292 292 292 292 291 291
319 317 318 322 320 318 315 315 315 316 314 314 313 312 312 313 312 310 305 302 300 299 299 299 298 297 296 296 296 296 295 293 292 292 292 292 292 291 291 291 291 291 292 292 292 292 292 292 292 291 292 292 292 292
317 318 319 321 320 321 320 320 320 318 316 316 316 315 314 311 310 306 302 302 300 299 299 298 297 296 296 295 295 295 294 294 293 293 293 292 292 292 291 291 291 291 291 291 292 292 292 291 291 291 292 292 292 292

GFSWCAN_925_thetae_021.txt.gz
Theta_e
300 300 300 300 300 300 301 301 301 301 301 302 304 304 305 305 304 304 303 303 303 304 302 302 301 303 303 303 305 301 304 305 305 308 310 311 312 312 314 317 320 323 325 323 320 325 326 336 340 344 339 340 338 336
300 300 300 300 301 301 301 301 301 302 303 302 303 305 305 305 304 303 304 303 303 303 303 303 303 303 302 302 303 303 304 304 308 308 309 309 315 313 313 318 317 321 325 326 327 326 336 334 335 338 340 340 341 344
300 300 300 300 300 301 301 301 301 301 301 302 304 305 305 305 304 304 304 304 304 303 302 302 302 303 302 302 302 304 306 306 306 307 308 309 310 314 318 317 317 322 326 326 332 334 337 336 334 336 336 337 337 338
300 300 300 300 300 301 301 300 300 301 302 303 304 305 305 305 305 305 305 304 303 302 305 303 303 301 303 303 302 302 303 304 306 308 309 309 311 311 311 317 321 322 325 328 333 333 337 336 331 331 332 332 334 333
300 300 300 300 301 300 300 300 300 302 303 304 305 306 306 305 305 305 305 304 304 302 305 303 303 304 304 303 302 302 302 303 306 308 309 310 311 310 311 316 322 324 325 329 335 331 332 331 328 326 330 330 329 331
300 300 300 300 300 300 300 300 301 302 305 305 306 306 306 306 306 305 300 304 304 302 305 307 300 302 304 304 306 305 302 302 305 305 306 308 310 313 310 318 323 321 322 327 331 327 326 326 325 326 327 327 328 329
300 300 300 300 300 300 301 301 302 305 306 306 307 307 307 306 306 303 303 304 305 304 304 305 306 305 308 309 302 302 303 302 303 305 307 311 314 315 314 321 322 319 322 328 326 326 327 327 326 323 324 326 326 328
301 301 301 301 301 301 302 303 305 307 306 307 308 309 308 307 306 306 306 305 305 304 304 307 307 308 310 312 310 308 304 304 308 310 313 315 314 316 319 321 320 326 327 326 325 325 325 324 325 325 322 322 323 326
303 303 303 302 302 303 303 304 307 306 307 309 308 309 307 307 306 306 306 306 305 303 306 307 309 312 309 311 312 311 311 313 312 314 315 314 313 317 319 321 323 325 326 325 324 323 323 324 324 324 322 320 321 322
302 302 303 303 304 304 305 307 307 307 309 309 308 308 308 308 308 307 308 308 306 305 305 305 306 310 309 314 313 312 313 313 312 312 314 313 315 317 322 322 322 322 323 323 324 324 324 324 323 323 324 323 322 320
302 303 303 303 304 305 306 308 307 308 309 308 303 305 307 309 309 310 309 305 307 306 304 305 306 309 311 314 316 315 316 313 315 319 316 315 315 317 318 321 321 320 320 320 320 320 320 321 322 322 323 323 322 323
303 304 304 304 305 306 309 308 308 307 308 307 306 307 307 308 311 309 310 307 304 309 308 311 313 314 315 314 316 315 315 315 318 317 316 315 314 317 321 322 322 321 321 322 320 320 321 323 322 323 323 324 324 324
305 304 305 306 306 309 308 309 309 311 310 309 307 309 310 311 319 310 313 317 319 312 312 313 318 316 316 315 315 316 322 323 318 314 312 312 313 320 320 321 322 321 321 323 323 323 323 320 321 323 323 323 322 322
305 306 307 307 309 308 309 310 312 312 313 309 310 314 316 317 319 319 321 320 318 317 318 315 320 319 317 319 320 322 319 317 319 318 317 320 321 320 320 319 319 319 320 321 321 321 321 321 320 320 321 321 320 319
307 308 308 309 310 311 311 313 313 314 314 312 314 315 317 317 317 316 316 316 316 315 317 318 317 316 315 317 317 318 319 317 317 321 322 320 319 319 318 317 314 311 310 310 310 311 311 312 313 314 315 314 313 313
307 308 309 311 312 312 313 313 314 315 311 314 314 316 316 316 316 314 314 315 315 316 314 314 316 317 319 318 318 318 318 319 320 320 318 318 318 317 316 316 311 308 307 306 307 307 307 308 309 309 309 309 311 312
309 310 312 313 313 313 313 314 314 312 314 316 317 312 313 314 314 313 312 312 312 316 318 317 318 320 317 319 320 320 321 320 318 318 316 317 316 316 316 314 312 307 306 306 305 305 306 306 307 306 307 307 309 310
310 312 313 313 314 314 315 314 312 314 317 313 313 312 310 311 312 312 311 310 309 310 315 318 316 317 320 321 321 319 318 317 316 316 315 315 314 311 311 308 306 305 304 303 303 303 303 304 304 303 305 308 308 308
312 313 314 315 314 313 314 313 313 316 315 312 311 309 310 310 310 311 311 310 309 306 306 308 311 312 313 313 314 314 313 314 316 315 309 307 310 309 307 305 303 302 302 301 302 302 302 303 303 304 305 306 305 305
314 314 315 316 315 313 312 310 313 312 314 312 311 311 310 309 308 310 310 310 308 308 307 308 311 310 311 308 306 307 307 308 309 309 305 303 305 304 303 303 302 302 301 299 299 299 300 300 301 303 303 303 302 302
315 315 316 317 317 315 311 310 311 311 311 314 312 311 311 308 309 309 310 307 309 310 310 309 308 305 303 302 302 302 302 302 301 303 306 303 302 303 301 300 300 299 299 297 296 296 296 296 297 299 303 303 301 299
313 315 316 317 316 314 312 313 312 312 313 314 313 311 311 312 310 310 306 308 308 311 310 307 305 304 301 300 300 300 301 303 303 302 300 300 299 299 299 300 298 298 298 297 296 295 295 296 297 298 299 301 298 297
314 315 317 317 316 309 314 315 316 317 320 318 315 316 315 313 310 306 309 310 309 307 306 306 306 303 300 300 300 299 300 300 300 300 299 297 296 296 296 297 297 297 296 295 295 295 295 296 296 297 298 298 297 296
315 314 315 315 315 314 315 317 314 316 317 315 315 318 317 317 311 309 311 310 307 307 305 304 302 299 298 298 295 296 297 298 297 297 298 297 295 295 296 296 296 296 295 295 295 295 295 295 296 296 295 294 294 293
310 313 312 308 313 316 319 317 317 316 318 316 318 316 313 312 311 310 311 308 306 306 305 304 299 297 296 295 294 295 296 297 295 293 295 296 295 295 295 295 295 295 295 294 294 294 294 294 294 294 295 294 293 292
314 317 313 317 315 317 317 318 318 318 316 318 318 313 313 311 312 311 308 307 307 306 308 305 298 296 294 295 292 293 294 295 294 293 294 294 294 294 292 291 292 294 294 294 294 294 294 294 293 293 293 293 293 292
313 317 314 311 313 314 315 314 313 312 314 316 316 314 312 313 311 307 305 305 308 307 302 300 300 297 295 295 294 294 294 294 294 293 293 293 293 293 293 292 292 293 294 294 294 294 294 293 292 292 292 292 292 291
315 314 317 316 316 315 318 313 313 313 312 310 311 313 312 310 307 305 305 309 307 304 300 299 299 298 296 295 295 294 294 294 294 293 293 293 292 292 292 293 293 293 293 293 293 293 293 293 292 292 291 291 291 291
317 313 315 318 318 317 316 313 312 309 307 309 311 311 309 307 307 308 309 304 300 300 298 297 297 296 295 295 294 293 293 292 291 289 289 288 289 291 292 292 292 292 293 292 293 292 292 292 292 292 291 291 291 291
320 314 317 320 318 317 314 309 310 307 306 307 306 306 307 307 310 310 309 301 300 300 299 298 296 296 294 294 293 292 292 292 291 291 288 289 290 291 291 291 291 291 292 292 292 292 292 292 292 291 291 291 291 292
316 316 318 316 316 315 314 312 311 310 309 308 307 308 308 307 310 306 301 300 299 299 298 297 296 296 295 294 293 291 291 292 292 292 291 291 291 291 291 291 291 291 292 292 291 291 291 291 291 291 291 291 291 292
314 316 317 318 317 313 311 311 311 313 311 310 310 309 309 310 310 307 300 299 299 298 298 297 296 296 296 296 295 294 294 293 293 292 292 292 291 291 291 291 291 291 291 292 291 291 291 291 291 291 291 291 292 292
313 314 315 317 317 316 314 315 315 317 312 312 312 311 311 310 310 303 301 300 300 299 298 298 297 296 295 295 295 295 294 293 293 293 293 292 292 291 291 291 291 291 290 291 291 291 291 291 291 291 291 291 291 291

GFSWCAN_925_thetae_024.txt.gz
Theta_e
300 300 300 300 300 300 300 301 301 300 300 301 304 305 305 305 305 304 303 303 303 303 302 301 302 303 302 302 303 303 303 304 307 309 308 309 307 308 309 308 313 311 314 315 314 319 320 332 338 348 339 339 339 341
300 300 300 300 300 300 300 300 300 300 300 301 304 305 305 305 305 305 304 303 303 303 303 303 302 302 302 301 302 303 304 304 302 306 305 306 308 309 311 312 311 313 316 318 314 316 319 333 336 334 336 336 337 337
300 300 300 300 300 300 300 300 300 300 301 302 304 306 306 306 305 306 305 304 302 303 300 300 301 302 302 302 301 303 304 304 306 306 307 308 310 309 311 316 314 313 313 317 319 322 322 334 333 332 332 333 335 335
300 300 300 300 300 300 300 300 300 301 302 303 305 306 306 306 306 306 306 305 303 302 302 300 302 301 303 303 302 302 302 303 305 306 307 307 311 309 312 312 312 311 310 316 319 319 331 333 328 328 330 331 332 332
300 300 300 300 300 300 301 301 301 302 304 306 306 306 306 307 307 306 306 306 305 301 302 303 303 303 302 302 301 301 301 302 304 307 309 310 309 310 310 309 310 310 312 317 323 320 329 330 326 327 329 329 331 332
301 301 301 302 302 302 302 302 303 304 306 307 306 307 307 307 307 306 302 302 303 303 303 307 302 302 303 302 301 301 301 302 303 306 307 308 309 308 309 313 312 319 319 320 322 322 325 326 326 325 328 329 330 331
303 303 303 302 302 302 303 303 304 306 308 307 307 308 308 307 307 304 305 304 304 303 304 305 307 304 305 308 301 303 302 303 304 306 307 307 309 309 310 311 311 314 317 319 318 325 327 326 327 325 324 326 328 329
302 302 302 302 302 302 303 304 305 308 307 308 307 308 309 307 307 306 305 304 304 304 303 305 307 307 308 308 309 302 303 303 304 307 310 312 312 313 310 310 310 313 315 318 325 326 326 325 323 323 322 323 325 326
302 302 303 304 303 303 304 305 307 308 308 308 308 308 308 307 307 306 306 306 304 302 304 305 308 311 308 311 310 309 309 312 311 313 313 311 308 310 312 314 322 323 322 326 324 325 325 324 324 324 324 323 324 325
303 304 305 305 304 304 306 307 308 309 308 309 307 306 307 307 308 307 306 306 304 304 304 305 305 308 308 312 314 312 312 313 313 310 312 308 309 310 318 322 322 322 323 324 325 325 324 324 324 324 323 323 323 323
306 305 305 305 306 307 307 308 309 308 308 309 303 304 307 308 309 309 308 305 304 305 301 303 304 307 309 312 315 311 314 312 313 317 315 313 315 318 320 322 322 322 321 321 322 322 322 322 323 323 323 323 323 325
306 305 306 307 307 308 309 310 310 308 308 307 306 306 307 308 311 310 311 306 304 309 308 309 311 308 312 311 315 315 314 314 317 315 314 314 319 320 320 321 321 322 323 324 323 323 322 323 324 324 324 324 323 324
305 306 307 307 309 310 311 311 312 311 309 308 306 308 312 314 317 318 316 320 321 314 312 312 316 316 316 315 315 317 320 319 316 313 311 317 320 318 315 315 314 314 316 319 319 319 320 321 320 320 321 321 323 324
307 308 308 310 311 312 312 313 313 313 313 308 311 315 317 316 317 318 317 318 317 316 315 315 318 316 314 315 318 321 318 315 318 316 318 318 316 314 312 311 311 312 311 312 313 313 313 313 312 313 313 315 320 319
308 308 311 311 312 312 313 313 313 314 313 311 312 315 317 315 315 314 313 313 313 314 314 315 314 314 316 318 317 316 318 316 315 319 317 315 314 312 310 309 308 309 308 309 309 309 309 311 310 310 311 311 310 309
311 311 312 313 313 313 313 313 313 313 312 313 312 314 313 313 312 311 310 310 309 315 313 313 316 317 319 318 318 318 316 319 321 319 317 316 315 314 311 307 305 305 305 305 306 306 307 307 308 309 309 308 307 306
312 312 313 314 313 314 313 313 313 312 313 314 313 309 309 310 310 310 308 307 306 313 316 317 319 319 317 318 320 319 321 319 316 313 313 313 310 308 305 304 303 303 302 303 303 304 304 306 306 306 307 306 305 305
311 313 314 315 314 314 314 313 312 313 315 311 311 310 308 308 309 310 309 308 304 304 311 313 311 313 315 315 314 312 313 313 312 307 307 308 305 303 302 301 300 300 300 300 301 302 302 303 303 304 304 304 304 303
312 314 314 316 314 314 312 312 312 314 313 310 309 307 307 307 307 307 307 308 307 303 304 306 308 310 310 309 310 307 308 308 308 306 303 303 302 302 300 299 298 297 297 297 298 299 300 300 301 302 302 302 301 301
314 314 315 316 315 313 311 310 311 311 313 311 308 309 307 307 305 307 307 307 306 305 305 305 307 307 307 305 304 303 303 303 306 304 303 302 301 299 298 298 297 296 296 296 296 296 297 299 300 300 299 298 298 297
314 314 316 317 316 314 309 309 310 309 309 310 309 308 309 307 308 307 307 304 306 306 307 306 305 301 300 300 299 299 300 299 298 299 299 300 299 299 298 298 297 297 296 296 295 294 294 294 297 299 298 296 295 295
313 315 316 317 315 312 311 311 311 310 312 312 315 312 310 310 308 307 304 306 307 306 305 303 301 300 298 297 297 298 300 299 298 296 296 296 296 296 296 296 295 295 294 294 293 293 294 295 298 298 296 294 294 293
314 315 316 316 315 308 311 313 314 314 315 314 310 313 312 310 308 304 307 306 305 305 304 302 301 298 297 297 298 298 297 297 296 295 295 294 294 295 295 295 295 294 293 293 294 294 294 296 296 294 293 293 293 292
315 314 314 314 313 312 313 314 312 314 313 312 313 316 315 313 306 306 309 306 305 304 302 300 299 295 295 296 293 293 295 295 295 294 294 294 293 293 294 294 294 293 293 293 294 294 295 294 294 293 293 292 292 291
310 313 310 306 311 314 316 316 314 314 316 314 316 314 312 307 309 309 309 306 305 305 303 299 297 295 294 293 292 293 294 294 293 291 292 293 293 294 294 294 293 294 293 293 293 293 293 294 294 293 292 292 291 291
312 316 312 315 313 314 314 316 315 317 315 317 315 311 309 309 310 309 306 305 305 305 304 303 296 294 293 292 291 292 293 293 293 292 292 292 292 292 291 291 291 293 293 293 293 293 293 292 292 292 292 292 291 291
313 315 312 309 311 312 312 311 310 310 314 316 314 312 310 310 308 305 303 303 304 308 303 301 299 296 294 293 293 293 293 293 293 292 292 292 292 292 291 291 291 292 293 293 293 293 292 292 291 291 291 291 291 290
314 312 316 314 315 313 316 311 311 311 310 308 309 312 311 308 305 303 303 307 305 306 299 299 298 297 295 294 294 294 294 293 292 291 291 292 291 291 291 291 292 292 293 293 293 293 292 292 291 291 291 290 290 290
315 312 313 316 316 315 316 312 310 307 305 308 310 308 308 305 305 306 308 305 301 299 298 297 296 295 295 294 293 293 293 292 291 289 289 289 289 291 291 291 291 292 292 292 292 292 292 291 291 291 290 291 291 292
319 312 315 317 317 316 313 309 308 305 305 306 305 306 306 306 308 309 309 301 299 298 298 297 296 295 294 293 292 292 292 292 291 290 289 289 290 290 290 291 291 291 292 291 291 291 291 291 291 291 291 291 292 292
313 314 316 316 316 313 312 310 310 311 309 308 306 307 307 307 308 307 305 302 299 299 297 296 295 295 294 293 292 291 291 292 292 291 291 291 291 291 291 291 291 291 291 291 291 291 291 291 291 291 291 291 291 291
314 316 317 317 315 312 310 311 311 312 312 310 310 309 309 309 310 306 300 299 298 297 298 297 296 296 296 295 295 294 293 293 292 292 292 291 291 291 290 290 290 291 291 291 291 291 291 291 291 291 291 291 291 291
312 312 313 316 315 314 312 313 312 313 311 310 310 310 312 311 311 307 301 299 299 299 299 298 297 297 296 295 295 294 294 293 293 292 292 292 292 292 291 291 291 291 291 291 291 291 291 291 291 291 290 290 290 291

GFSWCAN_925_thetae_027.txt.gz
Theta_e
300 300 300 300 300 300 300 300 300 300 300 300 302 305 306 306 305 306 304 303 303 304 303 302 302 303 303 303 304 303 304 305 307 309 308 308 310 308 311 308 309 313 314 313 313 312 312 315 323 323 334 341 342 344
300 300 300 300 300 300 300 300 300 301 301 301 304 306 307 306 306 306 306 304 303 303 304 303 302 302 302 302 303 303 304 306 307 308 307 308 311 310 311 312 311 313 312 315 315 313 315 318 324 333 339 342 342 342
299 299 300 300 300 300 301 302 302 302 302 303 305 307 307 307 307 307 307 305 302 303 303 302 302 302 302 302 302 303 304 303 304 305 306 308 309 310 312 313 313 313 314 315 313 312 315 315 319 320 334 339 339 338
299 300 301 302 302 302 302 302 302 302 303 303 306 307 307 307 307 307 307 306 304 303 305 304 301 303 302 302 302 302 302 304 304 306 305 307 311 310 311 311 313 312 313 314 315 315 316 318 319 319 325 336 336 336
303 303 303 302 302 302 302 303 303 303 304 305 307 306 307 308 308 307 307 306 306 304 305 304 304 304 302 302 302 302 302 303 304 307 308 309 309 309 310 310 311 311 311 314 314 314 317 322 318 323 331 336 336 336
303 302 302 302 302 302 303 304 304 303 305 307 308 307 308 308 308 306 306 302 303 303 304 307 305 305 304 302 303 303 303 303 304 305 306 306 307 309 311 314 310 312 311 313 313 313 316 320 322 328 332 334 334 336
302 302 302 302 302 303 305 305 304 305 307 307 307 307 308 308 307 305 306 304 304 303 303 306 306 306 305 308 305 304 302 303 304 305 306 306 308 308 308 311 310 310 311 311 314 316 317 320 324 328 329 332 330 334
302 302 303 305 305 305 305 305 306 307 308 308 307 308 309 308 307 307 306 305 304 303 303 306 307 308 308 311 313 306 305 304 305 306 307 308 308 308 309 310 310 311 311 311 312 314 320 323 327 326 327 330 333 333
303 305 306 306 305 306 306 306 307 308 308 307 307 307 307 307 308 307 307 304 303 303 305 305 309 312 308 310 312 311 306 310 308 306 309 309 306 309 310 312 314 322 315 314 314 316 319 325 326 327 329 330 331 331
307 307 306 306 307 306 307 308 308 308 308 307 307 307 310 307 308 306 306 305 305 305 304 304 304 308 306 311 314 312 312 311 312 310 310 306 307 312 317 321 323 322 318 321 324 323 325 326 327 328 329 330 330 330
307 306 307 307 307 309 310 310 309 308 309 308 308 309 307 307 308 309 307 306 304 305 302 303 304 307 307 311 314 312 313 310 313 315 314 311 314 316 315 316 315 322 324 324 323 324 324 326 327 327 326 326 328 330
306 307 307 308 310 311 312 310 311 309 308 307 307 307 307 310 312 314 314 307 306 312 309 309 311 308 310 310 314 316 315 315 318 315 313 313 315 313 314 316 315 314 316 315 314 318 321 323 324 325 325 326 327 326
307 308 309 311 312 313 312 312 312 311 309 308 308 314 314 314 315 315 315 315 319 319 316 316 318 318 318 317 317 319 320 319 317 315 312 314 313 312 312 313 312 311 312 314 315 313 314 316 315 317 320 319 319 319
309 309 312 312 313 313 313 313 313 313 311 313 315 314 313 314 314 314 314 315 315 317 317 318 320 318 317 318 319 319 318 316 319 316 314 315 315 313 310 310 311 310 311 312 312 312 312 311 311 310 310 311 311 312
311 312 313 314 313 313 313 313 314 313 314 315 314 315 316 314 315 314 313 311 311 313 317 318 319 317 319 319 317 315 319 317 315 315 316 317 314 310 308 307 307 309 309 309 310 310 311 310 308 307 307 308 309 309
312 313 314 315 313 313 313 313 314 314 314 317 315 315 314 312 312 311 311 311 309 313 317 317 318 319 319 318 319 318 317 318 318 316 316 314 310 307 306 306 306 306 307 307 307 308 308 309 308 308 307 307 307 307
313 313 314 315 313 313 313 314 314 315 315 315 314 313 312 312 311 310 310 310 309 314 317 317 315 318 315 315 313 310 313 314 311 310 310 307 307 306 305 303 303 303 304 305 305 306 307 307 306 307 308 306 306 305
312 313 315 316 313 313 313 313 315 316 315 314 314 312 312 311 311 310 310 310 309 311 312 313 311 311 313 313 314 311 311 311 310 307 305 305 305 303 302 303 302 302 302 303 304 304 304 306 306 305 304 304 304 304
312 314 315 316 314 313 314 314 314 316 316 314 314 312 312 312 311 310 310 309 308 307 310 309 308 309 309 310 309 309 308 310 310 306 304 302 301 302 301 301 300 300 300 300 302 303 303 303 303 303 302 302 302 301
313 314 315 317 315 313 315 316 312 316 316 315 314 314 313 312 311 310 310 309 308 307 307 306 306 307 307 306 306 306 305 305 308 306 304 303 301 300 300 300 299 299 299 299 299 298 302 303 301 300 299 299 300 298
313 314 316 317 316 314 314 314 316 315 315 316 314 313 316 314 313 311 310 310 308 309 307 308 305 304 303 302 301 302 302 302 303 303 303 303 300 300 299 298 298 297 297 297 298 298 298 300 300 298 298 297 297 296
313 315 316 317 316 314 317 313 317 315 317 318 318 316 316 316 314 313 311 310 311 311 310 308 306 304 303 303 301 299 300 300 299 299 298 298 300 300 299 298 297 297 296 297 297 297 298 299 298 297 296 296 295 294
314 314 316 316 318 314 316 314 320 318 319 319 317 317 317 317 314 309 313 313 312 309 307 305 303 300 300 299 300 299 298 299 299 298 298 297 297 297 297 296 295 296 296 296 297 298 298 296 296 296 295 295 295 295
315 315 318 317 316 315 317 319 318 319 317 318 318 318 319 319 313 313 313 312 312 309 307 305 302 302 300 301 300 298 296 296 297 297 295 296 297 297 296 296 296 295 294 295 296 296 296 296 295 295 295 294 294 294
314 315 315 310 315 319 319 319 318 319 320 318 319 319 318 315 315 314 312 311 312 312 309 304 301 300 300 299 298 297 295 295 296 296 294 294 295 296 296 296 295 295 294 295 295 295 295 295 295 294 294 294 293 293
315 318 316 317 318 319 319 319 319 320 318 320 319 317 314 315 310 310 311 311 311 310 310 307 305 302 300 297 297 297 295 293 294 295 294 293 293 294 295 295 295 295 294 294 294 295 294 294 294 294 294 293 291 292
316 319 318 314 317 318 318 316 315 315 317 318 319 317 314 311 309 309 310 309 310 309 306 301 302 301 300 296 295 294 293 292 293 293 292 292 292 292 292 293 294 293 292 293 294 294 294 294 293 293 293 292 292 292
319 319 321 320 321 318 321 316 315 313 313 314 315 315 312 311 309 309 310 309 307 304 301 298 298 297 296 295 294 294 294 293 291 291 291 292 292 292 291 292 292 291 292 293 293 294 293 293 292 292 292 292 292 292
320 318 318 320 320 320 321 319 314 312 312 315 316 312 312 311 309 308 308 307 303 300 299 298 296 295 294 294 293 293 293 293 294 294 293 293 293 292 291 291 292 292 292 292 292 292 292 292 292 292 292 292 292 293
323 317 320 320 321 320 319 317 315 311 310 313 311 311 311 311 309 308 308 304 300 301 300 298 297 296 297 296 296 294 293 292 292 293 294 293 292 291 291 291 292 292 292 292 292 292 291 292 292 292 292 292 293 293
319 319 321 321 322 320 318 314 312 312 312 313 311 312 314 312 310 308 307 306 301 299 299 298 297 297 297 296 296 296 295 293 292 292 292 292 291 291 291 291 291 292 292 292 292 292 292 292 292 292 292 292 292 292
320 322 322 322 321 317 314 315 315 316 316 314 314 313 313 314 315 313 302 299 298 299 299 299 299 298 296 296 295 294 294 294 293 293 292 292 292 291 291 291 291 292 292 292 292 292 292 292 292 292 292 292 292 292
318 317 319 319 320 319 317 317 317 318 316 315 314 314 314 315 316 312 303 298 299 300 300 298 297 296 296 295 295 294 294 294 293 292 292 292 292 291 292 291 291 291 292 292 292 292 292 292 292 292 292 291 292 292

GFSWCAN_925_thetae_030.txt.gz
Theta_e
300 300 300 300 299 300 300 301 302 302 302 302 305 306 306 307 307 307 306 306 303 304 305 305 305 305 305 304 305 304 305 307 306 309 308 308 308 308 308 308 309 313 312 312 312 314 314 314 316 320 330 333 335 337
299 299 299 300 302 303 303 302 302 302 302 303 307 306 306 307 307 308 308 306 305 304 305 305 305 305 304 304 304 304 305 305 307 310 310 310 312 312 312 312 310 311 311 313 312 313 314 316 315 319 322 323 327 335
300 301 303 303 303 302 302 302 302 303 303 304 307 306 307 307 308 308 308 306 302 304 304 305 308 306 305 305 304 305 305 304 304 306 309 310 311 309 312 311 311 311 312 314 313 312 315 316 316 317 317 319 322 324
303 303 303 302 302 302 302 303 303 304 304 306 307 307 307 308 308 308 308 306 304 304 306 308 305 305 305 305 304 305 305 305 304 307 308 309 310 310 313 312 312 313 313 314 316 316 315 313 313 314 317 317 318 320
303 302 302 301 302 303 304 304 304 305 306 307 307 307 307 307 308 308 308 307 306 305 308 307 305 307 305 305 305 305 305 305 306 307 308 309 308 309 310 310 313 312 314 315 315 314 315 315 315 315 315 319 320 325
302 301 301 302 304 305 305 305 306 306 307 307 307 307 307 307 308 308 309 304 306 304 305 308 307 307 307 306 305 305 305 305 305 305 306 306 306 308 311 314 312 312 312 312 315 314 314 315 316 316 320 322 324 327
301 302 303 306 307 306 306 306 306 307 307 307 307 308 309 307 308 308 309 306 304 304 305 307 309 309 307 307 306 305 304 305 305 304 304 305 306 307 308 310 309 310 311 312 313 314 314 315 314 318 319 323 326 331
302 305 307 307 306 306 307 307 309 308 307 307 307 309 308 307 307 308 307 305 303 304 304 308 309 310 309 311 312 308 306 304 303 303 304 305 304 305 308 308 309 309 309 309 310 311 312 312 317 319 323 325 331 334
307 307 306 306 307 307 309 310 309 308 307 307 307 307 309 309 309 308 306 304 303 303 306 305 310 312 308 310 311 309 306 307 306 305 304 305 307 309 305 313 318 322 322 311 310 310 312 315 316 319 326 329 331 333
307 306 307 307 308 310 310 309 309 308 307 307 308 312 315 310 307 306 306 306 306 306 304 305 303 307 306 310 313 313 311 310 312 310 311 306 307 310 311 315 317 318 317 316 317 318 317 317 320 325 325 328 331 332
306 307 308 310 311 311 311 311 312 310 310 312 315 315 310 308 308 310 309 308 306 308 305 305 306 309 308 311 314 313 313 311 320 319 317 315 313 313 311 313 314 315 316 317 322 322 321 320 326 327 326 330 328 329
308 309 310 312 312 312 312 312 313 313 312 311 311 308 310 315 317 317 316 313 312 316 316 312 315 310 311 310 315 318 320 319 322 319 316 314 314 313 311 311 313 314 316 315 314 316 315 316 317 317 319 320 322 321
310 311 312 313 313 313 313 313 313 312 310 310 314 316 316 315 315 315 315 317 318 319 319 319 322 321 320 319 322 322 321 321 319 318 313 316 316 313 312 312 312 312 315 315 313 312 312 312 312 314 315 315 316 317
310 312 313 314 313 313 313 314 313 313 316 317 317 318 317 316 314 315 317 317 316 317 318 321 321 321 319 320 319 321 320 319 320 317 316 316 313 312 312 312 313 313 314 314 313 312 312 312 312 311 312 312 312 316
311 312 313 314 313 313 313 313 313 317 315 317 316 319 317 315 316 314 314 316 316 316 321 321 321 319 319 320 319 318 320 321 318 318 317 315 313 312 310 310 312 311 312 313 312 313 312 312 312 312 312 312 311 311
313 314 314 315 312 313 313 313 315 315 315 315 314 316 315 315 314 314 314 315 315 318 320 319 320 320 318 317 316 315 318 316 317 315 312 311 312 311 311 310 310 310 311 311 311 310 310 311 311 310 309 308 308 309
313 315 315 316 313 313 313 316 315 315 315 315 315 314 313 314 314 313 312 313 314 316 318 317 315 316 314 315 316 312 313 311 311 311 309 309 309 310 309 309 309 309 309 310 310 310 310 309 309 310 311 309 307 306
313 313 315 316 314 315 317 316 315 315 315 315 316 315 312 312 312 312 311 311 313 314 314 313 311 312 312 311 313 313 313 313 313 309 307 308 308 308 308 308 306 305 306 306 308 308 308 308 308 308 308 308 307 306
312 313 316 317 313 317 318 317 316 316 315 315 316 315 314 312 311 310 311 310 309 310 311 310 310 309 309 308 309 310 310 310 312 309 306 305 306 306 306 304 304 303 303 303 302 305 306 306 305 305 306 305 304 304
312 314 315 317 315 318 319 319 317 316 317 317 316 317 316 314 311 311 310 310 309 310 309 309 309 308 307 306 306 306 307 308 308 308 307 305 304 304 304 303 303 302 301 301 301 299 303 304 303 302 302 302 302 301
314 315 316 318 320 319 319 320 320 319 317 318 319 319 317 316 313 312 311 310 310 310 309 309 308 307 306 306 304 303 303 303 305 305 305 305 304 303 303 302 301 300 300 300 301 301 302 302 302 301 301 301 300 299
316 314 319 320 320 320 322 319 321 320 320 320 319 319 317 316 314 311 312 312 311 310 309 308 307 306 305 305 304 303 303 302 302 301 300 301 303 302 301 300 299 300 299 299 300 301 301 300 300 300 300 300 299 297
316 317 320 320 322 319 321 320 324 322 322 321 320 319 319 319 316 313 311 311 311 309 308 307 306 305 304 303 303 302 301 300 301 300 300 300 300 300 300 299 298 298 299 299 299 300 299 298 298 298 298 298 297 297
315 320 322 322 321 320 322 323 322 323 322 321 321 320 320 319 316 313 310 310 310 310 309 309 307 306 304 304 303 301 300 299 299 299 298 298 299 299 299 298 298 298 297 298 298 298 297 297 296 297 296 297 296 296
320 319 321 316 320 322 321 321 321 320 321 322 322 320 321 318 316 313 310 309 309 309 309 308 306 305 304 303 302 301 299 298 299 299 298 297 297 298 298 298 298 297 297 297 297 297 297 297 297 296 296 295 295 295
320 321 322 320 321 321 319 317 317 318 319 320 321 320 319 316 312 310 309 309 309 308 309 307 306 306 304 302 301 300 299 298 297 298 297 296 296 296 297 297 297 297 295 296 296 297 297 296 296 296 295 295 293 294
321 322 322 320 322 322 321 318 318 316 317 317 317 319 316 312 310 310 311 310 309 308 308 305 305 304 303 301 299 298 298 297 296 296 295 295 295 294 294 295 295 295 295 296 296 296 296 296 295 295 295 295 295 294
322 323 323 324 324 322 323 321 316 314 314 316 316 316 314 312 313 312 311 310 310 310 306 303 302 302 301 300 299 298 298 297 296 295 295 295 295 294 294 294 294 292 293 294 294 295 295 295 295 295 294 294 295 295
325 323 322 324 323 323 323 322 319 316 315 316 317 317 315 314 313 311 311 310 308 307 305 303 301 300 300 299 298 297 297 297 297 298 297 297 296 295 294 294 294 294 294 294 293 292 293 293 293 293 294 294 294 294
325 323 324 323 323 323 322 321 321 318 316 316 316 315 314 314 314 313 311 308 308 307 307 304 302 301 302 301 300 298 297 296 296 296 297 297 295 295 294 294 294 294 294 294 294 294 292 293 293 294 294 294 294 294
324 324 325 324 323 323 322 321 318 317 317 316 316 316 317 317 315 313 312 311 309 307 304 303 302 302 301 300 299 298 298 297 296 295 295 295 295 295 294 294 294 294 294 294 294 294 294 293 293 293 293 293 293 293
324 325 325 324 322 323 320 321 320 320 320 319 319 318 317 317 319 317 307 305 306 305 302 303 303 302 300 298 298 297 295 296 296 296 295 295 295 294 294 294 293 294 294 293 293 293 293 293 293 293 293 293 293 293
322 322 322 322 322 323 322 321 322 322 321 320 320 319 318 318 319 314 304 302 303 304 304 303 301 300 299 298 297 297 296 296 295 294 293 292 292 292 293 294 293 293 293 293 293 293 293 293 293 292 292 292 292 292

GFSWCAN_925_thetae_033.txt.gz
Theta_e
299 299 299 301 303 303 303 302 302 302 303 304 307 307 307 307 307 308 309 306 305 305 305 306 307 308 308 308 309 307 308 308 307 311 311 311 310 310 309 311 313 317 315 316 318 320 323 321 321 327 331 333 333 336
300 301 302 304 303 302 302 302 302 303 304 306 307 306 307 307 307 308 309 308 306 305 306 307 307 307 307 307 307 307 307 308 309 311 313 312 312 311 312 314 311 312 314 316 316 317 319 319 320 320 320 323 324 326
303 304 303 302 302 302 302 302 304 305 306 307 307 307 307 308 308 308 309 307 304 304 305 305 309 308 308 307 306 307 307 306 306 307 309 311 313 312 312 311 312 313 314 313 314 315 316 316 317 317 318 319 320 321
304 303 302 302 302 302 304 305 306 307 307 307 307 307 308 308 308 308 308 307 304 305 307 309 308 307 306 307 306 306 306 306 306 306 310 311 311 311 314 312 314 314 314 314 315 314 316 316 316 316 317 318 318 318
302 302 301 301 303 306 306 306 306 307 307 306 307 308 308 308 308 310 308 308 306 307 310 310 307 308 308 307 307 307 306 308 309 308 309 309 309 309 310 312 313 313 313 315 316 316 316 317 317 317 317 316 316 318
301 301 301 305 306 306 306 306 307 307 307 307 308 308 308 308 309 312 311 308 308 305 307 310 309 309 308 308 307 307 307 308 307 305 306 306 306 308 310 313 311 311 312 314 316 315 315 315 316 317 317 317 317 319
301 302 306 305 307 307 307 306 308 308 308 308 308 309 308 309 311 310 311 308 305 305 306 308 312 311 309 308 308 307 306 306 305 302 303 305 306 306 308 312 311 309 309 311 312 313 316 315 315 316 317 317 317 318
303 307 306 306 307 308 309 309 309 307 308 308 309 308 308 309 309 310 308 305 305 306 305 309 311 312 308 310 312 306 305 303 303 303 302 304 304 304 308 309 307 310 316 316 309 310 312 314 315 316 316 317 317 320
308 307 307 307 310 311 310 309 308 308 308 307 308 310 312 312 311 309 305 304 304 305 306 306 310 314 308 310 312 309 304 308 305 306 305 303 306 309 306 312 317 319 322 317 316 310 310 312 314 315 315 316 321 324
309 309 308 310 311 312 310 310 309 308 309 308 310 314 316 312 307 306 306 309 308 306 305 307 306 311 308 312 313 314 311 314 313 315 310 310 306 312 312 314 315 317 322 317 314 313 312 313 314 315 317 319 320 325
309 309 310 311 313 312 312 313 311 310 309 314 318 318 313 309 309 314 319 313 312 316 315 313 308 313 310 314 316 316 317 314 321 317 315 316 314 313 313 314 314 315 315 316 316 319 318 319 320 320 320 322 326 328
309 310 311 313 313 312 313 313 314 315 316 315 315 316 315 315 319 320 319 317 319 324 323 322 321 314 317 313 317 322 323 320 320 315 317 316 315 314 313 315 314 314 315 315 316 316 316 317 318 318 318 320 319 318
310 311 312 313 313 313 313 313 313 313 313 315 317 319 318 317 325 322 319 319 320 319 320 320 326 323 323 320 325 322 320 321 316 319 313 317 316 314 315 315 315 314 314 315 315 316 315 315 314 315 316 315 314 315
311 311 313 314 314 313 314 316 316 316 316 317 318 321 320 320 319 320 319 319 319 319 320 322 324 324 321 322 321 322 321 318 320 319 319 318 316 315 314 314 314 314 314 314 314 315 314 314 313 312 312 314 314 314
312 312 313 314 314 313 314 316 316 317 316 318 318 324 319 317 317 317 317 318 319 319 321 323 321 320 320 319 318 318 320 320 319 318 315 313 314 314 314 313 313 313 314 314 314 313 315 313 311 311 311 311 310 310
313 315 316 315 314 313 314 318 316 317 316 317 316 316 315 315 315 314 315 315 317 319 322 321 320 321 318 317 316 316 318 317 315 314 312 311 313 314 314 312 312 311 312 312 312 312 311 312 313 312 310 309 308 307
316 319 315 316 314 315 316 318 317 317 317 316 316 315 314 313 314 314 314 314 316 317 319 318 317 317 315 315 317 316 318 316 314 314 310 312 313 314 312 310 309 308 308 308 310 310 310 310 309 310 312 309 307 306
318 318 314 316 314 318 319 318 317 317 318 318 318 317 315 313 313 313 313 313 314 316 315 315 314 314 313 312 312 311 311 311 314 312 310 311 311 310 308 309 307 306 306 306 304 308 308 308 309 309 308 307 307 306
314 312 315 316 314 319 320 319 318 318 318 318 318 317 316 314 313 312 312 312 312 312 313 313 312 312 311 310 309 309 309 309 310 310 309 309 308 308 307 306 305 304 304 304 303 304 306 306 306 306 306 306 306 305
314 313 314 317 318 322 321 321 319 319 319 318 318 319 318 316 314 314 313 312 312 312 312 311 311 310 309 308 307 307 307 306 307 308 308 308 307 306 306 304 304 303 303 303 304 303 305 305 304 304 303 303 303 302
318 319 316 321 323 322 321 321 321 320 319 319 319 319 318 317 314 313 314 313 312 312 311 310 309 309 308 307 305 305 305 304 306 306 305 305 303 304 304 303 302 302 302 303 304 304 303 304 303 303 302 302 301 300
320 316 322 323 323 322 323 321 322 321 321 319 319 318 318 317 316 313 314 314 313 312 310 310 309 307 307 308 306 305 304 303 303 303 302 302 305 304 304 303 302 302 302 302 303 303 302 301 299 301 300 300 300 299
319 320 323 323 324 322 324 322 323 322 322 320 319 319 318 318 317 315 313 313 313 311 310 310 309 308 307 306 305 305 303 302 303 303 302 302 302 303 302 302 301 301 301 301 301 301 301 298 299 299 299 299 299 299
319 324 325 323 322 322 323 323 321 322 321 321 319 319 319 318 317 315 313 312 312 312 312 310 309 308 307 308 306 304 303 302 302 302 302 300 301 301 301 301 301 300 300 300 300 300 300 300 299 299 299 298 298 298
323 323 323 319 322 321 320 319 319 319 320 320 320 319 319 318 318 314 313 312 312 311 311 310 309 308 307 306 304 304 303 301 301 302 301 299 300 300 301 300 300 300 299 299 299 300 299 299 299 298 298 297 297 298
318 321 326 319 320 321 319 319 318 318 318 319 319 319 319 319 316 314 313 312 312 311 311 310 309 308 308 306 305 303 301 300 300 300 299 298 298 298 299 300 300 299 297 298 299 299 299 299 298 298 298 297 295 297
320 321 322 321 322 323 322 320 320 319 318 318 318 318 318 317 315 315 314 313 313 312 311 309 308 308 307 306 304 302 300 299 299 298 298 298 298 297 297 298 298 297 296 297 298 298 298 298 298 297 297 297 297 297
323 322 323 323 323 323 322 322 320 319 318 317 318 318 319 316 316 316 315 313 312 312 311 309 307 306 305 304 303 301 300 300 299 299 299 298 298 298 297 297 297 295 295 296 295 296 297 297 297 297 296 296 297 296
325 323 321 322 322 322 323 322 321 320 318 317 317 317 318 318 318 316 315 314 313 313 310 309 307 305 303 303 302 301 300 299 299 300 300 300 299 298 297 297 297 297 296 296 294 294 294 294 294 295 296 296 296 295
324 322 322 322 322 322 324 322 320 319 319 319 319 318 318 318 317 316 316 314 313 312 311 310 308 305 305 305 303 302 301 299 299 299 300 299 298 297 297 297 296 296 296 296 296 295 294 295 295 295 296 295 295 295
321 322 323 322 322 321 321 320 319 320 321 320 319 319 318 320 318 316 315 314 314 313 310 308 307 306 304 303 302 301 300 300 299 298 297 297 298 297 297 296 296 296 296 295 295 295 295 295 295 295 295 295 295 295
323 322 323 321 321 321 320 320 319 319 319 319 320 319 320 320 321 319 312 311 310 310 306 306 307 305 303 301 300 299 297 299 299 298 298 297 296 296 296 296 296 295 295 295 295 295 295 295 295 294 294 294 294 294
322 320 320 320 321 321 321 320 320 321 320 319 320 321 319 320 319 315 308 306 307 308 307 305 303 302 301 300 299 299 298 298 296 295 294 294 293 293 293 295 295 295 295 295 295 295 295 295 295 294 294 294 294 294

GFSWCAN_925_thetae_036.txt.gz
Theta_e
302 302 302 303 304 303 302 302 302 302 305 307 306 306 307 307 307 307 309 308 305 306 305 306 307 308 309 310 311 310 309 311 312 313 312 316 316 315 314 313 315 316 317 318 319 323 327 325 325 331 336 331 330 330
303 303 304 303 302 302 301 302 303 306 307 306 306 307 307 307 308 308 309 309 308 305 307 306 306 307 308 308 310 309 309 309 310 313 314 312 313 312 314 314 313 314 315 318 318 320 326 323 322 321 321 322 326 324
304 304 303 302 301 301 302 305 307 306 306 306 307 307 307 308 308 308 309 308 306 305 306 306 308 309 308 308 308 310 308 307 307 308 308 311 314 312 315 314 314 314 316 317 316 316 318 318 318 318 319 319 320 320
304 303 302 301 301 304 306 306 306 307 307 307 307 307 308 308 308 308 309 308 305 305 307 310 310 310 309 308 308 308 308 307 307 308 310 311 312 311 313 313 313 313 313 315 316 317 319 318 317 317 317 318 318 318
302 301 301 302 305 306 306 306 307 307 307 307 308 308 308 309 308 311 310 308 307 308 311 310 308 309 309 308 308 309 308 309 309 308 309 310 309 310 310 311 312 312 314 315 318 317 319 321 318 318 318 317 319 319
301 301 302 306 306 306 306 307 307 307 308 307 308 308 308 308 311 314 313 309 308 306 308 311 309 310 309 308 308 307 307 307 308 305 305 306 306 307 311 311 310 311 311 311 313 314 314 316 318 317 318 318 318 319
302 304 307 306 307 308 310 310 308 308 308 308 309 308 310 311 311 311 311 309 307 306 308 310 313 311 309 309 308 308 307 306 304 302 302 303 303 306 307 309 308 307 307 307 307 309 312 312 314 315 316 317 317 318
305 308 309 308 309 311 311 310 308 308 309 308 308 309 309 309 311 312 308 306 306 307 306 311 314 315 309 313 313 306 306 304 303 304 303 304 303 303 307 308 313 318 318 318 316 313 311 312 313 315 316 317 318 317
307 307 309 309 310 311 311 309 309 309 309 309 309 310 313 313 313 311 306 305 307 308 310 310 313 320 311 313 312 309 306 310 306 306 305 303 304 309 310 314 313 315 318 320 315 314 318 312 314 314 316 317 318 317
308 308 310 310 312 312 312 312 311 310 309 308 311 316 317 314 308 307 307 310 311 310 310 316 311 316 312 314 314 315 311 316 319 318 308 312 312 313 313 314 312 313 315 317 319 315 311 312 313 314 315 316 316 316
309 309 310 311 313 313 312 312 312 310 309 315 318 320 314 310 312 314 321 320 321 323 319 320 318 320 314 318 319 318 321 319 323 317 317 315 314 315 314 314 313 311 313 312 315 317 316 315 315 315 315 317 317 319
310 310 311 312 314 313 313 313 314 315 317 315 318 318 317 318 320 321 321 321 323 324 322 323 324 319 320 316 319 323 324 319 317 316 316 313 316 316 315 314 314 314 312 313 312 313 314 314 315 316 317 318 316 314
311 311 311 313 314 313 314 314 314 316 314 318 320 322 320 320 322 322 325 323 324 321 321 322 325 325 325 323 326 323 319 322 316 318 315 317 317 316 315 313 314 314 313 313 313 311 311 313 311 311 313 313 313 314
312 312 311 313 315 314 314 316 316 315 314 319 320 319 321 320 319 319 319 320 319 319 322 323 325 326 323 322 320 321 320 317 318 318 319 316 317 316 315 313 312 312 313 313 313 312 311 310 309 308 309 310 311 311
312 313 312 316 315 314 314 316 316 315 319 319 319 321 318 316 316 315 315 316 316 318 322 325 324 321 319 318 317 317 319 318 318 318 316 313 316 316 314 312 312 311 310 312 312 312 313 311 310 308 307 307 306 308
313 318 318 316 316 314 315 318 318 319 317 317 316 316 315 315 315 315 315 315 315 318 320 320 319 319 317 317 317 318 317 319 316 317 316 313 315 314 313 313 311 309 309 308 311 310 311 311 309 308 308 306 305 305
315 321 318 315 314 314 318 319 319 318 318 318 318 317 316 315 315 315 314 314 315 317 317 317 316 316 315 316 317 315 316 316 316 314 315 315 313 313 313 312 308 307 308 307 307 309 309 309 311 308 308 305 305 306
319 319 313 315 315 321 321 319 319 319 319 319 319 318 317 316 315 315 314 314 314 315 316 315 314 313 313 312 311 310 310 311 312 313 311 312 312 310 310 308 307 306 306 306 306 308 307 307 309 309 308 307 307 306
314 313 313 315 316 319 321 320 321 320 319 319 319 319 318 317 316 315 315 314 313 313 313 313 313 312 312 311 309 309 309 308 308 309 310 310 310 309 309 306 305 304 304 306 305 306 306 306 305 305 305 304 304 302
316 314 313 316 319 325 322 322 321 321 320 319 320 319 318 319 316 315 315 314 314 313 313 312 312 311 310 309 309 307 308 307 307 308 307 306 305 305 307 305 304 304 304 305 305 304 305 305 304 303 303 302 302 301
320 322 317 322 327 324 321 321 324 320 321 321 320 320 320 319 317 315 316 315 314 313 313 312 310 309 310 309 307 307 306 305 307 307 306 305 304 305 305 305 304 303 304 304 305 304 302 302 302 302 302 302 301 300
323 318 322 324 324 323 324 320 321 321 322 321 319 319 319 319 318 316 316 315 315 314 312 312 311 310 309 310 308 308 306 305 305 305 303 304 304 305 305 304 304 304 303 303 303 303 301 301 300 301 301 301 300 299
321 322 325 324 324 322 321 322 323 321 321 321 320 319 318 318 319 317 317 314 315 313 313 313 312 311 311 309 308 308 306 305 304 304 304 304 302 303 303 303 303 303 302 302 302 302 301 300 301 301 300 300 300 300
322 326 327 325 322 321 322 324 321 321 321 321 321 319 320 320 318 319 316 314 314 313 315 314 311 311 311 312 309 306 305 304 303 303 303 303 302 302 302 302 302 302 301 301 301 301 301 301 300 300 299 298 299 300
324 322 322 317 321 322 322 319 319 319 319 320 320 321 321 319 319 318 316 315 314 314 313 312 311 310 310 309 307 306 304 303 302 303 302 301 301 301 301 301 301 301 300 300 300 301 301 300 300 299 299 298 298 299
318 321 321 321 321 321 320 320 319 319 318 318 319 319 321 321 320 317 316 316 315 314 313 313 312 310 310 309 308 306 304 302 301 301 301 300 300 300 300 301 301 300 299 299 300 300 300 300 299 299 299 299 298 299
318 323 323 321 320 321 323 323 322 321 319 319 319 319 321 319 319 319 318 316 316 314 313 312 311 310 309 308 307 304 303 302 301 301 300 300 300 299 299 299 299 297 297 298 298 298 298 299 299 298 298 299 298 298
324 323 321 323 325 322 324 324 322 324 322 320 319 320 322 322 320 321 317 315 315 313 311 311 309 310 307 306 305 303 302 301 301 301 301 301 301 300 299 299 298 297 297 297 296 297 296 297 297 297 298 298 297 297
324 325 326 323 323 324 325 323 320 323 322 321 320 319 318 319 316 318 316 315 315 314 313 313 311 308 307 306 306 304 303 302 301 301 302 302 301 300 299 298 298 298 298 297 295 295 295 295 296 296 297 297 297 297
325 325 326 322 322 323 324 323 324 321 320 319 318 319 321 320 319 316 316 316 315 314 313 312 310 309 307 306 305 303 302 302 301 300 301 300 300 299 298 298 298 298 297 297 297 297 295 295 296 297 297 296 296 296
324 324 322 323 323 322 323 322 321 319 320 320 318 317 320 321 317 316 315 314 312 312 312 310 309 308 306 304 302 302 301 300 301 300 299 299 299 298 298 298 297 297 297 297 297 297 297 296 296 296 296 296 296 295
324 324 323 320 320 320 322 323 322 319 320 320 320 320 321 323 323 318 312 311 310 310 308 308 306 305 303 302 301 300 299 299 299 298 297 297 296 296 296 297 297 297 297 296 296 296 296 296 296 296 295 295 295 295
323 324 322 322 322 321 320 321 319 320 322 321 321 322 320 320 319 315 310 308 308 307 306 305 304 303 302 301 300 300 299 296 295 295 295 294 293 293 294 295 294 295 295 296 296 296 296 296 296 296 296 295 295 295

GFSWCAN_925_thetae_039.txt.gz
Theta_e
303 303 304 304 303 302 301 302 304 305 305 306 306 306 307 307 308 308 309 309 306 305 305 306 307 308 308 308 311 310 310 310 311 313 315 315 317 316 314 314 317 316 319 319 319 323 331 318 322 325 331 326 324 322
304 304 304 303 301 301 302 305 305 305 306 306 306 306 307 307 308 308 309 309 308 305 306 305 306 306 307 307 309 309 309 309 309 311 312 310 311 313 313 317 314 318 315 318 318 319 317 316 317 318 318 319 320 320
304 303 302 301 301 303 306 305 305 306 306 306 307 307 308 308 309 309 309 308 306 306 306 307 310 309 308 307 307 310 309 308 308 308 308 311 312 312 313 314 312 312 313 312 314 315 314 316 317 318 318 318 317 316
303 302 301 302 304 306 306 306 306 306 307 307 307 307 308 308 309 309 309 308 306 306 308 310 309 309 309 308 308 308 309 308 308 308 309 310 311 309 311 310 310 311 312 313 314 313 315 317 314 316 316 316 318 318
301 301 303 306 306 306 307 307 307 307 307 307 308 308 308 308 309 310 310 308 308 309 311 309 308 309 308 307 308 307 307 308 308 307 308 309 308 308 308 308 311 311 310 311 312 311 311 312 312 312 313 314 316 317
301 305 308 308 307 308 308 309 307 307 307 308 308 308 308 310 311 313 311 308 308 306 308 311 310 311 310 309 308 307 307 306 306 305 305 305 306 307 308 309 309 309 308 307 309 309 309 309 310 310 311 312 315 316
304 308 307 308 309 310 310 310 309 307 308 309 309 310 311 310 310 311 311 310 308 306 309 312 316 312 310 310 309 308 305 304 304 302 302 302 303 306 305 308 308 309 312 315 314 309 310 309 310 312 313 313 315 315
307 308 308 309 310 311 312 311 308 308 309 309 309 309 309 311 311 312 307 306 307 307 307 315 317 316 310 315 315 307 307 305 303 304 303 304 303 302 306 308 310 310 312 313 316 315 310 312 312 313 313 312 313 316
308 309 309 310 311 312 312 312 311 310 309 309 311 312 313 313 314 311 307 306 307 308 314 316 318 320 311 314 313 310 307 311 305 307 305 303 303 310 310 311 311 311 311 313 316 315 312 312 316 314 313 314 313 315
309 310 310 310 312 313 312 312 311 310 309 309 312 316 318 314 309 309 310 311 310 311 312 318 313 318 314 315 316 316 312 316 319 316 308 309 311 313 313 314 312 311 311 310 312 314 316 313 313 313 314 313 314 316
310 311 311 311 312 313 312 313 313 310 309 313 318 321 313 310 313 313 322 321 321 322 320 319 320 321 317 319 319 317 321 318 322 317 317 313 315 315 313 313 313 312 311 309 309 310 311 311 313 316 317 316 315 317
311 311 311 311 313 314 313 314 314 314 318 314 316 319 315 316 320 323 323 323 325 322 323 323 322 322 320 318 317 321 323 321 320 316 315 313 315 314 314 312 311 313 312 310 309 309 310 309 309 311 314 314 313 312
312 312 312 311 313 315 314 314 315 314 315 319 319 323 324 323 322 320 316 326 325 324 322 322 324 325 325 321 323 323 321 320 317 316 315 316 314 312 313 311 310 309 312 311 310 308 308 309 308 308 308 310 311 311
312 312 313 312 315 315 314 314 315 315 314 323 323 316 322 324 321 319 317 317 318 317 318 324 325 325 324 323 320 319 321 317 317 314 318 316 314 313 312 311 309 308 307 312 311 309 308 308 307 307 306 306 307 307
312 314 317 317 317 315 314 315 315 315 319 323 321 318 320 318 317 316 316 316 316 316 319 323 325 324 320 318 318 316 317 316 316 317 316 315 313 313 312 311 309 308 307 306 311 311 309 307 306 305 306 305 305 306
313 317 320 318 315 314 314 316 318 319 321 322 319 318 318 316 316 316 315 315 315 317 318 321 319 319 318 318 317 316 316 317 316 316 315 314 313 312 312 312 310 308 308 307 308 311 308 308 308 306 305 305 304 304
314 321 320 315 315 315 317 319 323 322 321 321 321 319 319 318 317 317 316 315 316 317 318 318 317 316 316 314 314 315 315 314 316 315 314 313 313 312 311 312 310 309 308 308 308 308 310 307 306 305 306 306 306 305
317 319 314 313 315 320 325 321 321 321 320 320 322 322 322 319 318 318 317 317 317 315 316 317 315 314 314 312 313 311 311 310 309 310 313 314 313 311 311 311 308 308 309 306 308 307 306 306 307 306 305 302 301 303
313 314 314 313 315 318 326 321 322 323 321 321 322 321 321 321 320 320 318 318 318 316 316 316 314 313 313 312 311 309 310 308 307 308 311 309 310 309 310 307 304 306 308 305 305 307 307 304 303 303 303 301 301 300
315 317 315 316 317 325 328 327 322 327 323 323 324 323 322 322 321 318 319 317 318 316 315 313 312 313 312 312 311 310 309 308 308 308 308 307 305 305 309 307 305 304 305 305 303 303 302 302 303 302 301 300 300 300
319 323 318 319 327 323 327 324 325 326 324 324 324 325 324 323 324 319 319 320 317 316 315 314 313 313 311 310 309 308 310 307 308 307 308 306 305 305 306 304 304 303 304 303 304 302 301 301 301 301 301 300 299 300
324 320 321 326 326 325 326 323 324 326 326 325 325 324 324 324 322 320 320 320 319 317 316 316 316 314 315 314 310 308 308 307 306 307 304 305 305 304 305 304 304 304 303 303 303 302 301 300 301 300 300 300 299 299
322 323 326 327 324 319 320 322 326 327 324 324 325 323 323 322 323 322 321 320 320 318 316 316 315 312 313 312 312 310 308 307 307 305 305 304 303 303 303 303 303 302 302 302 302 302 301 301 300 299 299 299 300 301
324 325 329 328 325 321 325 327 327 326 326 325 324 324 324 323 322 321 322 320 318 317 318 319 316 316 316 315 314 309 306 304 303 303 303 302 302 302 302 302 302 301 300 301 301 302 301 300 300 299 299 298 300 300
321 320 321 312 323 324 322 323 321 322 322 322 323 325 326 321 319 322 321 318 317 317 318 315 314 313 312 311 309 306 303 302 302 303 301 301 301 301 301 301 299 299 299 300 300 301 301 300 300 299 299 298 299 299
315 323 320 323 324 323 321 323 324 321 322 321 323 324 323 320 320 322 319 319 319 316 316 315 313 313 312 311 310 306 304 302 301 302 301 300 300 300 300 301 299 298 297 298 299 299 299 300 299 300 299 299 298 299
316 324 326 325 324 325 325 324 322 323 322 322 322 321 323 323 322 317 315 317 317 315 314 312 312 312 311 309 306 304 303 302 302 302 301 301 300 300 299 300 299 298 298 297 297 298 297 298 298 298 299 298 297 297
326 328 327 327 327 324 324 321 323 323 323 322 322 321 322 323 321 318 319 316 313 313 313 312 311 311 309 307 306 305 304 303 302 302 302 302 301 300 299 299 298 297 297 296 297 296 296 296 297 298 298 298 297 297
325 325 324 326 327 326 325 325 324 323 323 323 323 323 321 317 317 316 317 315 315 315 314 313 312 310 309 307 307 305 304 303 302 303 302 302 301 300 299 298 298 298 298 297 296 296 296 296 296 296 297 297 297 297
326 325 326 325 326 325 328 325 324 324 322 323 321 321 322 321 318 316 316 313 313 314 313 311 310 309 307 305 303 302 301 302 301 301 301 301 300 299 298 298 298 298 298 297 297 297 297 297 297 297 297 296 296 296
324 324 323 324 326 324 322 323 323 323 319 320 320 321 322 320 317 315 312 312 311 311 310 308 306 305 304 302 302 301 301 300 299 298 298 298 297 297 297 297 298 298 297 297 297 297 297 296 296 296 296 296 296 295
325 326 324 324 324 324 323 322 322 320 321 322 320 320 323 322 321 315 310 310 309 308 306 305 304 302 302 301 301 300 299 297 296 295 295 294 294 295 295 295 295 296 296 297 297 297 297 296 296 296 296 295 296 295
326 324 326 324 324 322 322 322 322 322 323 323 322 322 322 319 316 313 310 308 307 306 305 304 303 302 301 301 300 298 296 296 295 295 294 294 294 294 294 293 294 295 297 297 297 297 296 296 296 296 296 296 296 295

GFSWCAN_925_thetae_042.txt.gz
Theta_e
303 304 304 303 302 301 303 305 305 305 305 306 306 306 306 307 307 308 308 308 307 305 305 306 307 309 308 308 309 309 308 305 307 307 311 312 313 315 315 316 317 317 320 320 319 326 327 318 319 321 318 318 318 317
304 304 303 301 301 303 306 305 306 306 306 306 306 307 308 308 308 308 308 309 308 305 307 306 307 307 306 307 308 309 309 309 308 305 305 308 312 313 313 317 312 316 315 316 316 320 316 316 321 317 315 316 316 316
304 302 301 302 305 306 306 306 306 306 306 306 307 307 308 308 309 309 310 309 307 306 306 305 310 308 308 307 307 310 309 309 308 305 304 307 311 308 310 311 310 310 310 311 310 312 311 314 317 314 312 312 312 314
302 302 303 306 306 306 307 307 307 307 306 306 307 308 308 308 309 309 309 308 306 305 306 309 308 309 308 308 307 308 308 307 307 306 305 308 310 306 307 307 308 311 310 311 310 309 310 313 312 310 311 311 312 312
303 304 306 307 307 308 309 308 308 307 306 307 308 308 308 309 309 309 309 308 307 306 308 308 307 310 309 308 307 306 306 307 307 307 307 308 306 306 304 304 311 309 311 312 312 310 310 310 309 310 310 311 311 311
303 306 308 308 308 309 310 309 308 307 308 308 308 309 309 310 311 312 309 308 308 306 305 308 307 310 309 307 306 306 306 305 305 305 304 304 303 307 306 308 309 310 310 311 314 314 313 309 309 310 309 310 311 311
305 308 309 308 309 310 312 311 308 308 309 309 310 310 311 310 310 310 309 309 308 306 304 311 314 312 310 309 306 305 303 302 303 302 303 304 303 305 305 307 307 310 309 310 310 314 313 311 310 310 311 312 313 313
307 309 309 309 310 311 312 312 311 310 309 309 309 309 310 311 310 311 306 307 307 307 306 313 314 312 310 311 312 306 305 305 304 304 304 304 303 302 306 308 311 309 309 309 310 310 312 311 310 310 310 311 313 313
308 310 310 310 311 313 312 312 311 310 310 310 311 311 312 312 312 311 307 306 307 308 313 314 318 319 309 310 308 309 305 312 304 308 306 305 304 311 311 313 313 312 309 309 309 310 310 311 312 313 313 312 312 312
309 310 311 310 311 314 313 313 312 310 310 310 311 314 313 313 310 308 308 309 308 306 306 314 313 316 311 313 315 314 310 313 316 311 306 307 310 312 312 311 312 311 309 308 309 310 310 310 311 316 315 311 311 310
310 311 311 311 311 314 314 313 314 312 311 312 313 314 312 310 312 311 316 314 313 314 310 311 312 317 312 317 317 314 317 313 308 311 313 313 313 312 310 310 311 311 309 308 308 308 307 308 309 312 313 313 313 314
311 312 312 311 311 314 314 313 314 314 317 315 314 313 312 311 313 318 315 315 314 317 316 317 317 316 316 313 315 317 318 314 317 310 312 313 311 309 307 309 308 310 309 309 308 308 307 307 307 307 308 308 309 310
312 312 312 312 312 316 315 314 313 314 313 315 316 318 318 314 313 316 312 314 315 315 317 319 318 317 316 313 316 316 317 316 310 310 312 314 312 308 307 307 306 306 309 309 308 307 307 306 305 305 306 306 305 305
312 312 314 313 317 316 315 315 314 314 313 316 321 310 316 314 314 312 311 310 310 310 310 315 318 318 316 317 313 316 314 310 312 312 313 313 311 306 306 307 306 304 307 308 308 306 305 305 304 304 304 304 304 304
312 313 317 318 318 313 315 314 314 314 317 320 315 313 314 312 311 310 310 309 309 309 310 314 317 314 313 314 312 311 313 312 313 316 313 310 307 306 306 305 306 304 304 308 308 307 306 305 305 304 303 302 302 302
313 314 320 319 317 313 315 315 316 316 320 319 315 314 312 311 311 310 310 309 308 309 309 310 313 313 314 312 313 315 312 310 312 310 309 308 307 306 305 304 305 305 305 304 308 307 307 307 305 305 305 303 302 302
313 319 321 317 313 313 318 317 322 322 318 319 318 312 311 311 311 311 310 309 309 308 311 310 314 314 308 310 312 309 308 307 306 306 306 307 307 306 305 305 306 304 305 304 306 307 306 306 306 306 305 305 304 303
312 313 313 314 313 315 323 322 322 318 320 315 317 315 314 311 311 312 310 309 308 309 308 313 308 310 310 311 308 305 305 303 301 301 302 307 306 307 308 307 303 305 304 304 306 304 304 304 305 303 301 300 303 303
311 313 315 314 314 317 322 323 319 322 320 316 315 313 313 313 312 312 310 310 311 308 307 307 309 309 308 306 305 304 303 301 302 302 302 303 302 303 306 305 302 306 302 303 302 300 300 301 301 300 300 300 299 299
314 317 319 320 317 321 327 322 321 321 322 316 316 317 314 313 314 311 310 309 308 307 308 308 308 307 305 304 303 303 302 301 302 302 301 301 302 303 303 305 303 303 303 301 301 300 300 300 300 299 299 300 299 298
320 323 321 317 323 319 323 319 319 321 317 317 318 317 316 315 316 311 311 310 309 308 309 307 306 305 307 307 307 307 305 304 302 301 301 301 302 302 302 303 302 302 300 300 299 299 300 299 299 300 299 298 298 298
321 322 320 322 324 326 322 322 316 317 320 318 319 317 317 318 318 316 312 314 310 309 308 307 306 307 307 306 307 307 308 307 306 305 303 302 298 299 299 301 301 300 300 300 300 300 299 300 300 299 299 299 298 298
323 322 324 325 326 314 315 320 322 322 323 319 319 320 319 321 320 317 316 314 313 310 310 309 310 310 309 310 311 308 308 306 303 301 300 300 300 301 301 300 299 299 298 300 301 300 300 299 299 298 300 299 298 298
323 324 326 325 320 314 320 324 323 324 322 323 322 323 320 320 318 318 319 317 315 312 311 312 312 311 311 311 306 306 304 302 301 300 300 300 298 299 299 298 298 298 299 300 300 300 300 299 298 299 300 299 299 299
317 317 317 311 317 321 322 323 322 322 322 320 320 320 320 316 319 317 320 317 314 314 314 312 309 308 306 305 303 302 302 301 300 298 300 300 299 299 298 297 297 297 298 298 299 299 299 299 298 298 298 298 298 298
316 320 316 322 323 324 322 324 325 323 322 322 320 320 318 319 319 320 316 316 316 315 314 311 309 307 306 307 304 301 301 301 301 299 300 300 299 299 296 295 295 297 297 297 297 297 298 299 299 299 298 298 297 297
315 321 321 318 321 322 324 324 322 320 323 322 321 322 321 318 314 317 313 312 313 315 313 312 311 310 307 304 303 303 302 302 301 301 300 300 299 299 298 297 297 297 297 297 296 296 296 298 298 298 297 297 297 297
326 325 325 324 323 322 323 322 322 321 321 322 322 318 317 316 315 314 313 316 314 313 312 312 310 310 308 307 306 305 303 302 302 301 300 300 299 298 298 297 297 298 297 296 296 296 296 296 297 298 297 297 296 297
325 322 322 324 324 323 322 322 323 321 320 320 321 321 318 315 316 315 316 317 316 313 313 312 311 310 307 302 301 301 301 301 300 299 299 298 298 298 298 298 297 298 298 296 296 296 296 296 296 297 297 297 297 297
324 322 324 325 325 326 323 321 323 321 318 318 317 317 316 316 318 316 313 311 311 308 304 303 302 302 301 300 299 299 298 298 299 298 295 295 296 297 298 298 298 298 298 297 297 297 297 297 297 296 296 295 296 296
322 324 323 323 323 321 322 320 317 317 315 317 317 316 317 314 313 311 309 307 306 304 302 302 301 301 300 300 299 297 296 295 296 295 295 295 295 295 295 296 297 297 297 297 297 296 296 296 296 296 295 295 295 295
324 324 324 323 321 321 320 319 320 319 318 319 317 319 317 316 317 310 308 306 304 303 302 301 301 300 299 299 298 296 296 295 295 294 294 294 294 294 294 296 297 297 297 297 297 296 296 296 296 296 296 296 295 296
324 323 323 323 322 321 319 319 320 319 319 320 319 319 320 316 313 310 307 305 304 303 302 301 301 300 299 298 297 296 296 295 295 295 294 293 293 293 293 294 295 296 296 296 296 296 295 295 295 296 296 295 295 295

GFSWCAN_925_thetae_045.txt.gz
Theta_e
304 304 302 301 302 305 306 305 306 306 305 306 306 306 307 307 308 308 308 308 307 306 306 305 306 308 309 308 307 309 307 306 307 308 309 308 312 312 314 313 315 316 318 319 320 326 331 315 320 322 316 315 314 313
304 302 301 303 305 306 305 306 306 306 306 306 306 307 308 308 309 308 308 309 308 306 307 307 307 308 307 307 308 309 308 308 306 306 307 309 312 311 312 314 312 317 313 315 315 319 315 313 318 314 312 312 312 311
302 301 302 305 307 307 307 307 307 306 306 306 307 308 308 308 309 309 309 308 307 306 305 305 308 308 308 308 307 309 309 308 308 305 305 307 311 309 311 311 313 311 310 312 311 310 310 312 313 311 312 312 311 311
302 302 304 308 307 307 309 308 307 306 306 307 307 308 308 308 309 309 308 307 306 304 304 305 308 308 308 307 306 307 308 307 306 301 303 307 310 306 311 309 312 310 310 311 311 310 311 313 312 313 313 312 313 312
303 304 307 308 308 309 309 308 306 306 307 308 309 308 308 309 309 309 308 307 307 305 306 304 305 309 308 306 305 305 306 306 307 307 306 307 307 307 306 306 312 311 312 313 313 311 312 312 312 312 312 312 312 312
303 305 309 308 309 310 311 308 308 307 308 309 309 309 309 309 310 311 307 308 308 307 303 310 306 308 307 306 304 304 304 304 304 304 305 304 303 306 308 311 310 310 310 310 312 311 313 313 314 313 311 312 312 312
304 307 309 309 309 311 312 310 308 309 310 310 310 310 311 311 311 310 307 309 308 306 306 310 310 309 310 308 305 304 302 301 303 304 303 304 304 305 304 310 312 309 309 309 309 310 311 313 313 311 312 312 312 313
305 308 310 310 310 312 312 312 310 310 310 310 310 310 309 309 308 310 307 307 307 306 304 314 315 311 309 307 308 303 303 303 304 305 304 305 304 303 309 310 312 309 309 308 309 308 309 309 310 311 312 312 311 312
306 310 310 310 310 312 313 312 310 310 310 310 311 311 311 311 311 311 307 307 307 307 308 310 317 319 308 307 305 305 303 309 305 308 308 305 306 310 310 310 311 310 309 307 307 308 308 308 309 312 313 312 313 312
306 311 311 311 310 311 313 313 312 310 310 310 310 313 312 312 309 307 307 308 308 305 303 310 309 317 311 313 315 313 310 313 314 311 308 309 308 308 308 307 308 310 309 307 307 308 308 308 308 308 309 312 314 314
307 311 311 311 311 311 314 313 313 312 311 312 312 312 311 309 311 311 315 312 310 313 306 307 309 314 313 316 317 313 315 311 308 313 313 312 311 307 307 306 306 308 307 306 306 306 305 306 306 307 306 307 308 309
307 311 311 312 311 311 315 314 313 313 315 315 313 312 310 309 312 314 312 311 313 314 312 314 314 316 314 312 313 314 317 312 314 307 310 313 309 307 305 306 305 306 307 306 306 305 305 304 305 305 305 305 305 305
309 312 312 313 312 316 315 314 314 312 313 313 314 315 315 313 309 314 309 311 311 309 312 314 318 315 313 310 316 317 316 313 307 310 312 309 308 306 304 304 305 305 308 306 306 305 304 304 303 303 303 302 302 302
309 312 312 315 317 315 312 314 314 313 313 313 319 309 313 311 311 310 310 308 307 308 308 308 316 315 312 315 310 314 311 308 310 311 310 306 307 305 304 303 303 303 307 307 306 305 304 304 303 303 303 302 302 302
308 311 313 317 318 314 312 315 313 314 316 318 314 309 312 310 308 308 306 306 307 306 306 314 311 309 310 312 308 308 311 307 310 310 308 306 305 304 304 303 302 303 302 307 306 305 304 304 304 303 302 302 301 300
309 312 319 320 318 313 313 314 314 315 317 318 316 313 309 309 309 308 308 307 305 306 306 307 310 310 312 309 311 313 309 306 308 309 305 304 305 305 304 303 302 303 302 304 307 306 305 305 304 304 305 303 302 300
309 319 314 312 312 313 316 314 318 319 319 317 316 309 308 309 309 308 307 306 305 305 308 308 312 313 306 309 310 306 306 304 303 302 300 302 304 304 303 303 304 302 301 303 305 306 306 305 305 305 303 303 304 301
308 309 311 313 314 313 321 318 320 318 318 315 315 312 310 308 309 308 307 306 305 305 306 310 305 308 309 310 307 303 302 300 299 298 299 301 301 303 303 304 304 302 302 303 302 303 305 305 304 301 298 301 301 302
309 312 315 314 316 315 319 322 319 319 318 313 313 310 310 310 307 307 306 308 306 304 304 305 307 307 306 303 303 302 301 299 300 300 300 301 301 299 300 303 301 302 301 300 299 298 299 300 299 298 298 298 297 297
313 318 319 321 318 318 324 323 319 317 320 313 312 313 311 311 310 309 308 306 305 305 306 307 307 305 303 302 300 301 300 298 299 300 299 299 302 300 300 301 301 301 299 298 299 299 299 298 298 298 298 297 296 296
319 323 321 318 318 316 319 319 315 316 316 315 312 315 316 313 315 314 310 308 308 308 307 304 305 305 303 304 304 304 302 301 300 299 300 300 301 299 299 300 300 299 298 298 297 297 298 298 298 298 297 297 297 298
320 321 320 320 321 322 320 320 314 312 316 316 316 315 317 318 317 315 314 313 312 308 306 306 305 305 304 304 304 306 306 305 304 301 299 299 295 296 297 298 298 297 298 298 298 298 298 297 298 298 297 297 298 298
322 322 322 323 325 313 315 317 318 318 321 319 318 321 319 318 317 316 317 313 313 311 309 308 310 309 306 307 307 306 306 304 299 298 297 298 298 297 297 297 298 298 298 298 299 299 298 298 299 299 297 297 298 298
323 322 323 323 317 315 316 320 319 321 320 319 319 321 319 317 317 318 320 315 313 312 310 312 312 308 308 307 306 306 304 301 299 298 298 299 296 296 296 296 297 298 298 299 299 299 297 298 298 298 298 298 298 297
315 315 313 309 314 318 320 321 321 319 319 319 319 321 318 315 316 317 317 316 313 313 311 312 308 307 304 303 300 301 301 300 299 296 298 299 297 296 296 296 297 297 298 298 298 297 297 298 298 298 298 298 298 298
316 321 316 320 320 320 320 321 322 321 319 320 320 320 319 317 318 317 316 312 312 313 311 309 307 305 303 301 298 298 300 301 299 297 298 298 298 298 295 293 294 296 297 297 297 298 298 298 298 297 297 296 296 296
317 321 317 315 318 319 320 320 318 319 322 321 319 317 319 317 316 312 311 310 310 313 314 312 311 307 304 303 303 303 303 300 300 299 300 298 298 299 298 297 296 296 296 296 296 297 298 297 297 297 296 296 297 297
323 322 323 320 320 319 322 320 320 319 320 318 315 317 318 316 314 309 309 313 314 314 313 312 309 306 302 301 301 303 302 300 300 299 299 299 299 298 298 298 297 296 296 296 296 296 297 297 297 296 296 296 296 296
323 319 319 321 321 321 320 320 319 317 316 317 317 317 315 311 311 312 314 315 313 315 311 307 300 300 299 298 299 299 299 299 299 297 297 296 296 297 296 297 297 297 296 296 296 296 296 297 297 297 296 297 296 296
320 318 321 322 323 324 321 317 319 317 315 315 313 312 311 312 316 314 308 306 303 302 302 300 300 300 297 296 295 296 297 297 298 297 293 293 294 296 297 297 298 297 297 297 296 297 297 296 296 296 295 295 295 295
319 320 320 320 320 318 318 314 314 314 315 315 313 312 313 311 312 305 303 302 302 301 300 300 300 299 298 296 294 293 292 293 294 294 294 294 295 295 296 297 297 297 297 296 296 296 296 296 295 295 295 295 295 296
320 321 320 321 320 316 314 315 316 315 316 316 316 315 313 313 314 306 304 302 301 300 300 299 299 297 297 297 296 295 295 295 294 293 293 293 295 296 296 297 297 297 297 297 297 296 296 296 296 295 295 295 295 295
321 320 319 319 318 317 316 317 317 317 316 317 316 316 316 313 310 306 303 302 302 301 300 299 298 298 298 298 296 295 295 295 293 293 293 292 293 294 295 296 296 296 296 296 295 295 295 295 295 295 295 294 294 294

GFSWCAN_925_thetae_048.txt.gz
Theta_e
304 302 302 303 305 307 306 307 306 306 306 306 306 307 308 308 308 307 308 308 307 306 306 306 306 309 309 307 307 308 307 303 306 309 310 309 310 311 312 312 311 312 313 313 314 321 329 312 317 320 315 312 312 312
303 303 303 304 308 308 307 307 306 306 306 306 306 307 308 308 308 308 308 308 308 307 307 307 307 307 307 308 309 307 308 308 308 309 308 308 311 309 311 314 310 317 312 314 315 316 312 311 313 311 312 312 312 312
303 303 304 307 308 308 308 308 307 306 306 307 307 308 308 308 309 308 308 308 306 305 302 303 307 308 307 307 307 308 308 308 308 305 306 308 310 307 312 313 314 312 310 312 311 311 312 313 313 312 313 313 313 313
303 303 305 309 308 308 309 308 307 307 307 307 308 308 308 308 309 308 308 307 306 302 303 306 307 308 307 306 306 307 308 307 305 302 306 307 309 307 309 308 312 312 311 310 310 312 313 314 313 312 314 313 313 314
303 303 306 309 309 310 310 307 307 307 308 308 308 308 308 309 309 309 308 307 307 305 306 304 304 308 306 305 305 305 305 303 304 305 305 306 306 305 307 307 310 310 312 313 313 312 313 313 313 314 314 313 313 314
303 304 308 310 309 310 312 309 308 309 309 309 310 310 309 310 310 312 306 308 307 307 305 309 304 307 306 306 304 303 303 302 302 303 304 303 303 306 307 310 310 309 309 310 311 310 311 311 311 311 312 313 313 313
303 305 309 310 310 311 312 310 310 310 310 310 311 311 311 311 311 309 306 307 308 306 304 313 311 307 307 306 303 302 301 300 303 305 304 304 304 304 306 310 311 310 308 308 308 309 310 310 311 311 311 312 312 312
304 305 310 310 310 311 312 312 310 310 310 309 310 311 310 309 308 309 307 307 306 305 303 311 316 314 308 308 308 301 302 302 303 305 305 306 305 304 309 308 310 309 309 307 307 308 308 308 307 308 309 312 313 313
304 306 310 311 310 310 313 312 311 310 310 310 310 311 311 310 309 310 307 307 307 306 306 310 313 320 309 310 307 303 301 310 304 308 308 306 306 309 308 308 309 309 308 307 307 306 307 306 307 307 307 308 311 312
304 307 311 311 311 310 313 313 312 310 309 309 309 313 311 310 308 307 308 308 308 307 303 309 307 317 312 313 315 311 308 311 312 311 308 307 306 307 306 306 306 308 308 306 305 306 306 306 306 306 306 305 306 307
304 307 311 311 311 311 313 314 313 312 310 310 311 311 311 309 310 311 315 313 309 314 307 306 308 311 310 317 317 313 313 311 312 311 312 310 305 306 305 304 304 307 307 305 304 304 304 305 305 305 304 304 303 303
305 308 311 311 312 311 314 314 313 311 313 313 313 312 310 310 311 313 309 308 310 313 309 312 313 313 311 311 312 313 317 312 313 306 310 304 307 306 305 304 304 305 306 305 304 303 303 303 302 303 303 303 303 302
305 307 309 312 312 316 313 312 313 312 312 312 312 313 314 311 306 311 306 309 309 307 308 310 312 313 311 309 315 317 315 311 305 309 310 305 305 305 304 303 303 303 306 305 304 303 303 302 302 302 301 302 302 302
306 307 308 312 315 316 314 312 313 312 312 312 318 312 312 310 310 309 309 307 306 305 306 305 312 312 309 313 308 313 309 306 309 309 306 304 304 304 303 303 302 303 304 305 305 304 303 303 302 302 301 301 301 301
307 308 310 315 317 317 312 313 313 312 313 315 313 309 311 309 307 307 305 305 305 303 304 312 308 307 308 310 306 307 309 306 304 306 306 304 304 303 304 303 301 302 301 304 305 304 303 303 303 303 303 301 301 300
308 310 318 318 316 312 313 314 312 313 315 316 316 314 308 308 308 307 307 306 303 304 303 305 308 308 310 308 310 312 308 303 306 306 304 301 302 303 304 303 301 302 301 301 306 305 304 303 303 303 304 304 302 300
308 314 312 308 309 313 314 314 314 315 317 317 313 307 307 308 309 307 305 306 302 304 307 306 311 312 304 308 310 305 306 304 302 301 298 298 300 302 302 303 303 301 301 302 305 305 305 304 304 303 301 302 301 303
307 307 307 309 314 313 317 315 317 319 319 313 315 314 309 307 308 306 306 304 304 304 305 308 305 308 308 309 306 303 302 300 298 298 297 298 298 298 298 297 303 300 302 301 301 303 303 303 302 299 296 298 299 298
308 310 314 315 317 315 316 319 317 317 316 312 310 309 309 309 310 309 309 305 303 303 303 304 307 306 306 303 304 302 301 299 299 299 298 299 299 299 298 299 301 300 298 298 297 297 298 299 297 296 297 296 296 296
313 318 320 321 319 316 321 320 317 315 317 314 309 312 310 311 311 311 310 309 307 309 310 310 307 305 305 304 301 301 299 297 298 299 299 299 300 298 297 297 299 299 297 296 297 298 298 297 297 297 296 296 296 296
318 321 320 316 316 315 316 317 315 314 314 314 311 313 314 314 316 313 311 306 311 311 311 307 306 304 306 305 302 301 300 299 299 299 300 299 300 296 297 298 297 298 296 296 296 296 297 296 297 296 297 297 297 297
319 320 320 319 319 320 318 319 316 311 314 315 316 315 317 317 315 315 312 315 313 308 307 308 307 311 310 307 305 303 303 303 302 299 298 298 296 295 295 296 297 296 298 298 297 296 297 297 297 296 297 297 297 298
320 321 321 322 323 313 315 315 315 316 319 319 315 318 317 317 313 312 315 313 313 311 310 310 311 311 310 307 305 305 305 304 297 296 296 296 296 296 296 296 297 297 297 297 296 297 297 298 298 296 297 297 297 297
321 321 321 321 317 316 315 317 317 319 316 316 316 319 317 315 311 312 315 313 312 310 309 311 312 306 305 306 305 306 306 302 298 297 297 297 295 295 295 296 296 297 297 297 297 297 298 298 298 297 297 297 297 297
313 314 311 306 312 318 318 320 319 318 319 318 319 318 315 312 313 313 315 311 309 310 311 309 306 305 304 303 300 301 301 299 298 296 297 297 295 294 294 295 296 297 298 298 297 297 297 297 297 298 298 297 296 296
314 319 314 318 318 318 319 319 320 320 318 319 319 316 314 314 316 315 313 310 310 310 309 309 307 306 304 302 298 298 300 301 299 297 297 298 296 295 294 294 294 295 296 297 297 297 297 297 297 297 297 297 296 297
316 321 315 312 314 317 318 319 317 317 320 320 319 316 318 316 315 311 308 308 309 312 312 310 309 304 300 299 301 304 305 301 299 299 299 298 297 297 296 298 296 295 296 296 296 296 297 297 296 296 296 296 296 297
319 319 321 318 318 318 320 319 319 318 319 317 314 317 317 314 313 308 308 311 312 313 308 303 302 302 301 303 299 299 299 298 298 298 299 298 297 298 298 296 296 298 297 295 296 297 297 297 296 296 296 296 296 296
320 320 319 321 319 319 319 319 318 315 314 314 315 316 314 310 309 310 313 309 311 311 299 299 298 298 298 297 297 298 298 297 297 297 296 296 295 296 295 296 298 298 296 295 295 296 296 297 296 296 296 296 296 295
317 315 319 320 321 322 320 315 316 314 313 313 311 310 309 310 312 308 305 305 306 305 300 299 298 298 296 295 294 294 295 295 296 296 293 293 293 295 296 297 297 297 296 296 296 296 296 296 295 295 295 295 295 295
316 317 319 319 319 317 317 313 313 314 314 313 310 310 311 310 307 302 301 301 300 300 299 297 296 296 295 295 294 293 293 293 294 294 294 295 295 296 296 297 296 297 297 296 296 295 295 295 294 294 295 295 295 295
318 320 320 320 319 315 312 314 314 314 314 314 314 312 311 312 311 305 303 300 299 299 298 298 297 296 295 295 295 294 294 293 292 293 294 296 296 296 296 296 296 296 296 296 296 296 295 295 295 294 294 295 295 295
319 318 317 316 316 316 314 316 316 316 315 315 315 314 313 313 312 304 302 302 301 300 299 298 297 296 296 296 295 295 293 293 292 292 293 294 295 295 295 295 296 296 295 295 295 295 295 295 295 294 294 294 294 293

GFSWCAN_925_thetae_051.txt.gz
Theta_e
303 303 303 305 307 307 307 307 306 306 306 306 307 307 308 308 308 307 308 308 308 308 309 307 307 308 309 307 308 307 309 307 309 310 311 311 311 312 312 310 309 310 312 313 312 314 319 311 314 323 318 316 315 314
302 303 304 306 308 308 308 307 307 307 306 307 307 308 308 308 308 308 308 307 307 307 309 307 307 307 307 307 309 307 308 309 308 308 309 309 311 310 314 314 309 312 313 317 317 317 312 313 313 313 316 318 317 315
303 303 304 307 308 308 309 308 307 307 307 307 308 308 308 308 308 308 308 307 306 308 309 308 310 308 307 307 307 309 309 309 308 305 306 307 310 308 312 312 311 309 311 314 312 313 313 313 313 315 314 317 316 315
302 303 306 308 309 309 311 308 307 307 307 308 308 308 308 308 308 308 308 307 306 305 311 311 306 309 307 306 307 308 309 308 307 305 307 308 310 306 309 308 310 310 311 311 312 311 313 313 313 314 314 315 315 314
302 303 307 309 309 310 312 310 309 308 308 308 308 308 308 309 309 308 308 307 307 308 313 311 307 308 305 306 306 305 306 306 306 307 307 307 305 306 307 309 309 309 309 311 313 310 312 312 311 312 314 315 315 314
303 304 306 310 310 310 312 311 310 310 309 309 309 309 309 310 310 311 312 308 307 307 310 315 306 309 307 307 307 305 305 306 305 306 306 306 304 307 311 310 309 310 308 307 310 309 310 309 310 310 312 314 315 315
303 304 306 310 310 310 312 312 310 310 310 310 310 310 311 311 310 310 310 307 308 307 309 316 315 309 308 308 308 308 305 307 307 307 308 307 307 307 310 311 311 310 309 307 307 308 309 309 309 308 309 310 313 313
303 304 307 310 310 310 311 312 310 310 310 309 310 310 309 309 309 309 308 307 306 306 307 316 318 314 309 312 313 306 310 309 308 309 309 309 309 308 311 311 310 310 308 307 306 306 307 307 307 307 307 308 309 310
304 304 306 310 311 311 310 313 312 310 309 309 309 310 310 309 311 310 307 307 307 307 314 312 318 322 310 312 309 308 309 314 308 313 313 310 306 312 312 311 311 310 308 306 305 305 306 307 306 306 305 305 306 307
304 304 304 307 311 311 310 313 312 311 309 309 309 312 317 311 308 308 307 309 310 308 307 311 311 320 315 314 315 312 311 313 315 313 311 310 312 310 310 309 310 310 308 306 305 306 305 306 305 305 305 305 305 305
304 304 305 307 310 312 310 314 313 311 309 310 313 316 311 309 310 312 315 314 314 315 312 311 314 318 315 320 319 315 314 313 314 312 313 313 313 311 310 309 309 310 307 306 305 305 304 304 304 304 304 304 303 304
305 305 306 307 310 312 314 314 313 310 312 313 313 312 310 313 315 316 314 313 316 319 316 319 319 315 317 315 318 318 319 314 316 311 311 313 312 311 310 309 308 309 307 306 305 305 304 303 302 303 303 303 302 302
305 306 306 307 309 313 316 313 312 311 311 311 313 316 318 316 315 315 316 317 318 314 314 316 315 318 316 316 319 319 318 317 311 312 315 313 313 312 310 309 307 307 309 307 306 305 304 304 303 302 303 302 302 302
306 307 307 310 312 315 316 312 312 311 311 316 320 319 317 316 315 316 316 316 314 312 313 311 315 321 318 319 314 317 313 312 312 313 315 313 313 312 310 309 307 307 308 309 308 306 306 306 305 305 304 302 302 302
307 307 314 313 315 318 313 312 312 311 313 319 319 320 317 316 313 313 312 311 313 310 311 317 315 314 314 314 312 312 312 313 313 313 314 313 312 311 311 309 308 308 306 308 308 307 306 306 306 306 306 305 303 302
307 309 317 316 311 308 311 313 311 312 315 318 320 321 317 314 316 314 314 314 311 310 310 311 314 314 314 312 312 313 312 313 312 313 311 308 309 310 311 310 309 308 306 306 308 309 308 307 306 306 305 305 304 304
308 312 309 307 307 309 313 312 312 316 319 321 322 319 318 315 316 316 313 314 308 311 313 313 314 314 309 312 313 312 313 311 311 309 306 306 308 307 306 305 305 307 306 307 307 308 308 307 307 305 302 302 302 302
307 307 306 307 310 312 313 312 318 322 324 324 321 321 314 314 315 315 313 311 311 311 311 313 311 312 311 312 311 310 309 307 306 305 305 305 305 304 303 303 304 305 306 306 305 304 306 306 303 301 301 300 300 299
308 312 314 313 315 313 316 319 317 324 322 319 318 316 315 316 314 314 315 311 307 308 311 311 311 311 312 308 309 309 307 306 306 306 305 304 304 304 302 303 304 304 305 303 302 302 302 301 299 299 299 299 299 299
314 318 320 320 318 315 321 324 318 320 322 321 316 318 317 319 318 317 314 312 312 313 315 313 310 310 308 309 307 306 305 304 304 306 306 306 304 302 302 301 302 303 302 300 300 299 301 300 299 298 298 299 300 300
317 320 320 316 315 314 319 323 324 321 321 322 317 320 321 321 321 320 319 313 315 316 314 310 309 310 311 311 308 304 303 303 307 308 307 305 302 301 301 301 300 301 300 300 301 300 299 301 299 298 299 299 299 299
318 319 319 318 319 321 323 322 323 319 320 320 322 322 323 323 321 320 317 318 315 311 310 312 312 313 313 313 312 309 306 306 306 304 300 300 302 302 301 300 301 302 301 301 301 301 300 299 298 299 299 299 299 299
319 320 320 321 325 319 321 316 320 321 325 325 321 323 323 321 319 316 320 318 317 314 311 312 312 313 312 312 310 308 306 307 306 302 300 300 299 299 299 299 300 301 301 300 299 299 299 298 297 298 298 299 299 299
318 321 324 326 323 324 321 321 321 323 322 322 322 323 322 320 318 318 320 319 316 314 312 312 312 312 311 311 311 310 308 304 303 300 299 300 300 298 297 297 298 298 298 299 299 299 299 299 297 299 299 298 298 299
315 317 316 310 316 321 321 322 323 322 323 322 322 322 321 318 319 318 320 318 316 315 315 314 314 312 311 310 308 305 301 302 303 305 300 299 298 298 297 298 297 296 297 299 299 299 299 299 299 299 299 298 298 298
311 319 319 320 322 322 322 323 323 323 322 322 322 321 320 320 318 318 319 316 316 317 317 315 314 312 307 305 305 303 302 300 300 302 300 298 298 299 298 300 300 297 296 296 298 299 299 299 299 299 298 297 297 298
316 323 323 317 318 322 323 323 322 322 323 323 323 321 321 318 317 316 316 314 316 315 313 311 309 305 304 304 303 301 300 299 300 299 298 298 297 298 300 300 299 297 296 297 298 298 299 299 298 298 298 297 298 298
322 323 324 322 322 323 324 323 323 323 322 322 320 321 319 317 317 316 315 313 312 309 302 301 300 299 298 298 297 298 298 297 297 297 297 297 297 297 297 297 296 296 296 296 296 298 298 298 297 297 297 297 297 297
323 325 325 326 324 324 325 325 325 322 321 322 322 321 319 317 315 315 313 310 309 302 302 300 298 297 297 296 296 296 297 298 300 301 300 300 298 296 298 298 298 298 297 296 296 297 297 297 297 297 297 297 297 296
321 321 324 323 325 326 325 323 324 320 318 318 317 316 316 316 312 305 304 305 306 303 300 299 298 299 298 298 296 295 294 294 295 296 297 297 296 295 296 299 298 297 297 297 297 296 295 296 296 296 296 296 296 296
321 322 324 324 325 322 321 319 318 318 319 318 315 317 316 314 306 302 301 301 300 299 299 299 298 297 297 297 297 296 295 293 294 295 295 295 296 296 297 297 297 298 298 297 296 296 296 296 296 296 296 296 296 296
323 325 326 325 324 320 319 320 320 320 320 319 319 317 315 317 315 307 301 300 300 300 299 299 298 296 295 295 294 293 293 293 293 294 296 296 297 297 297 297 297 297 297 297 297 296 296 296 296 296 296 296 296 296
323 323 322 322 322 321 319 320 320 321 320 320 320 318 316 316 317 307 301 300 301 300 299 298 296 295 295 295 294 293 293 293 292 293 295 295 295 295 295 296 296 296 296 296 296 296 296 296 295 295 295 295 295 294

GFSWCAN_925_thetae_054.txt.gz
Theta_e
303 303 304 305 307 308 308 307 307 307 307 307 307 307 308 308 308 311 310 310 311 313 313 311 309 310 310 309 311 310 312 310 310 312 314 314 315 314 315 313 310 313 313 314 314 315 317 313 310 319 319 319 318 318
303 303 304 307 308 309 309 308 307 307 307 308 308 308 308 308 308 309 311 308 308 309 314 311 310 310 309 310 310 310 312 311 308 309 310 310 313 312 313 315 311 312 311 315 314 315 314 312 311 312 317 318 319 318
303 304 305 309 309 309 310 308 307 307 307 308 308 308 308 308 308 309 311 309 309 312 314 313 313 311 310 309 309 312 312 311 311 307 308 309 310 309 314 312 313 311 309 314 314 315 313 312 311 312 315 317 318 316
303 304 305 308 309 310 311 309 308 307 308 308 308 308 308 309 308 309 312 310 310 311 317 315 311 312 309 310 309 310 310 310 308 308 309 309 310 307 311 309 311 308 310 311 311 312 310 311 311 312 315 316 316 316
303 304 305 308 310 310 312 310 309 309 309 309 309 308 308 309 309 310 311 310 310 312 319 316 312 312 307 309 309 309 310 311 311 311 311 311 307 306 309 310 310 309 308 310 312 308 311 311 311 311 314 315 317 316
303 304 305 308 310 310 312 311 310 310 310 310 309 309 309 309 310 312 315 311 310 310 313 319 310 312 310 309 313 313 311 312 312 312 310 310 307 309 312 312 310 308 308 307 308 308 309 309 309 310 311 314 314 315
303 304 305 308 310 310 310 312 310 310 311 310 310 310 310 309 312 315 316 311 309 310 313 318 320 315 311 312 315 314 312 312 313 312 312 312 311 310 311 312 310 309 307 307 306 307 309 308 308 308 309 311 311 310
303 304 304 306 310 311 310 312 311 310 310 310 310 310 309 309 310 313 311 308 308 310 312 320 322 320 314 315 314 313 315 315 313 314 313 313 312 312 314 311 311 309 307 306 306 305 307 307 307 307 308 309 309 309
303 304 305 305 308 311 311 311 312 311 310 310 310 309 310 311 315 314 309 307 308 309 316 317 323 323 314 317 313 312 313 318 313 316 314 313 310 315 314 310 311 310 308 306 305 305 304 305 306 306 306 307 308 308
304 305 305 305 307 311 311 310 313 312 310 309 310 314 318 316 311 309 309 312 312 313 312 316 317 321 318 319 318 315 313 316 318 315 314 315 316 310 309 310 310 310 309 307 307 306 305 305 305 305 305 305 306 307
304 305 305 306 307 310 311 311 313 312 310 313 318 320 315 310 312 314 318 320 320 321 318 318 319 320 319 321 321 317 317 316 318 315 315 315 316 312 309 309 310 311 310 308 307 306 305 305 304 304 305 304 303 304
305 305 306 307 307 310 313 314 312 312 316 316 316 314 314 315 319 321 318 319 322 321 319 318 318 318 320 319 320 320 321 318 317 313 314 317 313 312 310 308 309 311 310 309 307 307 306 305 305 304 304 304 304 303
305 306 307 308 309 310 315 313 311 312 312 314 318 321 322 322 322 320 324 319 318 316 316 316 317 320 319 319 320 320 321 319 315 314 317 314 313 312 310 309 307 308 310 310 309 308 307 306 305 305 305 304 304 303
306 307 308 312 311 313 314 311 311 311 314 320 324 321 323 320 320 319 320 319 318 317 316 315 316 323 320 321 320 319 318 316 315 317 315 312 314 312 310 309 308 307 307 308 309 309 307 306 306 305 305 305 304 304
306 307 312 314 315 316 308 309 312 312 318 322 323 323 321 319 319 319 319 319 319 318 317 315 320 320 319 319 316 316 315 314 315 314 313 313 313 312 311 310 309 308 307 307 307 307 308 306 305 304 304 304 304 304
307 309 316 314 310 308 308 312 312 315 319 322 323 324 320 321 320 320 320 320 319 317 316 316 316 317 316 314 314 313 312 315 313 312 311 310 313 312 312 311 310 309 307 307 307 306 306 305 305 304 303 302 303 303
308 314 310 307 307 308 312 315 316 319 323 324 323 322 322 322 322 322 320 319 315 319 320 317 315 316 313 314 314 313 314 311 310 309 308 310 311 311 310 308 308 309 307 307 306 306 306 305 304 303 303 303 302 302
310 310 308 307 308 312 314 315 321 324 326 324 323 321 322 322 322 321 320 319 318 316 318 315 313 312 313 315 312 310 308 308 308 308 308 309 310 309 308 307 308 309 309 307 305 305 306 304 303 303 302 302 302 302
308 310 313 312 311 315 320 322 321 325 323 322 322 322 322 322 322 321 319 316 312 313 315 315 311 313 313 312 312 312 309 309 308 308 307 308 308 308 307 306 306 307 308 308 305 305 304 303 302 302 302 302 302 301
313 317 320 319 315 320 322 325 324 327 325 324 323 323 322 323 322 320 317 316 317 317 318 316 311 311 314 313 312 311 310 308 307 309 309 308 305 304 305 305 304 305 306 305 304 302 304 303 302 301 301 301 301 301
317 319 319 316 316 319 321 324 325 325 323 323 323 325 326 324 321 320 320 318 317 316 316 315 314 313 312 313 312 311 311 309 310 310 310 307 304 303 303 303 304 304 304 304 304 303 302 303 302 302 302 301 301 301
319 318 320 318 323 326 328 327 327 327 326 325 325 325 325 323 321 320 320 318 318 316 314 315 315 315 316 315 313 313 313 310 310 309 305 302 304 303 303 303 304 304 304 303 303 303 303 302 301 302 301 301 301 300
318 320 323 324 328 326 324 321 325 324 325 327 324 324 325 323 321 319 320 319 319 317 315 314 315 315 315 314 313 314 312 311 311 308 304 303 302 302 302 302 301 302 302 302 301 302 302 300 300 301 301 301 301 300
318 324 326 327 329 328 326 326 324 326 326 324 324 324 324 322 320 319 319 319 318 316 316 316 315 316 313 312 312 311 311 310 310 306 305 304 303 302 302 301 300 300 300 301 301 301 301 301 300 300 300 300 300 300
320 322 322 317 324 326 324 324 325 325 325 325 324 325 325 321 321 319 319 318 317 316 317 315 315 313 312 310 308 307 309 307 306 306 305 303 302 302 301 300 300 299 299 300 300 300 301 300 300 301 300 300 299 299
316 321 322 320 323 326 325 326 326 326 325 325 324 325 323 322 320 319 318 316 316 318 318 317 316 312 310 308 307 306 305 305 305 305 305 302 302 302 301 301 301 300 299 299 300 300 301 300 300 300 300 298 297 299
318 323 325 323 322 324 327 327 327 326 326 325 325 325 323 318 318 318 316 315 316 316 314 311 308 306 305 303 302 302 302 302 302 302 301 302 302 301 301 301 300 299 299 299 299 299 300 300 299 299 299 299 298 298
322 324 325 326 325 326 327 328 327 327 325 325 324 324 319 317 318 316 315 313 314 309 307 304 303 302 302 301 300 301 301 301 301 301 301 301 301 300 299 299 298 297 297 297 298 299 299 299 299 299 298 299 298 298
324 325 325 327 327 328 329 329 327 325 324 324 325 323 321 318 315 314 313 312 308 307 305 303 302 302 301 299 298 298 298 300 301 302 302 302 300 300 299 299 300 299 298 297 297 298 298 298 298 298 298 298 298 297
322 323 326 325 327 327 328 327 328 325 323 323 322 319 318 316 313 310 310 309 308 306 304 303 303 302 301 300 298 297 296 297 297 298 300 300 299 299 299 299 299 298 298 298 297 297 296 297 297 297 297 297 297 297
323 324 325 327 327 326 326 324 323 323 323 323 321 321 320 313 308 307 308 308 305 304 303 303 302 301 300 299 298 298 297 297 297 297 298 298 298 298 299 299 299 299 298 298 298 297 297 297 297 297 297 297 297 297
324 325 327 329 329 326 324 325 326 326 325 324 323 320 317 315 314 308 305 305 305 305 302 302 302 300 298 297 296 295 295 296 296 297 298 298 298 298 298 298 298 298 298 298 298 297 297 297 297 297 297 297 296 296
328 327 327 326 327 327 325 325 325 325 324 324 323 322 320 319 319 312 305 305 306 304 303 302 300 299 298 297 296 295 294 294 294 295 294 294 295 296 297 297 297 297 297 298 298 297 297 297 297 296 296 296 296 295

GFSWCAN_925_thetae_057.txt.gz
Theta_e
305 303 303 304 309 309 310 308 307 307 307 307 307 308 308 308 309 312 313 312 315 317 316 314 313 313 313 313 315 314 315 314 312 313 316 314 316 315 314 315 313 317 316 317 317 316 315 317 315 315 317 312 312 321
304 303 303 304 309 309 311 308 308 307 307 308 308 308 308 308 309 312 315 312 312 314 316 314 314 312 312 311 313 313 314 314 312 311 311 311 314 314 313 320 314 315 316 316 314 314 317 315 315 315 312 311 312 320
304 304 303 304 309 310 311 308 308 308 308 308 308 308 308 308 308 310 315 314 314 317 316 314 316 314 312 312 311 314 315 313 312 310 309 309 311 309 316 315 315 314 312 315 315 315 313 312 312 311 310 310 313 318
304 304 304 305 309 310 312 310 308 308 309 308 308 308 308 309 308 311 315 314 314 316 320 316 314 315 312 313 312 312 312 312 311 311 311 311 312 308 312 311 312 310 310 311 312 311 309 311 311 310 310 313 317 318
304 304 304 305 309 310 311 311 310 309 310 309 308 308 309 309 309 311 314 315 314 316 320 317 316 315 312 314 313 313 313 314 316 316 312 312 309 309 310 310 312 309 309 311 312 309 309 309 309 309 310 315 315 316
303 304 304 305 309 310 310 312 310 310 310 310 310 309 309 310 310 314 317 316 315 314 316 319 319 317 316 314 315 316 315 314 315 312 313 311 309 311 312 312 310 309 308 308 308 307 308 308 308 308 310 313 313 312
303 304 304 304 307 310 310 311 311 310 311 310 310 310 310 310 312 315 318 314 311 313 315 319 322 319 317 317 317 317 314 315 314 313 316 314 312 312 312 312 310 308 308 308 306 305 307 307 308 307 309 310 310 309
303 304 304 304 305 308 311 310 312 310 311 310 310 310 310 310 311 314 315 311 310 313 315 321 322 323 318 320 319 316 317 318 316 317 314 314 313 314 313 312 311 308 307 307 307 306 306 307 306 307 307 308 309 309
303 304 304 305 306 307 310 310 312 311 310 310 309 309 312 313 316 316 312 310 311 313 318 321 322 323 320 320 319 318 316 320 316 318 317 317 316 314 315 312 312 310 308 308 307 306 306 306 307 306 306 306 307 308
304 304 305 305 306 307 310 310 312 312 310 309 310 316 321 318 314 312 313 315 314 314 316 322 318 320 321 323 322 319 318 318 321 317 315 319 317 313 310 310 311 311 309 308 308 308 306 307 306 307 306 306 306 306
304 304 305 305 306 307 309 310 313 312 310 314 321 322 318 313 315 316 321 323 322 322 322 321 319 321 319 322 323 320 320 318 320 317 316 317 318 314 311 310 310 311 310 308 307 307 307 307 307 307 307 305 304 305
304 305 305 306 307 308 309 313 313 312 319 318 317 317 319 318 321 325 323 321 322 322 320 320 318 319 320 322 323 322 322 320 320 316 316 320 316 313 311 310 310 310 310 310 308 308 307 307 306 306 306 306 304 303
304 305 306 308 311 310 311 314 312 312 313 318 321 322 324 325 327 324 329 323 321 320 319 319 318 319 323 321 322 322 322 321 317 316 323 316 316 313 311 310 310 309 309 310 310 308 307 307 306 306 306 305 306 306
305 306 306 311 311 312 313 312 309 311 313 324 324 325 324 323 322 321 321 321 321 321 322 320 320 318 323 323 321 321 320 317 317 320 319 316 316 314 311 310 310 310 309 309 310 309 308 307 306 306 306 306 305 305
306 307 308 313 314 315 310 308 310 313 320 324 323 326 323 321 320 321 322 323 322 321 320 321 321 320 324 322 318 318 316 316 316 317 315 314 314 313 314 311 311 311 310 309 308 308 308 306 306 305 305 305 305 305
306 308 314 315 312 308 308 311 312 318 321 323 323 323 321 321 322 323 324 323 321 321 321 320 320 318 317 316 318 318 317 317 316 312 311 313 314 313 312 310 310 309 309 309 308 308 307 307 306 305 305 304 304 305
309 317 315 310 308 310 313 317 320 322 324 324 323 321 322 323 324 324 322 324 322 322 322 318 319 318 317 318 318 316 316 314 311 310 309 311 311 311 310 309 309 309 309 308 308 308 307 307 305 305 305 305 304 304
313 313 311 309 310 313 317 316 322 324 325 325 323 322 324 324 325 324 323 320 319 319 319 320 316 318 317 317 317 315 314 313 310 310 310 310 310 309 309 309 307 308 309 309 309 307 307 306 306 304 304 304 304 304
308 308 309 312 311 318 322 324 323 325 324 323 323 324 324 324 325 321 319 317 318 318 319 316 316 317 316 315 315 314 311 311 310 310 310 309 310 309 308 308 307 307 308 309 309 307 306 305 304 304 304 303 303 303
311 316 319 319 314 322 323 324 326 327 326 324 324 323 325 325 322 321 319 318 317 316 316 317 317 315 314 314 313 312 313 312 311 311 311 311 309 307 307 306 306 305 306 308 307 303 306 305 304 303 302 302 303 303
317 319 318 316 317 321 322 323 326 325 324 324 324 324 324 323 321 320 319 317 316 316 315 315 315 314 314 315 315 315 315 314 315 311 312 313 307 306 306 306 306 305 306 306 306 305 303 305 304 303 303 303 302 302
321 319 323 320 323 326 327 325 326 326 327 326 324 324 323 323 321 320 320 317 316 317 316 317 319 318 320 318 316 314 314 315 314 311 308 306 307 306 306 305 305 305 305 305 305 305 305 304 303 303 303 303 303 301
318 320 325 325 327 328 328 325 327 326 326 325 324 323 323 322 321 320 321 318 318 318 316 317 317 317 316 314 314 313 313 313 314 312 309 307 306 305 304 304 304 303 304 303 303 303 304 301 302 302 302 303 303 302
319 324 326 326 328 328 327 328 326 326 326 326 324 324 323 322 322 319 319 317 316 315 316 316 315 315 313 313 311 311 309 309 309 308 308 307 306 305 304 303 303 302 302 302 303 302 304 303 301 302 302 302 302 301
325 322 324 321 326 328 327 326 326 325 325 325 324 322 322 322 320 319 317 315 315 316 317 316 314 313 312 310 308 307 307 306 306 308 308 306 305 304 303 302 302 302 301 302 302 302 302 302 302 303 301 301 301 301
320 323 323 322 323 326 326 326 325 326 325 324 324 325 324 321 318 318 317 316 315 315 314 313 311 309 308 306 305 305 304 304 305 307 306 304 304 304 304 304 303 302 301 301 301 302 301 302 302 301 301 300 298 301
323 323 325 324 325 326 327 327 327 325 326 324 323 325 322 319 319 319 318 316 315 312 310 307 306 306 305 304 303 303 303 303 303 303 304 303 302 302 302 302 302 300 300 300 300 301 301 301 301 301 301 300 300 300
322 323 326 327 326 326 328 327 327 326 324 324 324 324 322 320 320 319 317 314 311 309 307 305 305 304 303 302 301 302 303 303 303 303 302 301 300 300 300 300 299 297 298 299 300 301 301 301 300 300 300 300 300 299
324 323 324 327 327 328 328 327 326 325 325 325 325 324 324 321 318 317 315 313 311 310 307 306 305 305 303 301 300 300 300 301 303 305 304 302 301 300 300 300 300 300 299 298 298 298 298 299 299 299 299 300 299 299
324 325 326 326 326 327 327 325 326 328 326 325 325 323 321 319 316 315 314 312 312 310 307 305 304 304 303 302 301 300 299 299 300 301 303 303 301 300 300 300 300 300 299 299 298 298 298 298 298 299 299 299 299 299
323 324 326 326 325 326 326 327 326 326 326 326 325 325 324 320 313 312 313 313 311 309 306 305 304 303 302 301 301 301 301 299 300 300 300 300 300 300 300 300 300 300 299 299 299 299 299 299 299 299 299 298 298 298
324 325 326 326 327 329 327 327 328 328 328 327 326 324 322 318 317 313 311 311 310 310 305 305 304 302 300 299 298 298 299 300 300 300 300 300 300 300 299 299 299 300 299 299 299 299 299 299 298 298 298 298 298 297
325 326 326 326 324 328 328 327 327 327 326 326 326 326 324 322 323 317 310 310 311 310 307 305 303 301 300 299 298 297 298 297 296 296 297 297 297 297 299 299 299 299 299 299 299 299 299 298 298 298 298 297 297 297

GFSWCAN_925_thetae_060.txt.gz
Theta_e
312 306 304 304 305 309 309 309 308 308 308 308 308 308 308 308 312 313 316 316 317 319 317 316 315 315 315 314 317 315 316 315 314 315 315 314 315 315 314 314 315 317 320 320 318 317 318 317 316 316 319 318 317 316
311 306 303 303 306 309 310 310 309 308 308 308 308 308 308 308 311 311 318 316 315 317 317 316 316 314 314 314 315 315 316 314 313 313 312 311 315 313 314 318 313 320 317 320 315 315 318 316 315 315 314 315 315 314
312 305 303 304 305 309 310 311 309 308 308 308 308 308 308 308 308 308 315 317 316 318 319 316 316 315 314 313 313 316 316 314 314 311 312 312 313 310 315 314 313 311 311 314 313 315 312 313 313 312 311 312 313 313
313 305 303 304 305 309 310 311 310 309 309 308 308 308 308 308 309 308 314 317 316 317 320 320 316 316 315 314 313 313 313 312 312 312 313 312 313 309 313 312 313 311 311 311 312 311 309 312 309 309 310 309 311 311
310 304 303 304 305 309 310 311 311 310 310 310 309 308 309 309 309 311 316 317 317 317 320 319 318 317 317 315 315 314 313 315 318 318 316 315 312 311 311 308 312 310 309 310 312 309 308 308 309 308 307 308 309 314
307 304 303 304 305 307 310 310 311 311 310 310 310 309 309 310 310 315 320 317 316 316 317 320 319 319 318 316 315 316 315 316 316 316 314 312 311 312 314 314 311 311 311 308 307 305 307 308 307 306 307 309 311 311
306 303 304 304 305 306 308 310 311 311 311 311 310 310 310 310 311 317 319 316 313 313 317 320 322 320 319 318 317 317 316 317 316 316 319 316 315 311 315 314 312 309 310 309 307 306 307 308 307 307 307 307 309 309
305 303 304 305 305 306 307 309 310 312 310 311 310 310 310 310 311 315 316 314 313 315 316 321 321 325 320 322 323 318 319 320 318 320 317 315 314 315 313 314 313 310 309 309 308 308 307 306 306 306 305 306 307 307
304 304 304 305 305 306 306 309 310 312 311 310 310 309 311 312 317 318 315 313 312 315 320 321 320 323 322 322 321 319 318 323 319 321 319 318 317 311 314 312 314 312 310 308 308 307 307 308 307 306 305 305 306 306
304 304 304 305 305 306 306 309 310 312 311 310 311 317 321 319 317 315 313 315 315 315 317 322 319 322 322 325 325 322 320 319 323 320 316 321 318 315 314 312 312 313 311 309 309 309 308 308 309 307 305 305 305 306
304 304 304 305 306 306 307 308 311 312 310 313 321 323 320 316 317 317 322 324 325 325 322 322 322 322 320 325 327 322 322 323 323 320 318 323 322 317 313 312 311 313 311 309 309 310 308 308 307 308 306 304 304 304
304 304 305 306 307 308 308 308 312 312 320 318 316 316 320 321 323 325 328 325 323 325 324 322 322 321 323 326 325 323 323 323 322 318 317 323 319 316 313 312 312 312 312 312 310 308 308 308 307 307 308 307 306 306
304 305 306 307 309 312 310 311 313 313 312 318 321 323 326 325 324 327 327 327 327 323 324 323 323 322 324 324 325 323 321 322 319 319 325 317 319 318 314 312 311 311 311 311 311 310 309 308 307 307 307 307 307 307
305 305 306 307 312 312 312 312 309 309 313 324 327 323 325 325 325 324 324 326 326 323 325 323 324 324 322 323 319 319 321 319 321 321 318 319 316 314 313 313 313 312 312 311 311 311 310 309 307 306 306 307 307 307
305 306 307 309 313 314 310 308 308 311 319 324 325 324 323 323 323 324 324 326 324 323 323 322 322 322 320 318 318 320 319 318 320 318 316 315 316 315 314 314 313 313 312 311 310 310 309 308 307 306 306 306 306 306
306 309 313 314 314 312 309 310 311 318 321 323 323 323 324 324 325 325 326 324 322 322 322 321 321 322 320 320 320 319 318 320 317 313 312 315 315 313 312 311 310 310 311 310 311 310 309 308 307 306 306 306 306 305
308 317 315 312 310 311 312 317 321 323 324 324 325 324 325 326 326 326 323 319 318 319 320 320 321 320 319 319 319 317 317 317 316 314 312 313 313 312 311 311 310 309 310 311 311 310 309 308 307 307 306 306 306 306
314 314 312 310 309 316 318 317 322 323 325 326 327 325 325 327 326 322 320 320 319 318 318 318 318 317 317 317 319 316 315 313 313 312 312 312 311 311 310 310 309 308 308 312 309 310 309 308 307 307 305 305 305 306
308 308 307 308 310 315 324 324 323 326 326 326 326 324 325 325 324 321 321 320 319 319 319 318 317 317 316 315 317 314 313 313 313 312 313 312 310 312 310 309 308 308 309 309 310 308 308 307 306 305 304 304 305 303
309 312 316 319 314 322 325 324 325 326 327 326 325 325 324 324 324 322 320 320 318 316 316 317 318 316 315 315 316 316 317 316 315 317 313 314 311 311 310 308 308 307 307 308 309 306 308 307 305 305 303 303 304 304
318 320 318 317 315 321 323 324 329 328 328 324 327 324 324 324 322 321 320 318 317 317 317 317 317 317 318 317 316 316 316 316 320 319 316 315 310 308 308 307 307 307 305 307 305 307 305 307 305 305 304 304 303 302
323 320 322 320 323 325 325 323 325 328 328 327 327 326 327 323 322 321 320 319 317 315 317 317 317 317 316 317 315 315 313 315 314 315 312 310 310 308 308 307 306 306 306 306 304 304 306 306 304 304 304 304 304 302
318 319 324 325 325 326 326 325 327 327 327 327 328 325 323 321 323 321 320 317 318 317 317 318 317 318 318 315 314 314 313 312 314 313 312 308 308 306 305 305 304 305 305 304 305 305 305 303 303 303 304 304 304 303
320 322 325 324 326 327 327 329 328 326 327 327 326 324 324 322 323 321 317 316 316 316 316 316 314 315 313 313 312 311 308 307 311 310 310 309 308 307 305 304 303 303 303 303 304 303 303 302 303 304 303 303 303 303
320 322 323 319 327 329 330 328 328 328 327 327 325 323 321 321 320 319 317 315 315 315 315 314 313 311 310 309 307 306 305 305 306 310 308 307 306 306 305 304 303 302 302 302 303 304 302 302 303 303 302 301 301 302
320 322 323 324 324 326 326 327 328 329 325 324 325 327 323 323 321 320 319 317 315 313 312 311 310 309 308 306 306 306 305 305 307 306 305 304 303 303 304 304 303 302 301 302 303 303 302 302 302 302 301 301 301 302
321 322 324 323 326 326 328 328 326 324 324 325 326 326 322 322 321 321 320 318 316 311 309 307 307 306 305 305 305 305 305 304 305 304 303 302 302 302 302 302 302 300 301 302 303 302 302 302 302 302 301 301 301 301
322 324 326 326 325 326 327 327 324 326 327 326 326 327 327 321 321 321 320 316 313 309 308 307 306 305 304 303 302 303 305 305 304 304 303 302 301 301 301 300 299 298 299 300 302 302 301 302 301 301 301 301 301 300
323 323 324 326 326 328 327 326 326 327 326 323 328 327 325 324 321 319 317 315 313 311 309 308 307 306 305 303 302 301 302 303 306 306 305 304 303 301 301 301 301 300 299 298 297 298 297 298 298 300 300 300 300 300
322 323 324 325 327 328 328 324 326 326 323 323 324 325 323 321 319 318 316 314 315 313 309 307 306 305 305 304 303 302 301 302 302 304 304 304 302 301 301 301 301 300 300 300 300 299 299 299 300 300 300 300 300 300
323 324 324 325 327 327 324 321 325 324 325 324 324 323 325 323 318 316 316 316 315 312 308 307 306 304 304 304 303 303 302 302 302 302 302 302 302 301 301 301 301 301 301 300 300 300 300 300 300 300 300 299 299 299
323 324 325 327 328 325 325 325 325 327 328 326 325 325 324 321 320 316 314 314 314 313 308 307 306 304 302 301 301 301 302 302 302 302 302 302 302 301 301 301 301 301 301 300 300 300 300 300 299 299 299 299 298 299
323 324 325 328 325 326 326 327 325 325 324 324 326 327 325 324 324 318 314 313 314 313 310 307 305 303 302 302 301 300 301 299 298 298 298 299 299 299 300 301 300 300 301 301 300 300 300 300 300 299 299 299 299 299

GFSWCAN_925_thetae_063.txt.gz
Theta_e
324 319 308 304 304 307 309 311 310 308 308 308 308 308 308 309 313 315 318 317 316 321 318 317 315 316 315 315 316 315 317 314 313 314 313 315 313 312 311 313 314 317 317 319 318 317 317 314 317 318 316 314 314 314
324 318 308 304 304 306 309 310 310 309 308 309 309 308 308 309 309 310 317 318 317 319 319 317 317 315 314 314 314 315 316 313 312 314 312 311 312 311 311 313 310 316 312 313 316 316 312 310 312 311 310 310 311 310
323 316 307 304 305 306 309 310 311 310 309 309 309 309 308 308 308 308 312 317 318 319 319 319 318 316 315 314 313 317 315 314 313 311 311 311 308 310 310 310 311 311 310 312 310 313 310 308 309 309 308 309 308 308
322 315 306 304 305 305 309 310 311 311 310 309 308 308 308 308 309 309 311 315 318 318 321 320 317 317 316 314 313 313 313 314 312 312 314 312 312 310 311 310 310 311 309 308 310 310 307 309 307 308 308 307 306 308
321 313 305 304 304 305 307 310 311 311 311 310 310 309 309 309 310 311 314 317 317 317 320 319 317 317 317 317 315 314 313 314 316 315 315 314 310 310 310 309 309 310 311 308 310 307 307 306 306 307 308 307 307 308
319 309 304 304 304 305 306 308 310 311 311 311 311 310 310 310 310 314 321 317 316 316 318 320 319 320 318 316 316 315 314 313 316 317 316 313 312 311 313 311 311 311 311 307 308 306 306 307 307 306 306 307 307 308
316 307 304 304 305 305 306 307 309 310 311 311 311 311 311 310 310 315 319 316 314 314 317 320 323 320 319 318 317 317 316 316 316 317 319 316 313 312 315 312 311 312 310 309 308 307 308 307 306 305 305 305 305 307
311 305 304 304 305 305 306 306 308 310 312 311 311 310 310 310 310 312 315 316 315 315 316 321 323 325 320 321 323 317 318 318 318 319 318 318 315 313 311 312 312 312 311 310 308 308 307 307 307 306 305 304 305 305
307 304 304 304 305 305 306 306 309 310 312 310 310 310 310 311 316 318 316 314 314 314 318 322 324 325 322 323 321 320 319 323 320 321 319 318 312 307 307 313 312 311 311 310 308 308 308 308 308 306 305 304 304 305
305 304 304 304 305 306 306 306 309 311 312 310 310 315 319 319 317 317 313 315 314 314 315 319 319 321 321 325 324 322 321 321 322 321 319 313 313 311 313 315 313 311 311 310 309 309 308 308 308 307 305 305 304 305
304 304 304 304 305 306 307 307 308 312 310 313 318 321 320 318 318 318 320 321 321 322 320 321 323 323 322 325 320 322 322 321 323 322 320 320 322 317 316 315 314 314 312 310 309 308 308 308 308 307 306 305 306 306
304 304 304 305 306 308 309 308 309 312 318 318 315 316 318 321 322 324 328 326 323 326 321 320 323 322 324 323 321 320 320 319 321 318 320 318 319 316 316 315 314 314 312 312 310 309 309 309 308 308 307 306 306 306
304 304 305 306 308 309 311 309 310 314 313 314 319 324 324 326 325 328 327 328 325 323 322 323 325 324 324 323 321 317 318 321 316 320 317 317 314 316 315 314 314 313 313 312 312 311 310 308 308 309 308 307 307 307
304 305 306 306 310 312 312 312 311 308 311 321 327 319 328 328 329 327 325 326 324 322 320 321 324 324 323 320 318 319 321 319 321 320 319 315 314 313 313 314 315 314 311 312 312 311 311 308 307 308 307 306 307 307
304 306 307 308 310 313 310 308 308 308 316 324 326 321 325 325 322 324 324 324 325 322 321 323 323 323 322 321 320 320 320 320 318 316 316 315 314 314 314 314 314 313 312 311 310 311 310 309 307 307 307 307 307 306
306 308 315 312 314 313 310 310 309 315 321 323 324 324 325 327 328 324 327 322 320 320 320 321 321 319 321 321 319 318 318 318 318 316 314 315 314 314 314 314 313 311 313 311 310 307 310 308 309 306 306 306 306 307
308 315 314 311 310 312 312 317 318 322 323 325 327 326 325 326 327 325 324 321 319 318 319 320 320 319 320 317 318 318 317 317 316 315 314 314 313 313 314 313 314 310 312 311 312 311 308 309 307 306 307 307 306 308
314 314 312 310 307 313 317 315 322 323 325 326 327 328 327 329 327 323 322 322 322 320 320 318 318 317 317 316 319 318 316 315 315 315 315 314 313 312 311 313 311 310 311 312 310 310 309 309 309 307 305 305 305 307
307 307 306 307 307 314 324 324 321 325 328 329 327 326 326 325 324 321 323 323 321 321 322 320 319 320 318 317 318 316 316 316 315 315 312 311 310 310 311 310 310 311 312 312 311 310 307 308 308 305 305 305 303 304
308 314 312 314 313 318 326 327 325 329 328 330 327 323 321 327 325 324 323 321 323 321 320 319 320 320 319 318 318 318 317 317 317 316 315 314 311 310 309 309 309 308 307 306 305 305 306 308 307 304 304 304 304 303
315 320 319 317 315 318 323 326 329 329 329 328 326 328 329 326 325 322 322 321 319 320 319 320 319 319 319 319 317 315 318 317 316 315 315 315 311 310 306 306 305 308 309 308 307 307 306 306 305 304 303 304 304 303
321 321 321 318 322 325 327 324 326 329 327 328 323 323 327 326 325 323 322 322 320 320 320 321 321 319 320 319 318 315 315 314 313 313 311 309 311 309 306 305 304 304 307 306 305 305 304 304 304 304 304 305 302 302
317 318 321 325 328 322 324 326 330 331 330 329 329 330 328 327 325 324 324 322 321 322 320 320 318 317 320 318 316 316 312 313 313 312 311 308 307 307 306 304 303 304 305 305 304 304 304 303 304 304 304 304 303 303
317 320 326 328 326 323 327 330 328 328 328 325 327 328 325 328 326 325 319 319 320 320 320 320 316 318 314 311 313 308 306 308 310 310 308 308 308 306 305 304 302 302 304 304 304 304 304 304 303 303 303 303 303 303
317 318 321 313 325 329 328 330 326 328 329 328 329 328 326 328 327 322 320 319 318 317 318 316 313 312 310 309 308 307 307 309 307 307 306 306 306 305 305 304 303 303 303 302 302 302 302 302 303 302 300 301 302 303
316 322 319 324 324 326 328 330 329 327 326 328 328 327 326 326 323 322 323 321 318 316 314 312 311 310 308 307 307 306 306 306 304 304 303 303 303 304 304 303 302 303 303 303 303 304 303 303 303 301 300 301 302 302
318 321 325 325 324 328 327 327 326 326 329 328 329 326 325 325 322 324 323 319 315 310 308 307 307 306 306 306 306 305 305 304 303 302 302 302 302 302 302 301 300 302 302 302 303 304 303 303 302 302 302 302 302 302
320 322 325 328 327 326 328 329 328 329 329 327 325 327 326 326 324 325 319 313 309 309 308 307 306 305 303 303 303 305 305 305 304 302 302 301 301 300 299 299 299 300 300 301 302 302 302 301 301 301 301 301 301 300
320 321 323 326 326 327 328 330 327 326 324 326 329 328 327 327 322 319 316 314 311 310 309 308 307 305 304 303 302 302 302 304 307 308 306 303 302 301 301 301 300 299 298 297 298 298 297 297 299 300 301 301 301 301
318 319 322 325 327 330 328 327 327 325 326 324 325 324 323 322 320 318 316 315 315 313 308 307 306 306 305 304 303 302 303 303 303 304 305 304 302 301 301 301 301 300 300 299 299 299 300 300 300 300 300 300 300 300
319 322 325 327 327 328 327 325 323 323 323 324 323 325 325 323 319 318 317 316 315 310 308 307 306 304 304 305 304 304 303 303 302 302 302 303 302 302 301 301 301 301 301 300 300 300 300 300 300 300 300 299 299 299
322 325 326 328 329 328 325 324 325 326 326 325 322 324 324 324 322 320 316 316 315 313 309 308 305 303 303 303 303 303 303 302 302 302 302 302 302 302 301 302 301 301 301 301 300 300 300 300 300 300 299 299 299 299
324 324 326 330 329 328 325 327 327 329 327 325 325 327 326 326 325 321 315 315 315 314 310 306 303 302 302 302 302 302 302 301 300 300 300 301 301 300 300 301 301 301 301 301 301 301 301 300 300 300 300 300 299 299

GFSWCAN_925_thetae_066.txt.gz
Theta_e
325 323 323 309 304 305 308 309 311 310 309 309 308 308 309 313 312 315 318 317 316 313 312 315 313 313 311 309 310 310 311 308 306 304 303 302 306 309 308 309 311 314 316 315 316 315 315 311 313 316 313 309 309 309
324 323 322 310 304 305 308 309 311 310 310 309 309 308 308 308 308 310 316 317 317 315 313 317 317 314 314 312 309 309 309 308 306 303 305 298 308 308 305 303 308 312 309 309 311 316 312 308 308 308 307 306 307 306
323 322 319 309 304 304 307 309 310 311 310 310 309 309 308 308 308 308 309 313 316 311 311 313 315 317 315 314 313 311 308 308 308 305 304 304 303 306 308 307 309 308 307 307 306 309 309 306 307 305 306 307 307 307
322 323 318 307 304 305 306 309 310 311 311 310 309 308 308 308 309 309 311 313 315 314 314 313 316 316 316 315 313 313 311 312 308 307 307 310 307 304 305 304 308 305 307 305 305 305 305 307 306 305 306 307 307 306
322 322 314 305 304 305 306 308 310 310 311 311 310 310 310 309 310 311 315 317 317 314 314 312 315 315 316 313 313 312 312 308 308 309 313 312 304 306 307 307 309 306 305 304 304 304 305 306 306 305 306 305 306 307
322 321 310 304 304 305 306 307 308 309 311 311 311 311 311 310 311 315 316 315 316 315 313 314 313 315 316 315 313 311 312 311 313 311 315 312 305 304 305 310 305 305 306 303 305 304 304 304 305 306 305 306 305 306
322 318 306 303 304 305 306 306 307 309 310 311 310 311 311 311 311 312 314 315 315 315 315 315 313 313 316 315 313 312 312 311 310 315 314 309 308 309 304 307 306 306 307 306 304 305 306 306 306 306 306 305 305 305
321 312 304 303 304 305 305 306 307 309 310 311 310 310 310 310 310 312 315 314 315 314 314 316 315 317 316 315 317 314 315 315 315 314 311 313 309 307 310 308 305 308 309 307 306 305 304 305 305 306 305 304 305 305
319 308 304 304 304 305 305 306 307 310 310 311 310 310 311 312 313 316 315 316 314 314 316 317 319 319 318 318 319 318 316 319 316 316 314 314 308 311 309 305 308 308 308 307 307 307 306 306 306 305 304 304 305 305
313 305 304 304 304 305 306 306 306 309 312 310 311 314 316 317 317 315 313 313 312 312 312 315 315 318 316 317 319 317 317 320 320 318 316 313 311 309 307 305 309 308 306 306 306 306 306 306 306 305 304 304 304 305
307 304 304 304 305 305 306 307 307 310 311 313 314 315 319 316 316 316 317 317 317 320 315 316 319 319 316 319 319 315 320 312 313 320 320 318 318 317 312 310 308 308 307 306 306 306 305 305 305 305 304 304 305 305
305 304 304 304 305 308 309 310 308 311 316 317 314 314 315 316 318 321 322 324 320 320 320 316 316 319 320 317 316 314 317 313 319 316 314 312 316 314 314 314 312 310 309 310 309 307 307 307 307 306 305 305 305 305
304 304 304 305 306 311 309 309 308 312 313 312 315 320 321 320 322 327 325 323 321 319 317 316 318 322 317 314 312 315 317 319 315 312 313 313 313 312 312 313 313 312 312 311 310 310 310 308 308 307 307 306 307 307
304 304 305 305 306 311 311 311 310 308 310 315 323 317 323 325 327 325 320 317 317 319 319 315 317 319 314 314 314 317 316 313 317 317 315 310 312 312 311 312 313 312 311 310 311 311 311 310 307 307 307 306 306 306
304 305 306 309 309 311 310 311 310 309 313 319 322 318 324 322 322 321 320 318 318 316 317 316 316 315 315 316 315 314 317 315 315 312 309 309 307 308 308 308 308 308 308 308 309 309 308 309 308 305 306 306 306 306
305 308 313 312 312 311 310 311 309 310 317 319 320 321 322 324 325 321 319 319 314 311 312 312 315 315 316 314 315 315 315 313 312 310 308 308 307 307 307 307 307 308 309 308 309 308 308 308 308 307 305 306 306 306
307 314 313 310 308 308 313 316 314 316 321 323 323 322 323 323 324 322 320 315 314 311 313 313 316 317 312 314 315 313 311 310 308 309 310 308 307 307 307 308 309 309 308 308 307 307 308 308 308 306 304 305 307 306
314 313 312 310 306 311 316 314 318 324 325 321 323 325 323 320 321 318 317 315 314 314 313 315 312 314 314 315 312 311 309 308 308 309 308 309 309 311 310 310 309 307 308 309 309 307 306 306 307 304 304 306 306 305
307 307 306 306 306 311 318 320 318 321 322 325 323 322 321 321 320 319 316 316 315 314 314 312 314 313 312 311 312 311 310 309 309 308 307 309 309 309 309 310 309 307 306 306 306 307 306 306 306 305 305 304 305 305
307 313 316 312 310 312 320 322 322 324 325 324 322 319 319 318 319 317 317 315 316 312 313 314 313 312 312 311 310 310 310 308 309 308 308 307 308 309 308 307 306 305 304 305 305 306 306 305 304 304 303 305 305 304
312 318 318 317 314 313 317 320 324 326 323 322 321 322 322 323 321 318 316 313 311 312 314 312 312 311 314 315 314 312 313 311 309 308 308 305 306 305 305 306 306 305 305 306 304 305 305 304 304 303 303 303 304 305
315 320 319 316 318 322 318 321 319 325 324 323 322 319 322 322 320 318 314 316 313 311 311 313 312 310 313 313 313 313 314 314 311 309 308 306 302 302 303 303 303 304 305 304 304 304 305 304 303 304 303 303 303 304
316 317 318 322 323 317 317 324 325 325 328 323 323 325 324 324 319 315 318 314 313 314 315 314 315 315 315 316 310 306 310 310 307 306 306 306 305 304 303 302 304 305 303 303 303 303 303 303 303 303 302 302 302 303
316 318 322 325 322 315 322 326 324 325 325 323 325 326 324 322 319 319 316 314 314 315 312 313 311 306 306 305 302 304 309 309 307 306 306 305 303 303 303 303 304 304 304 304 303 303 303 303 303 304 302 303 302 302
314 316 316 310 319 327 327 327 327 325 326 326 327 325 323 322 321 320 315 313 313 312 311 307 305 303 303 302 304 307 306 304 303 302 306 305 304 304 302 304 303 302 302 302 302 302 303 303 300 300 302 302 302 302
313 317 317 323 322 325 327 328 328 327 325 328 326 324 322 323 322 320 316 312 310 307 305 304 302 302 301 303 301 303 303 302 302 302 303 303 303 301 300 300 301 302 303 302 302 303 302 301 301 301 302 302 302 302
315 321 320 319 321 324 326 326 325 323 327 328 325 326 324 325 323 320 314 309 306 307 306 305 305 304 303 304 305 304 303 303 302 302 303 302 302 300 301 301 301 302 303 303 302 303 302 301 302 301 302 301 301 301
319 319 323 321 324 324 327 328 328 326 328 327 325 327 326 326 322 317 311 309 307 307 305 304 304 303 304 305 305 304 303 302 302 301 300 299 299 299 299 300 302 302 301 302 302 301 301 301 301 301 300 300 300 301
319 318 319 320 322 327 327 330 326 325 323 325 328 327 326 322 317 311 309 308 308 307 306 304 303 303 302 302 302 304 304 302 301 299 298 297 298 299 299 299 298 297 298 300 299 297 298 300 301 300 300 300 300 299
315 314 316 319 324 329 327 325 325 321 321 322 322 322 320 317 316 314 311 309 309 307 307 306 304 303 302 302 302 302 302 303 304 302 299 297 300 301 300 300 299 298 298 299 300 300 300 300 300 300 300 300 300 300
313 315 316 319 326 326 325 322 322 322 322 323 322 323 323 320 318 316 315 315 311 307 306 305 304 303 303 302 302 302 301 302 303 302 301 301 301 301 301 301 300 300 299 300 300 300 300 300 300 300 299 299 299 298
316 317 317 326 326 325 324 324 323 325 324 322 322 321 322 321 318 314 317 315 308 307 307 304 303 303 303 303 303 302 302 302 302 302 302 301 301 301 301 301 301 300 300 300 300 300 300 299 300 299 299 299 299 299
319 318 327 326 326 326 324 325 326 327 326 325 323 322 321 323 323 317 316 316 315 309 306 303 302 302 302 303 302 302 302 302 302 302 301 301 301 301 301 301 301 301 301 301 300 300 300 300 300 300 299 299 299 299

GFSWCAN_925_thetae_069.txt.gz
Theta_e
324 324 322 322 312 304 305 309 310 310 310 309 308 308 309 310 309 317 316 316 315 310 311 313 311 311 310 307 309 308 308 305 303 302 300 298 299 299 304 306 311 308 310 305 313 312 312 309 310 315 311 307 307 308
324 322 321 321 308 304 305 308 310 311 310 310 309 308 308 308 308 311 316 315 316 313 312 316 316 316 313 311 306 305 305 305 303 301 299 296 308 307 303 302 306 308 307 306 310 310 309 308 307 306 306 306 305 305
323 321 321 319 306 304 305 307 309 311 311 310 309 308 308 308 308 309 310 313 315 308 310 312 313 316 314 313 313 309 306 305 305 301 300 300 299 299 305 303 306 306 305 305 305 305 307 307 305 305 304 305 305 305
322 322 322 315 305 304 305 306 308 310 311 311 310 310 309 309 309 311 312 313 314 310 312 311 314 314 315 314 313 313 309 307 305 303 303 303 300 301 298 301 303 302 304 303 302 302 304 306 306 305 304 305 305 305
322 322 321 312 304 304 305 305 306 309 311 311 311 311 311 310 310 311 316 316 315 313 312 310 312 315 315 314 313 312 310 305 306 307 307 308 302 303 305 307 307 304 305 303 302 301 302 302 304 304 305 306 304 306
322 321 320 309 304 304 305 305 306 308 309 311 311 311 312 311 311 314 315 314 315 315 313 312 310 311 313 314 311 310 309 307 308 309 309 309 305 306 303 303 304 303 303 301 303 301 302 302 303 304 305 306 305 305
322 321 318 306 304 305 305 305 306 307 309 310 311 311 311 311 310 311 313 315 314 314 313 314 310 310 313 311 309 309 310 310 311 312 312 310 308 307 305 303 305 303 304 304 302 303 305 304 304 304 305 306 304 304
321 321 314 305 304 304 305 305 306 309 309 310 311 310 310 310 310 313 315 314 314 313 313 316 312 313 314 313 316 312 314 313 314 315 313 313 309 310 310 307 306 305 305 305 305 303 304 303 304 303 305 305 304 305
320 318 308 304 304 304 305 305 306 308 310 311 310 310 311 311 312 315 315 316 313 314 314 314 316 320 315 316 317 317 315 319 316 317 316 313 309 311 310 308 308 306 308 308 306 305 304 304 304 304 303 303 303 304
318 313 305 303 304 304 305 305 306 307 312 310 311 313 313 316 316 315 313 311 310 309 312 313 311 316 314 317 319 318 316 318 319 318 315 315 312 312 310 308 306 306 307 306 307 307 305 305 304 304 304 303 302 304
315 306 304 304 304 305 306 307 308 307 311 314 313 312 316 314 315 314 315 315 317 316 310 310 312 315 315 321 320 316 317 312 315 317 315 311 311 313 313 312 307 307 307 305 305 304 304 303 303 303 303 304 304 304
307 304 304 304 305 306 310 309 309 309 314 316 314 313 314 314 315 320 320 322 319 318 315 316 314 314 315 314 318 315 317 314 318 313 313 312 312 313 313 313 313 310 309 308 307 307 306 305 306 305 304 304 305 305
304 304 304 304 305 310 308 309 307 312 312 311 312 316 320 318 323 326 324 319 318 315 314 315 316 315 315 311 310 312 317 318 315 313 315 311 309 311 312 312 313 312 311 311 310 309 308 308 308 307 306 306 306 305
304 304 304 305 305 308 310 310 309 308 309 313 319 315 320 323 324 322 319 317 314 315 315 313 314 314 311 312 311 316 315 310 314 311 311 308 307 308 309 310 311 312 311 311 310 310 310 310 309 309 307 306 305 305
304 305 306 309 310 309 309 310 310 309 310 316 319 317 321 322 321 321 318 316 315 314 313 314 314 312 312 314 312 311 316 313 311 309 306 306 306 305 305 306 306 306 307 306 308 309 310 309 308 308 307 306 305 305
305 310 311 312 311 310 309 311 310 309 314 315 317 318 320 322 322 321 318 317 314 308 310 309 312 313 314 311 313 314 313 311 309 307 306 305 305 305 305 306 307 307 307 306 307 309 309 306 307 307 307 304 305 305
308 315 312 310 307 307 312 313 312 313 318 321 321 320 322 321 321 319 317 315 310 309 311 310 314 315 310 312 313 310 310 308 307 309 309 306 305 304 307 308 309 308 308 307 306 306 306 307 306 306 304 305 306 305
315 313 312 310 306 307 314 313 316 321 323 320 322 324 321 320 317 316 314 312 311 311 310 313 309 313 312 313 310 309 307 306 306 307 305 304 305 307 309 307 308 308 307 308 308 307 308 306 306 305 303 304 305 305
306 307 306 306 306 307 314 317 314 318 319 321 321 320 319 317 315 316 314 314 311 310 310 309 312 310 310 307 309 308 307 306 307 306 304 306 306 306 308 309 309 306 304 305 306 306 307 306 304 303 303 304 304 304
307 308 311 315 310 308 315 318 319 319 322 321 320 318 316 316 315 314 315 313 311 309 311 312 311 309 308 308 306 307 307 305 305 306 305 303 306 306 305 304 304 304 304 304 304 304 303 303 303 302 301 303 304 304
309 316 317 314 311 311 314 316 320 321 322 321 318 317 318 317 318 316 314 308 309 310 311 309 309 308 309 310 310 310 309 308 305 305 305 303 303 303 304 305 305 304 304 304 303 304 303 303 304 303 303 302 303 304
310 318 318 315 316 317 314 316 315 317 320 319 319 316 319 321 319 317 311 312 309 308 307 309 309 306 310 311 312 311 311 309 307 306 305 303 300 300 301 303 302 302 303 303 303 304 304 303 303 303 303 303 304 304
314 317 317 318 320 315 316 320 323 322 326 322 319 323 322 321 318 312 315 312 310 309 311 310 311 311 310 310 307 310 310 308 304 305 304 303 301 302 303 303 304 303 301 302 302 303 303 303 303 302 301 301 303 303
313 315 319 322 320 316 318 323 321 322 322 322 322 325 324 319 315 315 317 312 310 311 309 308 305 301 302 304 302 306 307 306 305 304 303 302 300 300 301 303 304 303 302 303 302 303 302 303 302 303 302 302 302 301
311 314 314 309 316 324 324 327 326 322 322 322 325 325 322 318 320 319 316 310 312 311 307 304 302 301 302 301 303 305 306 306 305 303 304 302 301 302 302 302 302 302 302 302 302 302 300 301 302 301 301 301 301 301
312 315 315 321 320 321 323 326 325 324 323 325 325 321 319 321 322 320 314 310 308 305 302 302 301 301 301 305 301 300 302 306 306 303 302 302 302 301 300 299 299 301 302 302 302 300 300 301 302 301 301 301 301 301
314 318 317 314 317 321 322 323 322 320 324 327 324 324 322 324 323 318 310 306 304 305 306 305 304 303 303 303 302 302 302 303 302 302 302 301 301 301 301 301 301 302 302 302 302 301 301 301 301 301 301 301 301 301
317 317 321 318 319 320 325 323 324 324 322 323 322 325 326 324 322 315 309 307 307 306 305 305 305 305 305 305 304 302 301 301 302 302 300 300 300 299 300 302 301 301 302 302 301 301 301 301 301 301 300 300 301 300
315 315 315 317 317 322 324 325 325 322 320 320 323 322 321 320 317 309 309 307 305 304 302 302 303 304 304 304 303 302 301 301 299 296 296 294 296 298 299 300 300 300 300 299 297 299 300 301 300 300 300 299 299 300
311 312 313 314 317 324 326 321 322 319 317 319 319 319 319 315 316 311 308 306 304 303 303 302 301 301 300 301 301 301 301 301 301 300 296 295 297 299 299 298 298 297 298 298 299 299 299 300 300 300 300 299 299 299
309 310 312 311 315 321 323 320 318 319 319 320 319 321 320 318 315 312 309 308 307 305 304 302 301 301 300 300 301 300 300 301 301 301 301 301 300 300 300 300 299 299 299 299 299 300 299 299 299 299 298 298 299 299
310 312 313 315 324 323 320 322 320 320 320 319 318 318 319 318 318 312 314 311 309 305 305 304 302 301 302 301 302 302 302 303 303 302 301 300 301 301 300 300 300 300 299 299 299 299 300 300 299 299 299 298 298 298
313 314 322 323 322 323 322 322 323 324 323 322 321 320 319 320 321 316 314 313 310 307 306 305 305 305 303 302 302 302 302 302 302 301 301 301 301 301 301 301 301 300 300 300 300 299 299 299 299 299 299 299 298 298

GFSWCAN_925_thetae_072.txt.gz
Theta_e
322 323 323 320 320 310 304 306 309 311 310 309 308 308 308 309 309 316 315 315 315 309 309 310 310 309 308 306 308 307 307 304 301 300 300 300 297 303 300 304 309 306 303 306 308 309 312 309 309 314 309 307 307 306
321 322 318 317 317 305 304 306 309 311 311 310 308 308 308 308 308 309 315 312 315 312 310 314 314 313 312 309 305 303 305 304 301 300 298 295 299 302 302 300 303 304 305 306 307 307 307 307 307 305 305 305 305 305
321 321 318 319 313 304 304 306 309 310 311 311 310 308 308 308 308 310 311 312 314 308 308 311 312 315 315 313 312 307 304 303 302 299 298 297 301 296 301 299 304 304 302 305 304 303 304 306 305 304 304 304 304 303
322 322 321 320 310 304 304 306 308 309 311 311 311 310 310 309 310 311 313 314 314 307 311 309 313 313 314 313 312 311 307 305 302 300 301 301 300 299 297 298 300 301 303 303 301 301 301 303 305 305 304 304 304 304
322 322 322 319 307 303 304 305 307 308 309 311 311 311 311 311 311 313 315 315 314 312 311 310 311 313 314 312 311 311 308 304 304 306 305 305 300 302 300 303 304 302 303 303 304 301 302 302 303 303 304 304 304 306
321 321 321 318 305 303 305 305 306 307 308 310 310 311 311 311 312 314 311 313 314 314 310 312 308 310 312 312 310 308 307 307 306 306 307 307 303 304 303 307 302 302 301 300 303 299 301 303 303 303 303 303 306 306
320 321 319 315 304 304 305 305 306 307 308 309 310 311 311 311 310 311 311 314 314 314 312 312 310 309 311 308 307 307 309 310 311 312 312 311 308 306 303 305 305 303 303 301 301 302 305 303 305 304 303 305 306 306
319 319 316 310 303 304 305 305 306 307 309 309 311 310 310 310 311 313 314 313 313 313 312 313 312 312 312 311 313 311 312 312 313 315 313 313 308 309 310 308 308 305 303 303 303 302 304 302 303 303 304 304 305 304
316 314 313 308 303 304 305 305 305 306 309 311 310 310 311 312 312 314 313 314 312 314 313 311 312 317 313 313 313 316 315 318 315 316 316 312 307 309 308 311 311 309 306 306 304 304 303 304 304 303 303 303 303 303
313 313 312 305 303 304 305 305 305 306 311 310 312 313 314 315 315 314 313 309 309 309 311 313 308 317 312 314 319 316 316 317 319 316 313 312 310 311 311 311 310 307 307 307 306 306 305 305 305 305 304 303 302 303
312 312 307 303 304 304 305 307 309 307 310 313 312 312 314 314 314 312 312 314 316 316 308 308 308 312 311 319 319 316 317 313 316 317 314 314 313 309 313 312 309 309 306 306 306 305 305 304 304 304 303 303 303 304
311 305 303 303 304 305 310 308 309 308 312 315 314 312 313 312 314 318 318 321 318 318 312 315 313 313 313 313 317 315 317 314 316 312 314 310 307 308 309 312 311 311 308 308 307 306 305 304 304 303 303 304 304 305
305 303 303 304 304 308 309 309 307 311 312 311 312 316 316 315 315 325 323 318 317 314 313 313 315 313 316 311 308 310 316 318 314 313 312 309 306 307 308 311 312 311 311 311 310 308 307 307 306 305 305 306 306 305
304 304 304 304 305 307 310 309 309 308 309 310 317 315 319 320 322 322 319 317 315 313 312 311 313 313 308 311 309 314 313 311 313 310 308 306 306 305 305 307 309 311 309 308 309 308 309 309 309 309 308 307 306 305
304 304 307 308 309 307 308 309 310 309 310 314 316 315 320 318 321 319 316 315 313 311 311 313 313 309 310 312 310 310 315 312 308 308 305 305 304 304 305 305 305 305 306 306 306 306 309 309 308 308 308 306 306 305
305 311 311 309 309 310 309 310 310 309 312 313 314 316 315 319 321 319 316 316 311 307 307 307 310 311 312 310 312 312 312 310 308 305 305 304 306 304 304 304 305 306 306 307 307 307 307 306 306 305 305 306 304 304
308 315 310 309 307 307 311 311 310 312 315 319 319 314 316 319 319 316 316 315 307 307 310 308 313 315 308 310 312 309 309 307 305 308 305 304 304 303 302 306 308 309 307 307 307 307 307 307 307 306 304 305 303 305
314 313 310 310 306 306 313 313 315 319 321 318 320 320 318 317 316 314 313 310 309 308 307 312 307 311 311 312 309 308 306 304 304 304 304 302 303 304 306 306 308 307 307 307 307 307 307 306 307 307 306 305 303 304
306 308 308 306 305 306 312 316 312 315 317 317 317 316 316 316 313 312 312 311 308 307 307 307 311 309 309 307 307 307 305 305 306 304 303 303 304 304 305 305 306 305 304 304 304 304 305 305 306 305 304 302 303 304
307 307 308 308 312 306 311 314 316 315 319 319 317 317 315 314 313 312 312 311 309 309 311 312 311 308 307 306 305 306 305 304 304 306 304 301 302 303 303 302 303 303 302 303 303 302 302 303 302 300 301 303 303 303
308 314 315 311 309 309 312 313 316 318 317 319 316 315 316 314 316 315 313 306 309 309 309 308 308 307 306 308 308 308 306 306 304 304 307 302 301 302 303 302 302 303 302 302 302 304 303 303 302 303 302 303 303 302
307 314 317 314 314 314 313 313 312 312 318 317 317 315 315 319 319 316 310 312 310 309 307 309 308 307 307 309 309 309 309 308 305 305 302 302 300 300 301 301 301 300 300 301 302 301 301 303 302 302 302 302 303 303
308 316 316 316 318 314 315 317 319 318 323 320 317 321 320 319 316 312 315 311 311 306 306 309 309 308 309 307 307 308 308 305 302 302 302 301 301 301 301 300 301 301 300 301 302 302 302 303 302 301 301 303 302 302
309 313 317 319 317 314 316 320 319 321 320 321 321 322 322 319 314 314 316 313 310 308 307 306 304 301 303 305 304 305 305 304 302 302 301 301 299 300 300 301 301 302 302 301 302 302 303 303 303 301 301 302 300 300
310 312 314 309 314 322 324 324 324 322 320 319 322 322 321 317 320 318 318 311 311 309 305 301 301 301 302 302 302 304 305 305 303 300 302 301 300 300 301 301 301 301 301 301 300 300 301 302 302 301 301 301 301 299
310 312 315 319 318 319 320 324 323 322 321 323 323 320 317 319 322 320 315 310 310 306 302 301 301 301 302 304 301 301 304 305 304 302 302 302 302 301 299 298 299 301 302 301 299 300 300 301 301 301 301 300 300 300
311 315 314 311 315 319 320 320 320 319 321 324 322 321 320 323 323 318 310 306 305 306 307 305 305 304 303 304 303 303 303 305 304 302 302 302 301 300 300 300 301 301 302 302 301 300 300 301 301 301 300 300 300 300
315 315 319 316 317 317 322 322 323 323 322 320 321 323 323 322 321 315 309 308 307 307 307 305 305 305 305 306 304 302 302 303 301 302 301 301 300 299 300 301 301 302 302 301 301 301 301 301 301 300 300 299 300 300
312 313 314 316 315 315 320 322 323 321 319 319 320 321 320 317 316 310 308 306 306 306 302 302 303 303 304 304 302 302 302 301 300 297 297 296 296 298 300 301 300 300 301 298 298 300 300 300 300 300 299 299 299 299
309 309 312 312 313 315 318 318 320 319 317 317 317 317 318 315 316 312 306 304 303 303 303 303 303 302 301 301 300 300 300 301 301 299 297 296 297 299 299 298 298 297 299 298 298 300 300 300 299 299 299 299 298 298
307 308 310 308 308 310 317 317 318 318 317 318 317 319 319 317 314 310 305 304 304 303 302 301 301 302 302 301 300 299 298 300 300 300 301 301 300 299 299 299 299 298 298 298 298 299 299 299 299 299 298 298 298 298
309 310 311 312 314 319 319 320 319 319 319 318 317 316 317 317 316 311 310 306 303 301 302 301 300 300 301 302 302 302 302 303 302 300 300 300 300 300 300 300 299 299 298 298 298 298 298 299 298 299 298 298 298 298
310 310 312 319 322 322 319 320 321 322 321 321 319 318 317 319 320 315 310 310 307 305 305 304 303 302 302 301 301 302 302 302 302 302 301 301 301 300 300 300 300 300 300 300 300 299 299 299 299 299 299 298 298 298